GFSCGP_sfc_temp_006.txt.gz
Temp
80 73 66 69 72 73 72 70 69 72 75 71 71 73 75 79 80 78 80 80 81 82 82 81 81 80 81 80 82 74 74 72 74 74 71 69 67 69 69 71 71 70 69 67
74 66 72 75 74 72 71 67 67 72 74 71 72 71 74 76 76 77 78 78 78 78 79 79 78 78 76 75 74 71 74 74 73 72 70 69 68 69 69 69 67 68 66 66
66 69 74 72 71 67 69 65 63 63 70 73 70 67 69 74 75 76 76 78 78 76 74 75 75 72 72 72 72 73 72 71 68 69 71 69 68 67 65 66 66 66 66 67
69 73 70 70 67 67 62 68 66 65 63 58 71 55 65 69 69 71 72 73 74 75 76 76 73 71 70 69 69 71 71 71 70 69 67 65 64 62 64 64 64 64 64 63
65 68 68 66 65 68 64 68 66 65 62 62 65 59 62 69 65 67 69 71 71 72 73 72 72 71 71 69 68 70 71 71 70 68 66 64 62 61 62 60 60 61 61 60
69 75 70 68 70 70 71 67 67 66 62 50 62 60 55 62 64 66 68 70 71 72 72 72 73 72 70 69 68 69 70 71 70 68 66 63 61 60 59 59 58 57 57 57
67 67 71 72 66 71 69 63 50 45 47 45 62 58 57 65 68 68 67 69 70 71 71 71 72 71 70 69 69 69 69 69 69 67 65 64 62 61 59 57 55 54 54 54
59 52 65 71 65 62 64 61 47 39 40 47 62 53 55 67 69 70 70 70 70 69 70 70 70 70 69 69 69 68 68 67 68 65 64 63 61 59 58 56 55 53 53 53
58 56 68 68 69 68 61 55 63 51 44 42 54 59 64 67 66 68 67 68 69 69 70 70 71 69 70 69 68 66 67 67 66 65 62 59 58 57 56 55 55 53 53 55
62 54 64 67 69 69 64 67 52 51 38 37 49 53 49 59 62 65 66 67 69 70 70 70 69 68 68 68 66 65 65 64 63 61 57 58 57 58 57 56 53 52 52 52
65 60 58 64 60 59 61 58 58 57 50 39 38 47 63 62 64 63 65 67 68 68 68 67 68 67 68 66 66 63 61 61 60 60 58 56 56 56 55 54 51 50 50 49
62 59 49 58 64 67 64 60 59 44 44 46 43 45 66 65 64 65 65 66 67 66 65 66 65 64 64 63 62 62 60 59 59 58 57 56 56 55 53 52 50 49 48 49
61 56 47 52 58 63 59 61 60 55 47 42 37 44 66 61 63 65 64 65 64 64 64 64 63 63 62 62 60 59 59 59 59 59 57 56 54 52 51 51 50 50 48 48
57 59 52 45 52 59 54 58 60 57 42 43 45 51 59 57 59 63 64 63 62 62 61 61 60 60 60 59 59 59 59 57 57 58 57 54 52 51 50 50 49 48 48 47
61 51 55 56 58 58 56 56 57 55 55 44 49 53 58 60 61 58 59 60 60 58 58 58 57 58 59 58 59 60 59 59 57 55 55 53 53 52 51 49 48 48 47 47
61 48 48 47 57 56 51 55 56 57 57 56 55 54 63 60 61 58 56 57 56 56 55 56 57 57 58 58 59 59 58 59 58 57 54 55 53 52 49 48 47 46 46 46
54 49 44 40 47 45 38 48 56 57 59 56 47 56 60 56 56 57 56 56 54 54 55 54 56 58 58 58 58 57 58 59 57 56 56 53 47 47 47 48 48 47 43 43
48 46 41 37 37 33 53 62 61 56 59 60 60 59 58 56 57 59 56 53 53 53 54 56 58 58 58 58 58 57 58 57 56 56 54 50 48 48 48 47 46 45 43 41
59 47 36 35 38 45 51 56 53 50 49 60 57 56 56 56 56 54 56 56 55 55 57 58 59 58 58 57 57 56 55 55 55 55 50 49 46 48 46 45 44 43 42 40
54 50 43 35 32 31 49 59 61 59 41 57 55 52 51 53 41 48 55 56 56 58 59 59 59 59 57 56 56 54 53 52 51 48 49 49 49 47 46 44 43 42 42 41
37 39 36 36 34 40 56 60 60 40 42 54 53 52 51 47 47 51 56 56 58 59 59 58 58 56 55 56 55 52 52 50 51 50 49 47 46 46 47 45 44 41 39 36
38 36 34 38 33 32 60 58 44 52 55 55 54 53 50 50 51 54 56 56 57 57 58 58 55 54 54 55 53 51 50 51 50 48 47 46 46 47 48 43 40 40 37 33
45 49 45 45 43 57 61 56 58 54 54 51 51 53 52 51 52 54 54 55 56 56 56 56 54 53 53 54 54 50 50 50 47 46 45 45 46 46 45 40 38 37 35 30
58 62 48 49 56 58 59 60 56 57 55 55 55 53 54 52 53 53 54 55 55 55 54 54 52 51 51 53 53 50 49 49 46 44 43 43 42 41 41 42 39 36 30 28
55 58 53 51 57 59 59 55 56 54 55 54 55 56 55 54 53 54 53 53 54 54 53 53 51 50 49 51 50 49 47 46 44 42 41 38 37 37 38 40 34 32 30 29
56 53 47 44 56 54 53 54 55 53 53 55 55 54 55 55 53 54 52 52 52 50 51 51 50 49 49 49 47 47 47 44 38 35 36 35 34 34 35 35 35 33 31 32

GFSCGP_sfc_temp_009.txt.gz
Temp
68 58 52 57 61 64 63 59 56 57 66 61 59 59 62 66 64 64 64 65 67 68 70 70 70 68 66 67 66 63 61 64 63 62 59 60 61 61 60 62 63 62 62 63
61 54 63 68 67 64 63 58 55 60 66 60 56 55 61 65 63 65 63 64 65 66 66 67 66 65 64 63 62 61 61 61 61 61 60 61 61 61 60 61 61 61 61 61
56 61 70 67 62 60 59 55 55 55 61 59 57 53 58 64 66 68 66 65 65 64 63 64 63 61 62 58 60 62 62 63 62 61 63 61 60 59 59 59 59 61 59 59
61 67 66 64 61 60 54 61 60 59 53 45 56 41 52 59 60 63 63 62 62 63 64 64 62 59 59 58 60 62 63 64 65 62 59 57 55 54 56 55 55 55 56 56
57 60 60 59 60 63 57 61 58 57 51 48 53 45 51 60 55 57 58 61 59 60 60 61 60 61 60 60 59 60 62 63 64 62 59 56 55 55 55 54 52 52 53 54
61 66 62 60 65 64 65 59 58 55 51 37 51 48 46 51 56 57 60 61 61 60 60 61 61 62 60 60 60 62 62 62 62 61 59 57 55 54 52 50 49 50 50 51
60 60 62 66 58 62 59 51 35 33 32 32 54 50 46 55 59 60 58 57 58 59 59 59 62 61 59 58 58 59 60 62 61 59 57 55 53 52 50 49 48 50 51 48
48 44 58 64 58 53 54 51 32 31 29 34 52 43 45 58 61 61 61 60 60 60 60 59 61 60 61 63 60 59 61 61 60 56 54 53 52 51 54 54 53 49 46 46
48 49 61 63 63 59 55 45 54 40 35 30 43 49 55 59 60 61 60 61 58 58 59 61 64 64 62 61 57 57 57 57 56 54 52 52 54 55 53 53 47 45 45 50
55 46 59 62 62 62 56 59 41 38 30 30 40 42 42 52 54 59 57 58 57 60 59 59 59 57 56 56 54 54 54 54 54 53 53 55 54 54 52 46 45 45 45 45
54 50 50 58 53 51 52 49 50 48 37 29 26 36 52 53 55 55 57 56 55 55 55 55 55 56 55 55 54 52 53 53 52 53 55 54 52 49 47 46 45 45 45 45
54 48 36 49 58 60 56 52 50 31 35 32 30 34 53 54 56 56 57 57 55 55 55 54 55 55 54 52 53 53 52 51 52 53 51 51 50 49 47 46 46 45 45 45
52 46 33 42 50 56 52 55 53 46 36 34 24 33 59 57 56 59 54 54 55 54 54 52 52 53 53 52 52 52 51 51 53 53 50 49 51 47 45 45 45 45 44 43
53 51 42 33 43 49 45 51 52 45 30 33 34 43 50 50 51 52 52 52 51 52 52 51 51 51 51 52 51 51 51 51 51 51 49 48 47 47 45 46 45 45 45 43
52 41 46 48 51 52 50 49 50 47 46 35 40 45 49 49 52 51 52 52 52 51 51 51 50 49 50 50 50 51 50 50 51 49 49 47 46 46 43 43 45 45 44 43
52 36 37 37 48 48 43 47 47 49 50 48 48 46 52 52 53 51 50 50 49 50 50 50 51 51 51 51 50 51 49 49 50 50 51 49 45 44 44 45 44 43 42 41
45 37 32 31 40 37 30 41 48 49 50 48 38 46 50 48 49 46 46 48 48 48 48 49 50 51 50 49 50 47 48 49 48 49 49 46 44 43 43 44 43 42 41 39
40 36 31 26 28 22 45 54 53 49 50 51 50 48 48 48 47 47 48 46 46 48 49 50 49 49 49 48 47 47 48 48 46 45 46 45 43 42 43 42 42 40 40 37
49 35 26 27 26 36 45 50 47 43 42 50 47 47 48 50 49 44 50 49 47 47 49 49 49 49 47 46 47 47 46 46 45 44 43 43 42 42 41 39 40 39 36 33
46 39 31 28 20 19 39 52 55 52 31 49 48 45 45 45 31 38 47 49 48 50 50 49 49 48 46 46 47 45 45 44 43 43 43 43 41 41 39 40 40 36 36 33
28 28 25 30 19 31 46 54 55 32 34 46 47 45 43 39 40 44 47 48 50 50 50 50 48 46 45 46 46 44 43 42 44 44 43 43 42 41 40 39 37 35 31 30
31 27 29 31 24 23 52 51 39 43 47 47 46 45 45 44 45 47 48 49 50 48 48 49 45 45 46 47 45 44 42 44 44 42 42 40 40 41 42 37 35 32 29 28
35 38 33 35 33 46 52 50 51 49 47 45 47 50 47 46 47 48 47 48 48 47 46 47 44 44 45 45 45 42 42 43 41 39 38 38 39 40 39 35 31 29 28 23
46 51 36 40 47 50 50 51 52 50 48 49 50 50 50 47 47 47 47 46 45 44 43 44 44 43 42 44 45 42 42 41 39 37 36 36 34 34 34 34 31 28 22 20
44 48 45 40 48 49 48 49 49 50 51 50 53 52 50 48 46 46 44 44 43 42 43 43 42 42 43 42 41 41 41 40 37 36 34 31 30 31 31 32 29 27 26 24
49 45 37 35 48 46 44 48 52 50 51 52 50 48 50 48 45 45 42 42 42 41 42 42 42 42 41 40 39 41 40 37 34 32 30 28 27 26 29 29 28 32 30 32

GFSCGP_sfc_temp_012.txt.gz
Temp
63 56 51 54 57 59 62 53 52 52 60 59 56 53 55 57 58 59 59 59 59 59 62 62 62 62 61 60 59 59 62 60 62 59 56 56 56 58 58 61 62 61 61 59
57 51 59 64 62 59 57 55 52 57 63 58 54 52 55 59 57 59 59 59 59 59 60 61 60 59 58 57 57 59 59 59 60 58 56 57 57 61 61 61 61 57 56 57
53 59 65 62 58 57 54 52 51 52 56 56 56 51 53 58 60 60 59 59 59 58 58 59 59 55 55 55 57 59 60 60 59 61 61 60 60 59 58 56 55 56 56 55
59 63 62 58 56 55 49 58 57 54 49 44 51 38 50 52 54 57 57 56 57 59 59 60 59 56 55 55 56 59 61 61 61 60 58 58 55 54 53 51 51 52 52 53
54 57 56 55 56 58 54 58 55 53 47 45 48 41 46 54 51 52 53 55 55 57 58 57 57 57 57 56 56 57 59 60 60 59 59 56 54 51 50 49 49 50 51 53
58 61 58 56 60 60 61 55 53 51 47 35 47 43 42 46 51 54 55 55 55 54 55 56 57 58 57 56 57 56 58 58 59 57 55 53 51 50 48 48 50 51 50 48
55 56 60 61 56 59 56 47 33 33 31 32 49 43 42 52 56 55 53 53 55 54 54 55 57 56 57 56 56 58 58 56 55 53 51 50 50 49 53 52 51 47 48 47
45 41 54 61 54 50 52 47 32 32 29 33 47 38 43 54 57 59 60 56 56 56 56 55 55 55 55 55 55 56 56 54 53 51 51 51 51 52 53 51 49 47 44 43
45 46 57 58 58 56 51 43 50 38 33 29 38 45 51 55 57 59 58 60 57 53 53 55 54 54 54 53 52 54 55 52 52 52 51 50 53 54 51 48 44 43 44 46
52 43 54 58 60 59 54 55 40 36 29 29 36 39 40 48 50 53 50 51 52 53 53 53 53 52 52 51 51 54 55 52 52 51 51 52 50 49 46 45 43 43 43 44
51 48 47 54 50 47 49 46 46 44 34 28 25 34 47 49 51 48 49 50 50 51 52 51 52 51 51 52 52 51 50 50 50 50 50 49 48 47 45 44 43 43 43 43
51 44 34 46 55 56 52 48 45 30 35 29 29 33 52 50 52 52 52 53 54 54 52 52 50 51 50 50 50 49 49 49 50 49 49 48 47 47 45 44 44 42 42 43
50 43 32 40 47 52 49 50 48 41 34 34 24 31 52 51 50 53 49 50 50 49 49 48 48 48 49 49 49 48 48 48 48 48 47 47 47 45 43 43 42 44 42 43
51 46 40 34 40 45 42 47 46 42 29 32 32 40 44 46 46 48 47 47 46 47 48 48 47 47 47 48 47 48 47 47 47 47 46 45 44 43 41 41 42 43 43 43
49 39 42 44 46 47 45 44 44 43 41 34 39 40 44 46 45 47 48 47 48 48 48 49 48 47 46 47 47 47 46 46 46 45 44 42 42 42 42 43 42 42 42 42
48 36 37 37 44 43 40 44 43 44 46 45 44 40 48 48 48 46 46 46 47 48 47 47 48 47 48 47 45 46 46 46 46 44 43 44 43 42 41 41 41 40 40 41
42 35 31 30 36 36 30 40 45 46 47 45 37 42 45 44 45 43 44 45 46 46 46 47 46 47 46 45 46 45 45 45 44 43 44 43 42 41 39 40 39 38 39 40
37 33 28 25 27 21 42 50 50 46 46 45 44 44 45 44 43 44 45 45 45 46 47 46 46 45 45 45 45 45 45 44 43 42 42 42 41 39 39 38 38 37 36 36
45 32 27 23 25 34 43 48 46 43 41 46 44 44 45 44 43 41 47 47 46 46 46 46 46 46 44 44 44 44 43 42 42 41 41 41 40 39 38 37 35 35 34 32
42 35 29 27 20 19 37 48 52 49 32 46 46 43 43 44 31 37 45 45 46 46 47 46 45 45 43 44 44 42 41 40 40 41 41 41 40 39 37 36 35 34 32 32
28 25 24 19 17 29 42 49 51 32 35 45 45 43 42 38 39 43 44 45 46 47 47 46 44 42 43 43 42 41 40 39 41 41 41 40 39 38 38 36 35 32 31 30
31 27 25 24 18 24 47 48 39 42 43 45 44 44 43 43 44 45 46 46 47 45 44 44 42 42 42 42 41 40 38 40 41 40 39 37 37 37 38 32 31 31 28 26
36 37 32 35 34 45 48 48 48 47 45 44 43 45 46 44 45 46 46 44 43 42 41 43 40 40 41 41 41 39 39 40 39 37 36 34 35 35 34 30 28 27 26 21
44 47 35 38 45 46 48 47 48 47 46 46 46 46 47 46 46 43 42 41 41 40 39 40 39 38 38 40 40 39 39 39 37 35 33 32 32 31 31 30 30 27 20 19
41 45 43 37 44 44 46 46 47 47 47 48 50 51 49 45 42 41 41 40 40 39 39 39 38 37 38 39 38 38 37 36 35 34 33 31 29 29 29 29 27 26 26 24
45 44 36 37 46 45 44 46 48 47 47 51 49 45 45 43 41 41 39 39 39 37 38 37 37 37 37 36 37 36 36 36 35 32 31 29 26 25 28 28 29 32 31 31

GFSCGP_sfc_temp_015.txt.gz
Temp
60 55 49 50 53 57 55 50 48 49 56 54 49 48 50 52 52 51 52 53 53 54 56 58 58 58 58 58 60 61 59 59 58 57 55 56 53 54 55 58 60 57 58 56
56 50 56 60 58 57 55 51 48 53 58 54 50 47 51 54 52 53 53 53 53 54 56 57 57 56 56 57 57 56 57 58 57 56 54 54 54 56 59 59 55 54 53 53
51 55 62 59 55 54 51 48 48 51 53 53 52 47 49 55 55 55 54 54 55 54 54 56 56 54 54 55 56 58 58 58 58 57 56 58 59 57 54 52 52 52 52 51
55 59 58 56 54 52 47 54 54 53 48 41 48 34 45 49 49 52 52 50 51 54 56 55 54 53 54 53 55 57 58 58 58 57 56 56 54 53 50 48 48 48 49 49
51 53 54 53 52 55 51 55 52 50 45 43 45 38 42 49 45 47 48 52 54 54 55 54 54 55 55 54 54 54 56 57 57 55 54 52 51 49 48 47 47 48 49 51
54 57 56 53 57 56 57 53 50 47 44 34 43 40 39 43 47 48 51 52 55 54 52 54 55 55 53 52 52 52 53 52 52 51 50 49 48 47 47 49 50 50 48 46
52 53 56 58 52 55 53 45 33 32 30 31 45 40 41 49 52 52 52 52 51 52 51 52 56 56 52 51 51 52 52 51 51 50 50 49 49 49 49 50 49 47 44 43
42 40 52 58 52 48 47 45 32 33 28 32 44 35 41 51 54 56 54 53 52 50 54 54 53 51 50 51 50 51 51 51 51 51 51 50 49 49 49 48 46 44 42 42
43 43 54 55 56 53 48 41 47 35 31 29 36 41 50 51 51 53 52 52 49 49 49 50 51 50 49 49 50 50 50 50 51 51 49 49 49 49 47 47 43 42 42 44
50 42 51 56 56 55 52 53 39 34 28 29 34 36 36 45 48 49 47 47 47 49 49 49 49 49 49 49 50 50 51 51 51 49 48 49 47 47 46 44 42 42 42 45
49 46 45 51 47 45 47 43 42 40 33 27 24 32 45 47 48 46 45 47 47 47 48 48 51 51 50 50 50 48 48 48 47 47 46 45 45 45 44 42 41 42 42 41
48 42 34 43 52 53 49 45 43 30 34 28 27 32 48 47 48 49 48 50 48 49 48 51 51 51 52 49 48 48 46 46 46 46 45 45 45 44 42 41 41 41 43 42
48 41 32 39 45 49 45 47 43 39 33 32 23 31 49 49 47 49 46 47 47 46 46 48 50 49 48 48 48 46 45 45 45 45 43 43 42 42 41 40 41 41 40 40
50 43 38 33 38 43 40 44 43 40 29 31 31 36 42 44 44 45 45 45 44 45 47 47 47 47 49 48 45 44 44 44 44 44 42 42 41 41 40 40 39 39 39 38
47 39 40 41 42 43 42 43 42 40 39 34 37 38 43 44 43 44 45 44 45 45 46 46 45 47 47 45 44 44 44 44 44 43 42 41 41 40 40 40 39 39 40 39
45 34 36 35 41 40 38 42 41 41 42 41 41 40 45 45 45 44 44 44 44 47 48 47 47 46 46 45 43 44 44 44 44 42 42 42 41 41 40 39 38 38 38 38
40 34 32 29 34 35 30 38 42 43 44 43 36 42 43 42 43 43 42 43 44 45 46 45 45 45 44 43 43 43 43 43 42 41 42 41 40 39 38 38 37 36 35 37
36 31 26 24 27 22 41 45 47 44 44 43 41 42 44 43 42 43 44 43 43 44 45 45 44 44 43 42 42 42 43 42 40 40 40 40 39 38 38 37 36 34 34 32
42 31 26 23 25 34 42 45 42 41 40 44 42 42 42 42 41 40 45 45 44 44 45 44 44 43 42 42 42 41 40 39 39 39 39 39 38 37 36 35 34 33 32 31
39 34 29 25 20 20 37 44 49 47 33 44 44 41 40 40 31 37 44 45 45 45 45 43 43 42 41 41 40 40 39 38 38 39 39 39 38 36 35 34 33 32 32 33
27 24 23 15 18 29 41 48 49 34 35 43 44 43 41 39 39 42 44 44 45 44 44 43 42 40 40 40 40 38 38 37 39 39 39 37 36 35 34 33 32 30 30 29
31 28 24 25 19 26 46 45 39 42 41 45 43 44 43 43 43 44 45 44 43 42 41 41 40 39 40 40 38 37 36 39 38 38 37 36 34 35 35 31 29 30 28 27
33 36 32 34 34 44 46 45 47 46 45 43 43 44 45 43 43 45 43 42 41 40 39 40 38 38 39 38 37 36 37 37 36 35 34 34 33 33 31 29 27 26 26 21
41 44 34 37 44 44 45 47 47 46 45 44 45 45 45 44 45 43 41 39 38 37 37 38 37 36 35 37 37 36 36 36 34 33 35 34 32 32 31 30 30 26 21 20
40 42 40 36 42 43 46 47 47 46 45 46 47 48 48 47 42 40 38 38 37 37 37 37 35 34 35 35 35 34 34 34 33 33 35 33 30 30 30 29 27 28 27 25
43 43 34 37 45 44 45 47 46 44 45 47 47 45 45 44 41 39 37 37 37 36 36 34 35 34 34 34 33 33 34 33 33 32 33 31 30 28 29 27 27 32 31 31

GFSCGP_sfc_temp_021.txt.gz
Temp
63 61 57 60 61 60 59 57 56 56 57 54 50 51 52 55 57 57 57 59 58 58 58 60 62 64 64 64 65 63 61 60 59 60 60 64 60 58 59 63 62 62 62 61
62 57 60 61 60 59 57 55 52 55 57 55 52 50 53 55 53 55 56 57 57 56 57 59 62 64 65 64 64 64 65 64 65 67 66 66 65 65 62 61 60 60 60 60
57 59 61 59 58 57 54 55 53 53 55 56 55 51 51 54 55 55 55 57 57 57 57 59 60 62 62 62 64 66 66 66 66 66 66 65 64 63 63 61 60 59 60 60
58 61 59 58 56 57 52 58 55 53 54 50 54 50 49 51 51 53 55 57 57 58 60 61 61 61 61 61 63 65 65 65 63 64 64 62 63 61 59 60 60 61 59 59
55 57 57 55 56 59 54 58 57 54 52 52 51 52 48 51 50 53 55 56 57 59 61 61 61 61 60 61 62 62 61 61 61 61 61 61 59 59 60 60 57 58 58 58
57 62 60 59 58 58 57 56 54 51 51 44 48 49 48 48 53 54 56 56 57 59 60 60 59 59 60 61 60 60 60 60 61 62 61 60 59 59 60 59 58 59 59 58
55 56 60 60 58 59 57 53 44 42 41 41 47 45 52 55 56 58 56 57 59 60 59 59 60 61 59 59 58 60 61 59 60 60 60 60 59 59 58 58 58 57 57 57
48 46 56 59 57 55 52 53 43 36 36 41 47 43 53 55 59 61 61 60 59 58 58 59 59 58 58 57 59 60 61 60 60 59 58 58 57 58 58 57 57 56 54 53
47 48 58 57 59 59 51 48 51 41 36 38 45 49 55 53 55 56 56 57 57 58 58 58 57 57 57 58 58 59 60 59 57 57 57 56 57 56 56 55 54 53 53 53
52 46 54 57 59 57 56 54 46 44 35 34 41 42 48 48 51 54 54 55 57 57 56 56 57 56 57 58 57 58 59 56 54 56 55 56 55 55 55 54 53 53 53 53
54 51 50 54 52 51 51 48 45 46 41 37 34 44 52 54 55 53 56 57 56 55 55 55 56 56 57 58 58 57 53 55 56 56 54 55 55 54 54 53 53 53 52 52
53 47 43 49 55 56 54 50 48 41 38 36 37 44 53 53 56 56 56 55 55 56 55 56 56 56 56 55 54 51 52 54 54 55 55 54 54 54 53 52 52 51 50 49
52 46 40 45 51 54 51 50 46 43 41 38 36 45 53 51 52 55 56 54 52 52 54 54 55 55 54 51 50 54 52 53 54 55 54 54 53 52 51 50 50 50 49 48
52 46 45 42 46 48 46 46 46 47 39 39 41 46 50 51 50 51 52 52 52 52 52 54 54 55 52 52 54 51 51 53 54 54 54 52 51 50 50 50 49 49 48 47
51 45 45 43 44 46 47 46 45 46 45 43 45 44 51 54 54 53 51 50 50 50 50 52 52 52 53 53 50 51 52 52 53 52 51 50 50 49 49 48 48 47 46 46
47 42 43 41 42 42 43 46 46 45 45 46 45 45 54 54 53 50 49 48 49 50 51 52 52 52 52 51 51 50 51 51 51 50 49 48 48 48 48 48 46 46 46 45
44 40 39 36 37 39 35 43 46 45 47 49 43 52 50 49 48 51 50 50 49 50 51 51 51 53 53 52 50 50 51 50 48 47 48 47 46 46 46 46 46 45 44 43
40 38 34 34 32 32 47 49 49 47 48 49 49 50 50 50 50 50 51 50 49 50 51 52 53 53 52 51 50 50 50 48 46 46 46 46 45 45 46 44 44 44 43 42
44 37 30 33 34 40 48 46 45 44 49 51 50 50 47 47 49 50 50 52 52 53 53 53 52 51 49 50 49 48 48 47 46 45 45 45 44 44 44 43 43 43 42 41
41 39 38 30 32 31 44 49 51 52 41 52 50 46 45 48 44 52 50 51 51 53 51 49 48 47 48 47 47 46 46 44 44 44 44 44 44 43 42 42 42 42 41 40
33 32 33 26 33 37 46 50 52 41 44 48 49 48 45 47 52 52 51 50 52 50 49 48 47 47 47 46 45 44 43 43 43 43 43 43 43 42 42 42 42 41 40 38
37 33 31 28 30 32 48 50 44 50 50 50 49 49 47 51 48 48 47 47 47 44 43 44 45 45 44 45 44 43 42 43 42 42 41 41 41 41 41 41 41 39 38 35
37 41 39 39 41 48 50 50 53 50 51 52 50 51 51 48 48 48 46 44 45 46 46 46 45 43 44 43 43 41 42 41 40 40 40 40 41 40 40 39 39 38 37 34
42 44 41 41 47 45 48 52 51 53 52 53 52 53 50 49 48 45 44 43 43 44 41 44 43 42 41 42 40 40 40 40 39 38 39 40 39 39 40 39 39 37 35 33
43 43 41 40 45 48 50 50 53 53 51 51 52 51 50 50 47 43 41 40 39 38 42 42 41 40 40 40 39 40 39 38 37 37 38 38 38 36 37 37 37 36 36 35
44 44 41 42 51 50 51 54 53 51 51 51 50 46 47 48 44 43 39 38 38 41 41 41 39 39 39 38 37 37 38 37 36 35 36 37 37 37 36 36 36 33 32 32

GFSCGP_sfc_temp_027.txt.gz
Temp
75 68 64 70 72 72 71 68 68 72 74 73 72 73 75 78 79 78 79 79 79 79 80 79 81 82 83 77 73 71 68 70 72 73 73 72 70 72 73 75 73 73 73 72
70 61 73 74 73 71 71 68 68 71 74 71 72 71 74 75 77 78 78 78 79 80 76 77 78 79 79 72 71 73 72 72 73 72 73 77 75 75 76 74 72 73 72 72
57 68 72 71 70 69 70 67 67 67 71 73 72 68 69 73 76 77 80 81 81 79 75 75 76 71 71 69 68 72 73 72 75 78 78 78 77 73 73 73 73 71 71 71
63 73 70 71 69 71 64 71 71 68 65 60 73 57 67 70 70 71 73 76 78 77 77 77 76 68 68 69 70 71 71 78 78 78 77 74 75 70 73 73 72 73 70 69
62 69 70 69 68 71 63 72 70 70 68 64 66 62 52 71 68 70 73 74 74 76 77 76 77 76 73 70 71 77 78 78 76 77 76 74 72 71 72 72 69 70 70 70
66 75 74 72 71 72 73 69 68 69 67 55 65 63 63 67 71 72 73 73 74 76 76 77 77 77 76 76 75 75 75 75 75 74 73 71 69 69 69 67 67 69 68 68
68 69 72 74 68 71 71 66 53 50 51 50 65 61 66 75 75 76 72 73 74 75 75 74 73 74 74 73 72 73 74 72 72 71 70 69 67 66 62 65 67 64 65 64
60 55 69 73 70 67 67 67 53 44 46 53 64 56 67 75 77 78 76 75 74 74 74 74 74 74 73 72 72 73 73 71 71 70 69 68 67 66 68 67 66 64 63 62
61 59 71 70 72 72 66 60 68 57 52 49 59 67 71 71 72 75 74 73 72 73 74 73 75 74 73 72 71 72 72 72 70 68 67 65 61 63 64 64 64 64 62 63
68 57 67 68 71 71 67 71 57 58 44 43 58 60 64 65 67 71 72 72 73 74 74 74 75 73 73 73 71 72 72 70 68 66 64 63 60 64 65 64 62 61 61 61
71 65 61 65 64 65 63 61 62 63 58 47 47 59 70 69 70 70 73 74 73 74 74 74 74 74 73 73 71 70 71 68 65 65 62 58 61 64 64 63 62 62 60 60
70 66 57 61 69 71 69 66 65 52 52 54 51 55 72 71 73 73 73 75 76 76 76 76 74 73 72 71 70 69 67 66 64 63 57 60 65 65 63 62 62 61 59 59
69 62 52 56 62 67 63 66 66 64 59 52 46 55 73 72 71 74 74 75 76 76 76 76 74 72 70 70 69 67 66 64 62 59 60 65 64 63 62 62 61 61 59 58
61 64 59 52 59 66 59 63 66 62 51 53 56 62 68 70 70 73 73 76 77 75 75 75 73 72 70 70 69 66 64 63 60 59 62 64 63 62 61 61 60 59 59 57
66 57 62 64 63 63 63 63 63 61 62 55 60 63 70 73 73 75 76 75 75 74 73 73 71 71 70 69 68 66 63 60 59 60 63 63 63 61 60 59 59 58 56 56
66 57 58 54 61 60 58 62 64 65 64 64 65 64 75 74 77 73 73 73 72 73 73 71 72 71 70 69 66 64 61 60 58 61 61 62 60 59 58 57 56 55 55 55
61 57 53 48 54 55 43 55 61 64 67 65 57 66 74 71 69 70 72 71 70 71 72 71 71 70 70 69 66 62 61 59 59 61 61 60 58 57 55 56 56 55 54 54
58 57 52 46 41 34 61 67 66 62 66 70 69 70 73 72 71 72 73 72 71 71 71 72 71 70 71 70 66 63 61 61 60 60 59 58 57 55 55 54 54 53 53 52
64 57 45 40 46 55 60 64 60 58 60 69 66 68 70 70 67 69 73 72 72 73 73 73 72 71 70 68 64 60 59 58 59 57 57 57 56 53 52 52 52 53 52 51
58 59 51 45 37 34 56 62 65 65 52 66 67 66 66 66 57 66 71 71 70 71 72 71 71 70 68 65 64 60 57 58 55 56 55 55 53 52 51 51 51 51 51 50
45 45 42 44 40 50 64 64 64 48 52 65 66 66 66 62 67 68 70 71 71 72 71 71 70 67 65 63 59 56 55 53 57 55 53 51 53 52 52 51 50 50 49 48
48 45 40 46 36 37 65 63 53 61 66 67 66 66 64 66 67 68 68 68 69 68 68 65 62 62 59 56 53 50 50 54 53 50 48 50 52 51 51 49 48 48 48 45
50 57 54 55 54 64 67 65 69 68 64 65 65 67 67 65 66 67 67 66 66 65 64 62 60 53 50 50 49 46 50 48 46 47 48 49 50 50 50 47 45 45 45 42
60 62 55 54 63 65 66 68 68 68 67 68 68 67 67 64 66 65 66 63 62 63 59 57 50 45 41 43 46 48 48 46 46 46 46 47 47 47 46 46 48 44 39 39
60 60 58 57 62 65 67 68 66 65 66 66 67 66 65 63 63 64 63 59 58 52 50 46 40 39 44 49 49 48 46 46 45 45 46 45 44 43 45 46 46 44 43 41
62 59 52 51 60 57 61 64 62 62 60 60 60 60 60 60 60 60 56 52 48 42 39 40 42 44 46 44 45 46 47 46 43 42 42 41 41 42 43 43 41 40 36 36

GFSCGP_sfc_temp_030.txt.gz
Temp
73 66 60 57 68 69 67 65 64 69 76 72 70 71 73 77 78 76 76 75 75 76 79 80 79 79 78 74 70 70 67 67 67 67 66 65 63 65 66 67 68 67 66 66
68 60 68 68 71 69 68 64 65 71 74 71 71 69 74 76 76 77 77 76 76 76 76 76 78 77 74 71 68 66 68 68 69 71 70 69 67 67 67 66 66 66 66 65
58 63 70 69 68 65 67 65 63 65 71 73 70 66 69 75 77 79 79 79 79 77 73 74 75 74 69 70 68 67 67 69 69 71 70 70 69 66 65 64 63 64 65 65
61 71 68 67 66 69 60 70 69 67 64 56 67 52 56 64 71 75 77 77 78 78 76 76 75 71 69 69 70 71 70 71 71 70 71 67 67 64 64 64 63 63 65 64
60 63 65 63 66 71 61 67 68 69 65 55 57 51 58 62 61 69 73 75 77 78 77 75 71 68 67 69 69 70 71 71 72 72 70 67 64 64 64 62 61 63 63 63
65 74 67 59 69 73 73 67 69 68 64 43 55 50 55 59 63 66 73 74 76 75 75 76 71 69 69 69 69 68 70 72 71 70 69 66 63 62 60 60 59 60 59 59
64 66 74 72 68 73 71 64 50 40 41 44 65 59 60 65 66 56 64 73 73 74 74 74 72 70 68 67 69 70 71 70 69 66 65 63 62 60 59 59 59 57 56 55
55 54 69 74 70 57 65 64 48 34 33 48 63 55 63 74 77 77 76 74 74 73 72 72 72 72 70 69 69 69 70 69 67 65 63 62 61 59 59 59 58 56 55 54
52 51 68 73 74 71 65 58 67 56 51 45 56 64 70 73 72 75 72 72 71 72 72 71 72 70 69 68 67 67 69 69 66 63 61 60 59 59 57 58 58 57 55 57
51 40 60 69 72 72 67 71 55 57 41 40 53 58 56 64 67 71 70 70 71 72 72 71 72 70 70 69 67 67 68 67 65 63 60 59 58 59 58 58 57 56 55 55
68 54 60 66 63 63 63 60 62 62 56 43 41 52 68 68 70 69 71 72 71 71 72 71 72 72 71 69 68 67 68 67 63 61 59 57 57 58 58 57 56 55 55 54
71 64 54 60 70 73 69 64 63 48 49 52 47 50 72 71 73 72 72 74 74 73 73 73 72 72 70 69 68 67 66 65 62 61 58 57 57 58 57 57 56 55 54 54
69 60 49 55 63 68 63 66 66 64 58 50 42 50 72 72 72 74 72 74 74 74 74 74 72 71 70 69 67 66 64 63 62 61 59 57 56 58 57 57 57 55 54 53
64 63 57 49 57 63 58 62 66 62 46 49 51 58 67 69 69 72 72 73 74 73 74 74 73 71 70 69 67 66 63 62 60 60 58 56 56 57 57 57 55 54 54 52
65 56 60 63 65 63 62 62 64 61 60 51 56 60 67 71 70 72 74 74 73 73 74 74 73 70 69 67 67 67 63 60 59 57 57 56 56 58 57 54 53 53 52 52
66 55 58 55 62 62 57 62 63 63 64 63 63 62 73 74 73 71 71 72 72 72 73 74 73 73 70 68 67 65 62 59 58 56 55 57 57 57 54 53 51 51 50 50
61 55 51 45 55 53 42 54 59 62 65 64 56 64 71 70 71 69 70 71 70 70 71 72 72 71 70 67 63 61 62 59 56 55 56 56 57 55 53 53 52 51 49 49
59 56 50 43 40 35 58 68 66 62 65 68 68 68 69 67 69 70 72 70 69 71 71 70 71 70 70 69 62 61 62 58 56 55 56 56 55 54 53 51 49 48 48 47
65 55 44 38 43 52 58 64 61 59 58 66 64 66 68 69 68 68 72 70 69 68 69 70 70 70 69 67 64 62 59 57 54 54 53 54 54 52 50 48 47 47 46 45
61 60 47 43 37 34 55 63 67 66 48 65 65 63 63 66 51 60 68 69 69 71 71 70 70 69 67 63 61 58 56 53 52 52 51 51 51 49 47 47 46 45 46 46
44 44 39 41 38 47 64 65 66 46 49 64 64 64 63 59 61 66 68 67 69 70 69 69 67 64 62 62 57 51 50 48 50 50 50 49 47 46 48 46 45 44 43 41
44 42 38 44 35 34 66 63 52 59 64 64 64 64 61 63 64 65 67 68 67 67 65 63 55 52 51 52 50 46 44 47 46 45 44 45 47 47 48 45 43 42 40 38
49 55 50 50 48 63 67 64 68 67 63 64 64 65 64 63 63 65 65 65 64 64 61 56 50 47 45 45 45 42 43 45 44 44 44 44 46 47 47 43 40 39 38 34
62 64 55 55 63 65 67 69 69 67 63 65 65 65 64 61 61 62 63 60 60 54 53 51 45 41 39 42 44 45 47 46 44 41 41 43 43 43 42 43 41 39 34 32
60 61 57 57 62 64 65 63 62 62 63 61 62 61 58 59 60 59 54 50 48 45 43 41 40 41 42 45 46 46 45 44 42 42 43 42 40 40 40 42 41 35 36 35
63 59 51 49 58 57 57 58 60 57 56 56 56 54 52 53 51 49 44 43 42 40 41 41 42 43 44 44 45 46 46 45 42 40 40 36 35 36 38 39 38 39 36 36

GFSCGP_sfc_temp_033.txt.gz
Temp
61 53 49 54 58 63 61 57 56 61 67 63 62 58 62 65 66 63 63 65 64 66 69 72 70 72 69 68 65 64 63 61 61 59 58 59 59 57 57 59 60 60 61 60
56 48 60 66 65 62 62 57 55 63 68 63 62 60 62 65 64 66 65 65 66 66 67 70 67 69 68 66 64 63 63 63 61 61 61 64 59 59 59 59 59 60 59 59
53 57 66 65 61 59 58 55 57 58 60 60 59 54 56 65 68 68 69 70 70 66 66 67 66 65 64 62 63 63 63 64 63 63 65 63 59 58 56 56 56 58 59 60
55 63 63 61 60 62 56 63 61 62 54 46 56 42 52 58 61 66 67 66 68 67 68 69 64 63 61 61 61 63 64 64 64 63 62 61 58 57 56 55 56 57 59 59
54 57 57 56 61 65 57 63 61 60 56 50 50 44 49 57 60 62 63 65 64 67 67 66 63 62 62 62 61 62 63 64 65 66 63 63 56 55 56 56 55 55 56 58
61 65 62 60 65 64 66 61 60 56 51 40 51 48 47 50 58 63 68 66 67 66 64 64 64 63 62 60 61 61 63 63 64 64 62 59 58 55 54 53 54 54 52 51
59 60 66 65 59 63 61 52 38 34 34 35 55 49 50 60 62 63 65 66 62 63 60 61 60 60 60 60 60 61 61 61 61 58 57 56 54 54 53 53 51 53 52 49
49 45 58 65 60 59 56 54 39 31 30 36 53 44 54 64 68 67 66 64 63 63 63 61 61 61 61 60 59 61 61 59 59 57 56 54 54 53 53 52 51 53 52 52
47 48 61 64 63 62 57 52 57 42 39 33 44 54 60 64 62 58 58 62 61 60 61 62 63 62 60 59 59 59 60 59 58 56 54 53 53 53 52 52 52 53 51 54
50 44 56 60 64 65 60 62 46 43 34 33 43 45 47 56 58 58 60 59 60 61 61 61 61 61 61 60 60 59 59 59 56 54 53 53 52 52 52 52 55 54 52 52
54 50 49 56 55 54 55 52 53 52 43 34 30 40 56 57 60 58 60 62 62 62 62 62 61 62 62 61 60 59 58 56 54 53 52 52 52 52 54 55 55 53 53 52
55 49 40 50 63 65 61 55 52 35 41 40 33 39 59 60 62 62 61 65 63 64 64 63 63 62 62 61 61 59 57 55 54 53 52 51 52 54 55 55 54 53 51 50
57 49 38 45 54 58 55 58 58 54 44 40 30 38 61 63 59 62 61 63 63 63 63 64 64 63 62 62 61 60 56 56 56 54 51 51 54 55 54 54 55 52 49 50
58 54 46 37 46 55 49 55 57 52 34 38 40 47 56 58 60 61 63 62 61 63 65 64 65 64 64 63 62 61 57 57 55 54 51 53 53 54 55 54 51 51 51 48
56 47 50 53 56 58 58 55 55 52 50 41 46 50 56 56 59 59 61 62 63 64 64 63 63 63 63 62 60 60 58 57 57 55 55 53 54 55 53 51 51 50 48 48
57 45 47 45 55 54 49 54 54 54 54 52 53 51 59 60 61 60 61 63 62 62 63 63 64 61 60 59 58 58 56 56 56 54 53 54 53 53 50 50 50 49 47 47
51 46 39 36 45 46 35 47 52 53 55 53 46 51 56 56 59 58 59 61 60 61 62 63 62 63 60 59 57 55 55 53 52 53 53 53 52 51 49 50 49 47 46 46
48 46 37 32 33 26 47 58 59 55 55 55 55 55 56 56 57 58 58 57 57 59 60 60 60 60 59 55 53 54 54 52 52 52 52 52 50 48 47 48 45 44 44 43
54 42 34 31 30 41 50 54 52 50 48 55 53 55 56 57 55 53 59 59 59 59 60 60 59 59 54 53 55 54 52 53 52 49 48 48 47 47 46 44 42 42 42 42
52 47 36 31 27 24 43 55 59 57 37 54 55 53 53 54 39 46 58 60 59 59 55 51 54 55 53 52 52 48 46 45 44 44 45 45 45 44 42 41 41 42 43 44
33 34 30 26 25 35 54 58 58 37 39 54 55 53 52 48 49 55 58 59 58 54 50 48 46 45 45 46 46 43 43 42 44 45 45 44 43 43 43 42 42 42 41 38
36 32 28 32 30 30 57 55 45 48 52 55 54 53 53 53 55 56 58 57 54 48 46 44 41 41 43 43 43 41 40 43 43 43 43 43 43 44 44 41 42 41 37 35
37 42 37 39 37 50 55 55 56 56 53 52 52 54 54 52 53 54 51 50 47 44 41 41 40 41 42 43 43 39 41 43 42 42 41 41 42 42 43 39 37 36 35 31
50 55 44 46 52 53 55 55 56 55 53 54 52 51 52 50 48 47 45 43 40 39 39 42 41 40 39 42 43 43 42 42 40 37 38 38 37 38 38 38 36 34 29 28
48 51 49 47 52 51 52 52 53 52 52 50 49 48 48 46 45 42 39 39 40 40 41 41 40 39 40 42 41 41 41 40 38 38 38 37 36 35 35 36 35 32 31 30
51 49 39 36 50 48 47 49 50 47 46 48 46 43 44 43 41 40 38 39 40 39 39 39 38 39 41 42 40 41 41 39 36 35 34 29 29 30 32 32 32 36 35 36

GFSCGP_sfc_temp_036.txt.gz
Temp
58 51 47 51 55 56 55 53 51 55 63 60 59 58 57 60 61 59 58 59 63 64 68 69 69 68 68 66 62 63 60 59 60 59 57 55 54 54 55 56 58 58 58 57
53 48 57 60 61 58 57 52 51 57 62 60 56 56 56 60 62 63 61 61 62 63 65 67 67 67 65 64 63 62 62 60 60 61 58 58 56 56 56 56 57 57 56 56
50 55 62 60 60 57 54 52 51 53 58 56 56 50 52 60 62 65 65 67 67 65 65 63 65 64 64 61 61 62 61 61 61 60 60 59 59 55 54 53 54 55 57 57
53 60 60 56 56 57 50 60 59 56 51 45 51 40 49 56 60 62 64 64 65 65 67 64 64 62 61 60 62 62 62 61 62 61 60 60 60 55 54 53 53 54 56 55
54 55 55 55 57 61 55 60 57 59 49 46 48 43 48 52 56 58 61 61 63 65 66 62 63 62 62 60 60 60 62 60 63 62 60 59 55 55 53 52 53 53 52 52
55 60 60 60 62 61 61 57 55 51 48 39 47 44 44 49 58 59 65 62 62 61 61 60 62 61 61 60 60 60 60 61 61 61 59 58 56 53 54 51 51 50 49 49
54 57 60 62 58 61 59 49 36 35 32 34 51 45 48 57 61 60 63 58 59 63 58 58 59 60 60 59 59 60 60 60 60 59 57 56 55 54 55 53 49 49 49 50
45 43 57 60 58 53 52 50 36 32 30 35 49 42 49 61 65 64 61 59 58 58 60 59 59 59 60 59 59 60 60 58 57 55 54 53 56 56 52 53 54 52 51 50
44 48 58 60 60 58 54 47 53 40 35 31 41 50 57 59 58 57 56 58 56 56 57 58 59 59 59 58 59 58 57 56 55 53 52 55 54 53 53 53 53 52 50 52
51 43 54 59 62 60 56 59 46 41 33 31 40 42 44 53 57 54 54 56 56 56 56 57 58 58 58 58 57 56 57 57 54 53 52 52 52 53 53 53 52 52 52 51
53 49 47 54 52 53 52 49 49 47 39 33 29 39 53 55 57 55 55 57 57 57 58 58 59 60 60 59 57 56 58 56 53 53 51 51 52 53 53 53 53 52 52 51
54 47 39 50 58 59 56 52 50 34 39 37 31 38 56 56 58 57 58 60 58 61 60 60 60 60 59 59 59 57 58 57 55 54 52 51 51 51 53 53 52 52 53 52
53 45 36 43 51 54 52 55 53 48 40 38 29 37 57 57 57 59 57 58 60 60 59 60 59 59 60 61 60 59 57 57 54 53 51 50 52 54 53 52 52 53 50 48
56 49 43 36 45 50 47 51 51 47 33 37 37 44 54 55 56 58 58 57 57 60 61 60 59 60 61 61 61 59 54 54 53 53 52 54 53 53 52 50 52 50 49 46
54 46 48 50 52 52 51 52 51 48 47 40 45 46 53 54 53 54 57 58 58 57 58 58 58 57 58 57 59 59 53 53 54 53 51 50 49 52 51 49 49 47 47 47
53 44 44 42 49 49 46 50 49 50 50 48 49 47 52 54 54 55 56 58 56 56 58 58 58 58 57 56 54 54 52 51 51 51 51 51 51 48 48 47 47 45 47 47
49 44 36 35 42 42 34 44 50 51 51 51 43 49 51 52 54 53 53 54 54 55 56 56 56 56 56 55 54 51 51 51 50 51 51 51 51 49 47 47 47 45 44 43
45 42 34 31 32 25 45 54 53 49 49 50 51 50 51 52 50 52 53 53 54 55 55 55 54 54 53 51 49 50 51 50 51 51 50 49 47 46 45 43 43 42 42 42
51 39 33 30 29 39 47 52 50 46 44 50 49 51 52 52 51 51 55 54 53 51 49 49 49 49 49 49 50 50 48 46 46 45 45 45 45 44 43 42 40 41 40 40
47 42 36 29 27 24 41 51 56 53 36 52 51 49 50 49 38 45 53 51 47 46 46 45 46 46 45 45 46 44 42 41 40 41 42 43 43 42 40 40 40 39 39 40
32 32 30 24 25 33 47 54 54 38 38 51 51 50 50 45 46 51 48 46 46 44 43 43 42 41 42 43 43 40 40 40 43 43 43 42 42 42 41 39 39 38 37 36
37 31 26 31 26 30 52 52 45 46 48 51 50 50 48 48 49 49 47 44 42 40 41 42 40 40 42 44 43 41 40 43 44 43 42 41 40 41 41 37 36 36 34 32
37 40 35 38 36 48 51 50 51 51 49 48 48 49 50 47 45 45 42 40 39 39 38 42 42 41 42 43 43 40 39 41 41 41 40 38 38 38 38 35 33 31 31 27
46 49 42 43 46 47 48 50 50 50 47 47 48 47 47 43 42 40 39 39 38 39 41 42 41 39 39 41 41 39 40 40 38 37 36 36 35 35 34 34 33 31 27 26
45 49 45 41 44 47 47 47 47 46 46 45 45 44 43 41 40 39 38 38 39 39 40 41 39 39 39 39 38 39 39 38 37 36 36 34 33 32 32 32 32 31 31 30
48 46 39 37 48 44 43 45 47 45 43 43 41 40 41 40 38 37 35 36 36 38 39 39 39 38 37 38 38 39 39 37 35 34 33 29 28 29 30 30 32 35 34 34

GFSCGP_sfc_temp_039.txt.gz
Temp
57 51 46 50 52 54 51 49 46 50 60 57 56 54 57 58 57 55 55 57 59 60 64 65 65 65 64 61 60 60 59 58 60 58 56 54 54 54 54 55 57 57 56 56
52 47 55 58 56 56 53 51 50 57 60 57 53 53 54 56 59 59 57 57 60 62 62 63 64 64 63 61 61 59 60 58 60 60 56 56 54 54 54 55 55 56 55 55
48 53 59 58 54 53 51 49 49 52 56 52 52 50 52 57 59 60 60 61 62 62 61 62 63 62 63 61 60 60 60 59 60 58 58 55 54 53 52 52 52 53 55 55
51 57 57 55 52 54 47 56 53 51 48 43 49 39 48 53 57 58 61 58 60 62 64 64 63 62 62 61 62 62 60 59 60 60 58 56 54 54 52 52 52 53 54 53
51 53 53 52 55 58 52 56 54 53 49 44 45 41 45 49 51 57 59 59 60 62 64 63 64 63 63 61 60 60 60 60 61 60 60 57 54 53 52 51 52 51 50 51
54 57 55 56 60 59 59 54 51 48 46 37 44 42 42 48 55 56 62 62 62 62 59 62 64 61 60 58 59 59 59 60 61 60 58 57 55 53 51 50 49 48 47 47
51 53 57 58 53 56 54 47 35 34 32 34 47 42 46 56 57 58 58 59 61 60 56 57 57 58 59 58 58 59 59 59 59 59 57 55 54 53 54 53 51 47 46 46
43 41 54 58 54 51 48 48 35 31 30 35 46 39 48 57 59 59 59 59 56 57 60 57 58 59 59 58 59 59 59 60 58 57 56 54 53 53 52 51 50 51 50 50
42 45 54 57 57 58 50 46 51 38 34 30 38 46 55 58 55 53 53 55 53 53 55 57 58 59 58 59 60 59 59 58 55 55 52 51 51 50 51 52 52 51 51 51
50 43 51 55 57 57 54 56 42 39 33 30 37 39 42 52 55 53 52 53 53 53 54 55 57 57 59 58 59 58 58 57 54 52 52 52 52 52 53 53 51 51 51 51
50 48 46 52 50 50 49 46 46 45 37 32 28 37 49 53 55 55 52 54 53 53 55 56 57 58 58 58 57 57 55 54 53 52 51 51 52 53 53 53 53 52 52 51
52 46 39 47 54 57 52 49 47 34 37 34 30 37 53 54 55 55 57 56 55 55 57 57 58 57 57 57 57 57 56 55 55 52 50 49 50 51 52 53 53 51 49 48
52 43 35 42 48 51 49 50 49 45 38 35 29 37 54 53 54 56 55 56 56 56 55 55 55 56 57 57 57 57 57 55 52 51 50 50 50 53 53 51 51 48 48 49
53 45 43 38 44 49 44 49 49 46 32 36 36 42 51 55 54 55 55 55 54 55 55 54 54 55 57 58 57 57 53 51 51 51 50 49 49 50 50 50 49 48 47 47
53 45 45 46 49 49 49 49 48 45 44 39 44 42 50 51 51 52 55 54 54 54 55 55 54 53 54 54 54 54 51 50 51 51 50 48 49 51 50 48 45 46 46 46
51 42 44 40 46 47 45 49 48 48 46 46 45 45 50 50 49 51 52 52 52 53 54 54 55 56 55 55 53 52 49 49 50 49 48 49 50 49 47 46 44 43 44 45
47 42 36 35 39 40 34 42 47 48 49 49 42 48 49 48 50 49 49 51 51 52 53 53 53 54 53 51 51 48 47 48 48 48 49 49 48 47 45 46 45 44 43 42
43 39 33 30 32 25 45 49 50 47 46 48 48 48 49 48 47 49 50 50 51 51 50 49 48 48 46 46 46 47 48 47 48 48 48 48 46 44 44 44 43 41 40 39
48 38 31 30 30 38 45 47 47 45 42 48 46 47 48 49 48 48 52 49 47 45 44 43 43 44 44 45 46 45 44 43 43 42 43 44 44 43 43 42 41 40 39 37
44 41 36 28 27 25 41 48 52 50 35 49 48 47 47 46 38 43 48 45 42 42 42 41 42 42 42 42 43 40 39 39 39 42 43 43 42 41 40 40 39 37 37 37
32 32 30 23 25 33 45 51 52 38 39 48 49 48 46 44 44 44 43 40 41 40 40 41 40 39 39 41 41 39 40 39 42 43 43 43 42 41 41 39 37 36 35 34
37 31 26 27 24 30 49 49 44 45 45 48 48 48 45 43 42 42 40 39 39 38 39 40 39 39 40 40 41 39 39 42 43 42 42 41 41 41 41 36 35 34 32 31
38 40 35 38 37 46 46 49 48 48 48 47 48 47 46 42 41 40 38 38 38 37 37 40 39 39 41 42 42 39 39 41 41 41 38 37 37 36 36 33 32 31 30 28
43 46 40 41 43 43 44 45 46 47 46 46 47 46 44 40 39 37 38 37 37 37 37 38 39 39 38 40 40 40 40 39 37 35 34 34 33 33 33 32 32 30 28 26
43 46 41 38 41 44 44 43 43 43 43 42 42 42 40 39 38 38 36 36 36 37 38 40 39 38 38 40 39 37 37 37 35 35 34 33 32 32 32 31 31 31 31 31
45 44 39 36 45 44 42 43 44 42 40 41 40 38 39 39 37 37 35 36 36 36 39 39 38 37 35 34 33 33 34 33 32 32 32 29 29 29 30 30 31 35 33 34

GFSCGP_sfc_temp_042.txt.gz
Temp
53 49 44 48 50 50 50 48 45 48 55 54 52 51 52 55 56 53 53 54 55 57 61 62 61 61 59 59 59 60 58 57 57 56 55 54 54 56 57 57 56 56 55 54
51 45 52 54 54 51 52 48 46 52 55 53 47 48 51 54 56 57 56 56 56 57 58 60 60 60 60 60 60 59 59 57 58 60 56 56 54 54 58 57 55 55 54 54
47 52 57 54 51 51 48 46 46 50 52 50 48 45 48 54 56 58 59 60 59 59 57 59 60 60 61 59 59 59 59 58 59 59 56 53 53 53 54 51 51 53 54 53
49 55 54 51 50 52 45 53 51 49 47 41 47 38 44 48 54 55 58 56 58 59 60 60 60 59 60 59 58 59 59 58 59 58 59 55 55 51 52 53 54 52 53 52
49 50 50 49 52 55 51 54 51 49 45 43 43 41 45 46 47 54 58 59 60 61 62 60 61 62 61 58 57 57 58 58 59 59 59 56 53 52 51 50 51 50 50 50
51 54 54 54 56 55 56 52 49 46 43 36 42 40 42 45 52 53 59 61 62 60 60 62 62 60 58 56 57 57 58 58 59 59 57 56 53 51 51 49 49 48 47 46
48 51 54 56 51 53 51 45 34 34 32 34 44 40 44 53 54 56 56 59 61 62 56 57 57 57 56 57 58 58 58 58 59 58 58 55 54 55 54 52 50 48 45 44
42 39 51 55 54 49 47 46 34 31 29 35 43 38 47 53 55 56 56 56 57 56 56 57 59 58 57 57 58 58 59 59 58 57 58 56 57 56 55 54 51 50 48 47
40 43 51 54 54 53 48 43 48 36 34 29 37 44 52 51 52 53 52 52 51 51 54 57 56 57 56 57 58 59 59 59 58 58 58 58 57 55 54 52 51 48 48 50
49 41 49 53 54 54 50 53 41 38 32 30 35 36 40 50 51 50 52 51 50 50 52 54 56 56 57 58 58 58 59 59 59 56 56 55 52 53 52 51 50 49 50 51
49 47 44 49 48 48 46 44 43 43 36 32 28 36 47 50 52 50 52 52 52 51 52 54 56 57 58 58 58 57 57 58 54 54 51 50 50 50 51 51 51 51 50 49
50 45 38 46 51 52 49 48 45 34 36 33 30 35 51 51 52 52 55 54 52 53 53 53 55 55 57 57 57 57 57 56 54 51 49 50 50 51 50 49 50 48 46 47
50 41 35 41 45 48 46 48 46 42 36 34 28 36 52 51 53 54 54 54 54 53 53 54 54 54 56 56 57 57 56 54 50 49 48 48 48 50 48 47 48 49 48 47
53 43 41 38 42 46 41 46 45 43 32 35 35 41 49 52 51 54 54 50 53 53 54 52 52 53 54 54 54 54 52 51 49 49 49 48 47 47 48 49 49 48 48 46
51 42 43 44 46 47 46 46 45 43 43 39 43 41 48 49 51 51 51 49 50 50 50 52 52 52 52 53 53 53 50 48 48 48 48 45 46 47 47 47 45 45 44 44
48 41 41 38 44 44 42 46 44 44 43 43 43 43 50 47 46 48 48 49 49 50 51 52 52 53 52 52 51 51 49 47 48 47 45 46 47 47 46 43 43 43 44 44
45 40 36 36 38 40 34 41 45 45 45 47 39 47 48 45 47 45 47 49 48 48 48 47 47 46 47 47 49 47 45 45 45 45 46 47 47 45 45 45 44 42 42 42
41 39 34 29 31 26 44 46 47 45 46 47 46 46 47 47 46 47 47 47 46 45 44 43 42 43 43 43 43 44 45 44 45 44 45 46 45 44 44 44 42 41 41 40
44 37 32 30 29 37 42 45 45 44 44 47 44 44 45 46 46 45 45 43 41 40 40 39 40 40 40 40 42 41 41 41 41 40 41 44 44 43 42 41 41 41 39 38
43 39 36 27 27 25 40 47 50 49 37 47 46 44 45 45 38 41 42 41 39 38 38 38 38 39 38 38 40 39 38 39 39 40 42 43 43 42 41 40 40 39 38 37
32 31 30 22 25 33 44 48 50 37 39 47 48 45 44 43 42 40 39 38 38 38 38 39 38 37 37 38 40 38 39 38 40 43 43 43 42 42 41 40 37 36 35 33
37 32 27 26 24 30 48 47 43 45 43 46 46 46 44 39 39 38 38 37 38 36 37 38 37 37 38 39 39 37 36 39 42 42 41 41 40 40 39 35 34 33 31 30
38 41 36 38 38 46 46 47 48 47 46 46 47 45 44 39 38 38 36 36 36 36 35 37 37 37 38 38 38 36 38 39 39 37 37 35 35 34 33 32 31 30 29 26
41 44 39 41 44 44 44 44 45 45 45 46 45 45 43 38 38 36 36 35 35 34 34 36 37 36 35 37 39 39 39 39 36 33 33 32 32 32 32 31 31 29 27 27
42 44 40 39 41 41 44 43 42 41 42 42 41 41 39 38 36 36 35 35 35 35 36 37 36 37 36 36 34 34 32 33 32 32 32 31 30 30 30 30 29 30 30 30
44 42 39 40 46 46 45 41 42 41 39 40 39 37 38 38 36 36 34 34 34 34 35 36 36 34 32 32 30 31 32 31 31 31 30 28 28 27 29 29 30 34 33 34

GFSCGP_sfc_temp_045.txt.gz
Temp
61 59 54 57 56 58 57 55 55 58 61 61 59 60 61 59 58 59 61 61 62 63 68 68 66 68 67 68 67 67 66 66 66 65 63 64 64 64 65 66 65 65 66 65
58 53 59 59 57 57 56 54 54 58 61 59 58 59 60 59 60 62 62 62 63 65 65 66 66 66 66 66 67 67 67 67 66 68 66 67 67 66 68 62 59 61 64 64
53 58 59 58 57 55 56 54 54 55 58 58 56 56 56 58 60 62 63 65 65 65 65 65 65 65 66 66 66 67 68 68 67 68 67 65 65 64 64 61 61 62 63 62
56 59 57 57 56 57 51 59 57 56 55 51 56 49 53 56 57 60 63 63 65 66 66 68 66 66 66 66 67 67 67 67 67 66 66 64 66 64 64 62 63 61 61 60
55 56 55 54 56 58 56 58 57 56 54 51 51 51 56 55 55 60 63 64 66 67 68 68 68 68 68 68 65 66 66 66 66 65 67 65 66 66 64 62 61 60 58 59
57 61 60 59 60 59 60 57 54 52 52 45 49 50 54 56 59 61 65 66 67 67 65 68 71 70 69 66 65 64 65 65 66 65 64 64 63 61 60 59 58 57 60 59
54 56 61 61 57 59 58 54 45 41 41 41 49 47 55 61 62 63 64 66 68 68 67 67 68 66 67 64 64 65 65 64 64 63 63 63 63 62 62 60 54 53 57 56
48 46 56 60 59 56 53 54 44 37 37 43 48 45 58 63 64 63 61 62 64 66 66 67 68 68 66 65 65 64 64 65 64 62 63 64 63 62 62 59 56 55 56 57
45 47 58 58 61 61 54 50 54 43 39 40 47 52 61 61 63 63 63 62 62 62 65 66 67 67 66 65 64 63 64 66 64 63 63 63 63 62 58 56 57 55 55 53
53 47 55 57 61 59 57 58 48 45 37 35 43 45 52 58 60 61 62 63 63 61 61 62 64 65 66 66 65 65 66 66 66 65 64 63 63 62 60 58 57 55 54 54
54 53 50 55 54 54 52 51 48 50 45 39 37 46 56 58 61 61 62 62 62 62 62 62 64 65 66 66 65 65 66 66 66 65 64 63 62 61 60 57 56 54 54 54
56 50 44 51 56 58 56 54 52 44 42 41 39 45 59 59 61 61 62 63 63 63 63 63 63 64 64 64 65 65 65 65 66 64 61 60 59 57 56 55 55 54 53 52
54 47 43 47 52 55 53 53 51 47 44 41 39 46 59 59 60 62 62 63 63 63 63 62 63 63 63 63 63 63 63 64 64 60 59 59 58 56 55 54 53 52 51 52
56 48 47 43 48 52 47 50 51 51 42 44 44 50 57 61 60 64 63 62 63 62 61 61 61 62 62 62 63 62 61 60 57 57 56 55 55 55 54 53 54 53 53 50
56 47 47 49 51 52 52 51 49 50 50 46 51 48 57 60 60 61 59 58 58 58 59 59 61 61 62 62 62 62 61 58 58 56 55 53 53 54 54 53 50 50 47 47
52 47 46 46 48 50 49 51 50 50 50 50 50 50 59 59 58 56 55 56 55 55 55 55 56 57 57 58 60 58 56 55 55 54 53 53 53 50 46 45 44 44 44 46
48 44 43 41 44 46 39 46 50 51 52 53 47 56 56 55 55 54 54 55 53 52 52 51 50 50 51 52 54 53 53 53 53 52 52 50 48 46 45 46 45 45 44 44
46 44 41 37 37 33 51 53 54 52 52 54 53 55 55 56 54 54 55 54 51 50 48 48 49 48 49 50 50 51 52 51 51 51 50 49 46 45 46 44 43 43 42 42
50 42 36 36 38 44 49 51 50 49 54 55 55 54 53 52 53 49 47 49 48 46 45 45 47 47 47 48 49 49 48 49 48 47 48 48 48 46 45 43 42 42 42 43
44 45 44 34 35 34 47 54 55 56 44 55 54 51 50 52 48 52 46 45 44 45 46 45 45 46 46 46 48 47 46 46 45 46 47 48 47 45 45 43 41 41 44 44
38 37 38 33 36 41 50 54 55 44 49 53 53 52 52 52 52 49 45 43 44 44 43 45 45 44 45 47 47 45 46 45 47 48 48 46 43 42 42 41 43 45 44 43
41 37 35 35 34 37 52 51 48 54 53 53 53 53 51 45 43 43 43 42 42 43 43 45 43 43 45 47 47 45 43 46 47 45 42 42 43 43 43 43 42 42 41 40
41 45 43 45 45 53 53 57 56 54 55 52 53 52 48 43 43 42 41 41 42 43 43 44 43 42 44 45 46 43 43 45 44 43 41 41 41 41 41 41 40 41 41 39
45 47 45 47 51 51 52 53 52 54 54 53 55 53 49 45 42 41 41 40 41 42 42 43 42 40 39 41 41 40 41 41 41 40 39 39 39 39 40 40 40 39 37 36
47 47 44 45 48 47 51 50 52 49 48 48 49 49 47 43 41 41 40 40 41 41 41 42 40 38 37 37 36 37 39 41 39 38 37 37 36 36 37 37 36 35 36 34
48 46 43 44 53 53 56 55 48 46 46 47 45 43 44 44 41 41 40 40 40 39 40 39 37 35 34 34 34 36 37 38 37 35 35 32 33 33 33 33 33 32 30 31

GFSCGP_sfc_temp_048.txt.gz
Temp
71 66 63 66 68 68 66 64 64 68 70 67 68 70 73 72 70 69 72 73 73 73 76 74 74 76 77 76 74 73 72 73 71 75 74 75 74 76 76 78 76 75 75 73
65 62 68 68 66 64 64 63 63 67 67 66 69 69 73 73 71 72 74 74 75 76 75 74 74 75 75 75 75 75 75 75 75 77 77 77 77 77 78 77 75 74 74 74
64 66 67 66 65 62 63 63 62 62 66 68 66 66 67 70 73 73 75 77 77 77 75 74 74 74 75 75 75 76 76 77 76 76 77 76 77 76 75 74 70 68 64 69
66 71 65 65 64 66 59 68 65 63 62 57 66 55 66 69 68 69 71 73 74 76 78 78 76 75 75 75 76 77 77 77 77 76 76 74 74 73 75 75 75 73 71 69
63 64 63 62 64 67 62 67 65 64 63 61 62 57 64 66 66 70 73 74 75 78 79 79 79 78 78 77 76 76 77 77 77 77 76 75 74 77 78 75 72 70 69 69
68 70 69 68 67 68 68 64 64 63 62 50 60 59 62 67 69 74 77 78 77 78 79 81 82 82 80 80 77 76 76 76 77 75 74 74 73 74 75 71 70 70 67 66
64 65 70 69 64 67 66 62 50 47 48 47 59 57 63 71 73 73 74 78 80 80 79 79 81 80 79 78 76 75 76 76 76 75 74 73 72 72 71 71 70 69 65 59
56 52 64 70 66 63 63 62 51 40 43 50 56 52 65 73 75 74 74 75 75 77 80 81 80 81 80 78 76 76 73 73 76 73 73 74 71 69 71 72 70 65 60 58
56 57 67 67 69 69 61 56 65 53 49 48 57 61 70 72 72 74 75 73 75 75 79 80 82 82 80 79 76 75 76 77 76 70 71 69 67 67 69 70 66 59 58 59
62 54 63 64 68 66 64 68 53 56 42 41 52 55 60 65 68 71 74 75 75 74 74 76 78 79 81 80 78 76 76 76 76 74 71 70 68 68 69 68 61 60 60 60
67 62 56 62 60 61 60 58 59 60 55 46 44 54 69 69 71 71 73 75 76 75 74 74 75 77 77 78 77 75 75 76 76 75 74 71 69 68 68 65 63 64 62 60
67 61 54 58 65 67 68 63 62 51 50 53 51 53 73 73 72 72 73 74 77 76 75 74 75 75 75 75 76 75 76 77 77 76 74 72 70 67 65 63 62 61 57 56
64 58 50 53 58 63 61 64 64 61 56 52 45 54 70 71 71 73 73 75 75 74 76 75 74 75 75 74 75 75 74 74 75 75 72 68 64 60 58 57 55 54 53 52
62 62 56 49 56 63 56 60 63 60 51 53 54 58 66 71 72 75 74 75 75 74 74 75 74 74 73 73 73 73 70 71 69 67 65 61 59 57 56 55 54 52 53 51
64 56 59 62 64 64 62 62 62 59 60 54 58 61 66 71 73 75 73 69 69 70 71 71 73 73 73 72 71 71 69 67 67 64 61 58 57 57 58 59 59 57 54 52
64 56 59 55 62 61 58 62 64 62 63 63 62 62 72 75 74 71 69 68 67 66 66 68 69 69 68 68 69 66 66 64 66 64 61 60 60 60 57 54 53 52 49 50
57 57 53 49 57 56 44 55 61 63 64 63 58 66 73 70 69 71 68 68 65 64 64 64 64 64 64 64 65 64 63 64 62 61 59 57 56 54 53 54 53 51 51 48
56 55 54 48 42 35 60 65 67 64 66 69 67 70 71 71 71 67 69 66 63 62 61 61 62 61 62 63 63 62 63 62 60 59 57 56 55 54 54 53 52 49 48 46
60 56 48 42 45 55 55 58 60 59 62 71 68 71 72 66 63 58 64 66 63 61 60 60 61 60 61 61 61 61 60 59 58 57 56 56 55 54 54 50 48 48 44 43
56 56 52 44 42 37 58 67 69 66 54 71 70 67 67 63 55 64 59 58 57 58 59 58 58 59 59 59 60 58 57 56 55 55 55 56 55 53 51 47 43 42 46 53
44 45 43 46 44 53 64 65 67 51 56 70 71 69 65 60 67 64 59 57 58 57 56 57 58 57 57 58 58 56 55 53 55 55 54 52 50 47 44 45 50 52 52 50
46 44 41 48 40 40 63 61 58 67 65 69 67 68 64 64 59 57 56 55 54 54 54 56 55 54 56 58 57 55 53 54 54 52 48 46 48 50 51 50 50 50 50 47
47 55 53 53 54 66 64 69 70 71 71 66 68 67 66 57 56 55 53 53 54 55 55 56 54 53 54 56 56 52 51 52 51 50 49 49 49 49 49 49 48 48 47 45
55 56 51 52 64 64 65 69 67 68 68 68 69 67 62 58 56 54 53 53 53 55 54 54 51 49 48 50 51 50 50 51 49 47 47 47 46 47 47 48 47 46 42 40
60 54 55 57 63 58 62 66 69 64 62 62 66 65 61 59 55 54 52 52 53 53 52 52 49 47 46 47 46 48 49 49 47 46 45 44 44 44 45 44 42 39 39 34
58 57 52 53 65 61 69 71 68 63 60 62 62 60 61 59 55 54 52 53 51 50 50 48 47 45 44 43 43 45 47 47 45 42 41 38 40 40 42 42 42 30 30 30

GFSCGP_sfc_temp_051.txt.gz
Temp
75 69 65 71 73 72 70 68 68 71 75 71 70 72 69 77 77 75 75 76 76 76 79 76 75 75 75 77 75 74 73 73 73 74 73 75 73 76 78 78 78 77 77 76
71 64 74 74 72 69 68 66 66 70 74 71 68 70 73 77 76 77 77 77 77 78 77 75 74 76 76 76 76 75 76 76 74 76 77 78 78 78 80 80 79 79 76 77
66 71 74 70 69 66 67 65 64 65 66 74 70 66 73 77 79 79 80 81 81 80 78 76 74 75 76 76 76 77 77 77 74 76 80 79 79 79 78 79 78 77 76 77
69 76 70 68 67 70 62 72 68 67 65 58 70 54 64 74 74 76 78 79 80 81 81 79 77 76 76 77 78 78 79 79 80 79 79 76 76 75 77 77 79 76 73 71
66 69 67 65 68 72 66 71 69 68 65 63 60 60 62 73 70 74 77 79 81 82 82 81 79 79 80 79 79 79 79 80 81 80 78 78 75 77 79 78 74 74 73 72
71 79 74 72 74 73 74 67 67 67 64 52 62 60 60 66 72 76 79 81 81 82 83 84 85 83 82 82 79 79 79 80 81 80 78 77 76 76 77 78 73 73 74 73
67 69 74 74 67 71 70 63 50 48 50 48 64 62 64 63 77 77 78 82 83 83 83 84 84 84 82 81 80 80 79 79 80 79 79 77 77 76 76 77 74 72 70 70
57 55 68 73 69 65 65 64 52 40 44 50 63 55 65 76 79 80 81 82 84 85 84 84 85 85 84 83 81 79 80 79 80 73 73 77 77 78 76 74 75 73 71 70
59 60 75 74 74 72 65 59 69 56 57 50 59 65 71 77 76 78 79 80 81 83 84 85 86 86 85 83 82 80 80 80 80 71 65 67 73 75 73 72 73 72 70 63
67 57 69 70 74 73 69 71 57 58 43 41 56 59 61 68 71 75 77 78 80 81 82 84 86 86 86 86 83 81 80 79 80 79 74 74 75 72 72 71 69 68 65 63
71 64 62 67 63 63 64 61 64 63 57 44 46 56 72 71 74 74 76 79 80 80 80 80 82 85 87 87 85 82 81 81 81 81 78 74 70 70 67 66 65 63 64 64
70 64 56 60 71 74 70 65 64 53 52 57 54 55 76 76 77 77 77 79 81 82 81 80 81 80 81 82 83 81 80 80 81 81 79 73 68 67 65 63 62 61 61 58
68 61 51 56 63 68 64 67 68 66 63 54 45 54 76 77 76 78 77 80 80 81 81 81 80 79 79 79 79 79 79 80 81 81 79 71 64 63 60 57 56 55 54 53
62 63 57 51 58 64 59 63 67 64 53 54 56 61 68 72 73 77 79 80 81 80 81 82 81 79 79 78 78 78 77 77 77 77 75 65 61 60 58 56 55 53 52 51
64 57 61 63 66 67 65 64 65 62 63 55 60 62 69 72 76 78 80 80 79 79 80 80 80 79 79 77 77 76 70 69 68 64 61 58 59 60 59 57 56 55 53 52
67 57 60 57 65 65 61 66 66 67 66 65 66 65 76 78 79 78 77 77 76 77 78 79 79 79 77 75 75 71 70 70 70 67 64 64 64 64 61 59 58 58 56 56
58 58 56 49 61 61 51 61 64 66 69 67 60 68 76 75 76 76 77 77 76 75 74 74 74 73 73 72 70 68 68 69 67 65 63 62 61 59 58 58 58 57 55 55
57 58 56 48 45 38 59 71 70 66 68 72 71 73 76 76 79 79 79 77 74 72 71 70 70 69 70 71 69 68 69 66 64 62 61 60 59 58 58 58 55 54 53 53
63 57 49 44 46 55 62 65 65 64 64 74 72 74 77 78 74 71 75 76 72 70 70 70 70 69 69 68 68 67 66 65 63 61 60 60 59 58 57 55 53 52 50 46
61 60 50 48 43 39 57 69 75 74 56 74 75 74 72 73 59 69 71 72 70 69 69 67 67 68 67 67 67 65 63 62 60 60 60 60 59 56 51 49 47 46 51 54
47 49 43 46 45 54 67 72 76 53 56 75 76 75 73 69 71 72 71 67 67 67 66 66 66 65 65 66 65 62 61 59 60 60 58 55 53 52 50 48 52 54 54 53
45 45 42 47 44 41 68 68 60 68 74 75 75 76 72 73 68 66 65 65 65 64 63 65 63 62 63 65 63 60 58 59 58 56 54 52 52 53 55 54 53 53 52 49
47 53 50 54 55 67 67 69 74 78 76 75 75 76 74 69 66 65 63 63 63 63 64 64 62 60 62 63 62 58 57 57 55 54 53 53 53 53 54 52 51 52 50 46
60 64 57 56 63 67 70 71 75 76 75 77 77 76 73 67 66 64 63 62 61 63 63 63 60 58 57 59 59 57 56 56 54 52 51 52 51 50 51 52 50 48 44 42
61 63 58 58 63 68 71 70 70 74 74 74 73 74 72 68 65 63 61 61 63 63 61 60 58 55 54 55 54 55 55 55 52 51 50 49 48 48 48 47 44 41 36 34
63 59 52 53 66 63 66 72 72 73 72 70 70 70 70 68 64 63 61 61 62 60 58 57 55 53 51 51 52 53 54 53 50 47 46 43 43 43 46 45 40 31 32 31

GFSCGP_sfc_temp_054.txt.gz
Temp
72 64 60 66 69 70 69 66 65 68 73 70 67 68 63 66 75 73 73 72 72 71 72 71 70 69 68 68 67 66 66 66 65 66 66 66 65 68 69 71 72 70 70 69
67 60 70 74 73 69 67 64 64 71 73 70 70 68 65 69 64 74 73 73 72 74 72 70 69 69 68 66 67 67 68 67 68 68 68 68 68 69 71 72 70 70 69 70
62 68 74 72 69 66 66 63 64 63 66 71 69 65 70 69 69 76 76 77 76 75 71 70 69 68 69 68 68 69 69 69 69 69 71 72 71 70 70 71 71 71 70 70
67 74 71 68 66 68 60 71 69 66 63 55 67 52 66 71 72 74 75 76 76 76 75 72 71 70 70 71 72 72 72 72 71 72 71 70 70 68 69 70 71 71 69 68
64 68 67 64 66 71 65 71 68 67 63 61 62 55 62 70 68 71 74 76 77 78 76 73 72 72 73 73 72 72 73 74 74 72 72 69 69 69 70 69 68 70 68 67
69 78 73 70 73 73 74 68 67 66 62 49 60 57 56 63 67 71 76 77 78 79 78 77 76 75 74 74 73 72 73 74 75 73 72 71 68 69 68 68 68 67 67 66
65 67 74 75 67 72 69 62 49 45 46 45 62 58 62 67 70 75 73 77 78 79 78 78 76 75 75 73 72 73 73 74 75 74 73 71 70 69 69 68 69 67 66 65
56 52 67 73 68 64 63 61 50 38 39 46 56 52 61 72 75 79 80 79 81 79 79 79 80 78 77 75 74 74 74 74 76 74 73 70 71 69 66 67 69 67 67 66
55 56 72 72 73 71 63 56 66 56 53 46 52 58 67 73 75 77 78 79 78 79 80 80 81 80 79 77 75 74 75 75 76 73 70 69 65 64 63 65 67 65 66 64
63 54 68 71 74 72 67 70 54 57 41 39 52 56 57 66 70 74 75 76 78 80 79 79 82 81 81 79 77 76 76 77 76 73 70 68 66 64 64 63 66 65 61 59
67 60 61 69 64 62 63 60 61 61 56 43 42 51 65 67 73 72 75 77 77 78 78 78 80 82 83 81 79 77 77 77 74 69 68 67 64 66 67 66 64 64 61 60
67 61 53 60 70 72 69 63 62 50 50 54 47 50 73 72 75 75 76 78 78 79 78 78 78 79 79 80 80 78 77 76 72 70 68 69 69 67 64 62 60 60 59 59
65 57 49 53 61 67 62 65 65 63 60 51 40 49 74 75 75 77 75 77 78 78 78 78 77 76 77 78 78 77 76 76 73 69 66 66 63 60 57 56 55 54 53 52
63 60 55 47 51 61 58 63 64 61 49 51 51 57 65 71 72 75 75 77 78 77 79 78 76 76 76 76 76 76 74 74 69 63 63 60 58 56 55 53 52 51 50 49
63 54 58 61 63 64 62 62 63 60 61 50 54 60 66 71 70 71 71 76 77 77 78 78 76 76 76 74 75 75 68 66 64 62 59 57 57 56 54 53 52 51 50 49
64 53 57 54 62 61 59 64 64 64 64 64 64 62 73 75 76 72 72 76 76 76 78 78 78 76 75 74 73 67 65 64 63 61 59 59 58 57 56 54 52 51 50 49
57 56 53 46 58 57 47 59 63 65 67 65 58 66 74 73 74 75 75 77 76 75 76 76 77 76 74 72 67 67 66 66 63 61 61 61 58 56 54 55 54 51 50 49
57 55 53 44 44 37 58 69 68 64 66 70 70 72 74 75 77 78 79 76 75 75 73 73 71 69 67 67 68 66 66 64 62 60 59 58 56 55 55 54 51 49 48 48
59 52 45 41 42 52 59 63 63 60 60 70 69 72 75 77 74 73 75 76 74 72 71 70 70 69 68 66 66 65 63 62 60 58 57 58 57 55 53 52 49 48 47 45
57 54 45 44 39 35 52 65 72 70 51 70 72 71 72 74 58 65 71 73 71 71 70 68 68 67 66 66 66 63 61 59 58 58 58 58 57 54 48 48 46 45 47 50
41 40 38 41 40 49 64 67 70 49 51 69 73 72 72 67 69 70 71 70 71 70 68 67 66 64 64 65 64 61 59 57 59 59 57 54 52 50 49 46 47 48 48 47
41 37 38 43 39 37 67 66 57 62 66 71 72 72 70 71 68 68 69 68 67 66 66 66 63 62 63 64 62 59 57 58 57 55 52 51 50 50 50 49 48 48 45 41
42 48 43 50 50 60 62 64 68 68 68 69 70 74 73 67 67 67 65 64 65 65 63 65 62 61 61 62 61 57 56 56 54 51 50 50 51 52 51 48 46 44 43 37
56 60 52 52 59 59 62 65 67 71 68 73 74 75 73 66 66 64 64 63 63 63 62 63 60 58 58 60 60 57 55 54 53 50 49 49 48 48 47 48 45 40 35 33
56 59 56 56 60 61 62 66 64 67 69 72 73 71 71 69 66 64 63 62 62 62 62 61 58 56 56 57 55 55 55 54 51 49 48 46 44 44 43 38 37 32 30 30
62 58 52 50 61 59 62 64 69 67 69 70 68 68 70 71 66 66 63 62 62 61 60 57 56 55 54 53 52 53 54 52 48 45 43 37 37 37 41 37 34 33 31 31

GFSCGP_sfc_temp_057.txt.gz
Temp
62 52 49 52 58 61 60 59 54 57 64 63 56 53 54 59 57 58 59 61 62 59 60 60 59 60 59 59 58 58 58 57 58 59 59 62 62 64 62 64 67 66 66 66
57 51 60 64 64 63 63 57 54 61 68 61 55 53 57 58 59 61 63 61 63 61 61 61 60 61 60 59 61 59 60 59 60 61 63 63 64 65 66 65 65 67 66 67
53 59 66 64 62 61 60 56 54 56 59 59 57 51 55 61 59 64 60 65 66 61 61 61 61 61 62 60 61 61 62 62 63 64 64 62 61 62 64 65 63 66 66 66
58 66 64 62 61 62 54 64 63 61 54 45 56 41 53 56 55 58 62 65 66 63 63 63 62 61 62 62 64 64 65 64 64 65 64 63 63 62 65 66 66 66 64 65
56 60 60 59 61 65 59 66 61 60 52 48 50 44 50 59 54 56 62 66 66 65 63 63 63 64 64 64 64 65 65 65 66 66 65 64 65 65 66 66 63 66 66 66
61 69 65 64 68 67 68 61 60 56 51 39 50 47 46 53 61 64 67 67 68 68 65 66 66 66 66 67 65 65 65 66 67 66 66 65 63 62 63 62 62 62 62 64
58 61 67 70 61 65 61 55 39 35 35 34 54 49 52 60 63 68 67 68 69 70 67 66 66 66 66 66 66 66 67 66 67 67 67 67 64 63 62 64 63 59 61 60
48 45 61 67 63 59 57 53 38 33 32 37 52 44 54 63 67 70 70 71 71 70 70 68 67 67 68 68 68 68 68 68 69 68 67 67 67 67 65 64 61 62 63 63
48 50 66 68 67 64 57 49 57 46 48 37 44 53 59 63 64 65 67 68 67 67 71 70 69 69 69 69 69 68 69 70 70 69 66 67 68 65 64 64 64 61 61 60
55 46 62 66 67 64 60 63 47 47 36 33 44 46 46 58 62 64 63 62 65 67 67 70 72 70 71 71 70 70 70 69 70 70 69 69 65 64 61 61 60 61 58 56
61 52 53 63 59 56 54 54 55 52 45 35 32 40 56 57 63 64 65 66 67 67 68 68 68 72 74 74 72 70 71 70 69 69 68 68 63 62 60 59 59 60 57 57
60 53 46 53 64 68 63 56 54 40 42 43 38 40 63 60 64 68 67 68 66 67 67 68 69 69 68 74 73 72 71 69 69 68 63 62 61 60 59 60 59 59 58 57
58 52 42 48 55 63 58 59 60 56 49 43 34 40 63 66 69 68 65 66 67 66 67 67 67 67 68 68 74 73 71 68 67 64 64 62 63 62 60 56 55 55 54 52
61 53 50 41 46 55 51 58 59 55 39 44 42 48 59 61 63 66 63 63 64 66 68 66 66 66 67 67 66 64 61 65 65 63 60 58 57 55 53 52 52 51 51 49
58 50 53 55 57 59 57 56 57 55 55 46 49 51 58 61 61 63 67 66 66 68 67 67 65 65 65 64 61 60 59 59 59 57 56 54 53 53 52 51 50 49 49 48
58 45 50 49 56 56 54 56 57 58 58 57 56 54 65 67 65 64 67 66 67 69 69 68 69 68 67 64 60 59 57 56 57 55 54 55 54 52 51 50 49 48 47 47
47 46 43 41 52 52 42 51 56 56 59 59 51 56 63 65 64 64 66 68 66 67 68 68 67 68 66 62 60 58 58 58 56 55 55 56 54 52 51 51 50 48 45 44
40 44 42 34 39 34 51 60 60 58 61 62 61 61 64 65 67 66 67 66 65 66 65 63 62 61 62 61 61 60 59 57 56 56 54 53 52 51 51 48 45 44 44 43
46 43 35 36 38 45 53 58 55 54 53 63 61 62 64 65 61 58 66 65 63 62 60 59 59 59 57 59 59 58 57 55 54 53 52 52 52 49 48 46 46 44 44 45
41 45 37 32 32 32 45 57 63 62 44 63 62 61 62 60 50 54 62 62 60 59 61 60 59 59 58 56 57 56 54 53 52 52 53 52 51 48 45 45 45 45 43 45
33 33 32 32 32 38 54 61 63 44 43 62 63 62 59 56 56 60 60 59 60 59 59 58 58 57 57 57 57 54 53 52 53 54 52 48 47 46 44 43 42 42 42 41
36 33 31 34 30 30 55 58 51 53 60 62 63 63 61 59 59 59 59 60 59 57 57 57 55 54 54 57 56 53 51 53 52 49 47 46 45 47 45 42 41 42 39 35
36 42 38 41 37 51 54 54 56 55 54 62 61 61 60 55 57 59 57 57 57 56 54 55 54 52 53 53 54 51 49 50 48 47 45 45 46 46 44 41 38 37 36 32
49 52 44 45 50 53 56 57 58 57 56 58 64 60 58 57 56 55 56 56 55 54 53 53 52 51 50 52 53 50 50 49 47 45 44 43 41 41 40 40 38 34 30 29
46 50 48 47 52 53 59 58 57 59 58 59 61 63 60 59 59 56 54 54 54 55 53 54 51 49 48 50 49 49 49 49 46 45 43 41 38 35 33 33 32 29 28 30
51 48 40 39 51 51 55 57 59 57 58 58 60 59 62 59 56 56 54 54 53 52 51 51 48 47 47 47 46 46 47 47 44 39 38 33 32 33 34 31 30 32 31 32

GFSCGP_sfc_temp_060.txt.gz
Temp
59 51 48 50 52 55 54 51 50 55 61 58 55 52 54 54 56 55 54 55 54 53 55 55 55 56 58 57 56 57 57 57 58 59 58 59 59 61 62 63 64 63 63 64
54 49 58 59 58 56 54 51 52 56 63 58 53 55 55 54 55 57 57 58 56 55 53 55 55 54 55 55 56 56 57 57 59 61 61 61 62 64 63 63 62 62 63 64
52 55 62 59 56 55 54 52 53 53 57 57 50 49 52 57 59 60 62 62 60 57 54 54 55 54 55 55 56 57 57 57 58 59 60 58 58 58 60 61 61 62 63 64
53 62 59 57 55 57 49 60 59 57 50 43 52 39 47 52 54 56 60 61 60 59 58 57 56 55 55 56 58 58 59 58 60 60 60 60 60 60 63 64 64 64 62 64
52 56 55 54 57 61 55 62 58 57 49 45 47 41 46 53 53 56 57 61 61 59 59 57 57 58 59 59 58 58 59 59 61 61 62 60 60 61 63 63 62 62 61 63
56 64 61 60 63 63 65 58 56 52 47 37 46 44 42 46 55 59 61 61 63 60 61 60 61 61 60 60 60 60 59 60 61 61 62 61 60 61 61 61 61 62 63 62
55 57 63 64 57 61 59 49 37 35 34 34 50 45 48 57 59 62 63 61 64 63 61 61 60 60 60 60 60 61 61 60 61 61 61 62 61 61 61 62 61 61 61 61
44 41 56 63 58 55 53 51 37 33 30 36 48 42 50 61 62 66 67 66 67 66 63 62 62 61 61 61 61 61 62 62 63 62 62 62 63 63 62 62 62 61 61 63
44 45 61 63 64 61 54 46 55 43 41 35 41 49 58 62 61 61 61 66 65 66 64 63 64 63 63 63 62 62 63 63 64 63 63 63 63 62 63 64 61 60 61 60
51 43 56 62 64 63 59 59 44 42 33 32 39 42 44 55 58 60 60 60 64 66 66 65 65 65 65 65 65 64 64 64 65 65 64 64 64 64 64 61 61 62 59 59
54 50 49 55 54 52 52 49 50 49 41 33 31 38 52 55 58 60 62 64 61 63 67 67 67 68 67 68 67 66 65 65 64 65 65 64 64 64 61 59 58 59 58 56
56 48 43 49 59 61 61 55 52 40 39 39 35 39 57 58 61 64 63 63 63 65 66 68 68 68 67 67 68 67 67 66 66 65 62 61 60 60 60 60 59 58 57 56
50 46 39 42 52 59 54 55 57 52 46 42 34 41 59 59 60 63 62 62 63 63 63 62 62 64 68 68 69 68 67 67 65 64 63 61 61 61 61 60 61 61 56 55
49 47 44 40 44 51 48 53 57 52 37 41 41 48 53 58 60 61 62 63 63 62 64 63 62 62 62 64 69 69 66 65 63 64 62 61 61 61 60 57 55 54 54 52
48 39 47 51 54 56 54 54 54 52 50 43 47 49 55 57 61 61 63 62 65 63 62 63 62 61 59 59 59 64 64 64 64 63 62 61 59 56 54 53 51 50 50 49
47 38 44 45 53 55 52 54 56 56 52 51 52 50 61 62 61 61 62 64 64 63 66 65 64 62 60 58 56 56 56 59 62 61 57 55 54 52 51 50 50 48 47 48
41 38 36 33 48 50 39 50 54 53 54 52 46 53 61 61 63 62 62 65 64 63 63 63 63 64 61 58 57 55 54 56 56 55 54 53 52 50 49 49 48 46 46 46
39 37 36 32 36 31 49 56 57 54 57 58 56 58 62 62 66 63 65 67 63 63 62 64 65 62 60 57 56 55 55 54 55 54 53 52 51 50 49 49 47 46 46 44
47 40 32 31 32 42 48 52 52 51 53 60 59 61 62 63 60 55 62 63 63 61 60 57 59 58 57 57 56 55 53 53 52 51 51 52 51 49 48 46 44 43 42 41
42 42 35 32 29 27 43 55 59 59 42 58 61 60 60 60 46 52 61 60 58 57 57 55 54 54 55 55 56 54 52 51 50 50 50 50 49 47 45 43 42 43 43 43
31 30 30 32 31 35 49 53 60 43 43 58 61 61 60 56 54 59 59 57 56 56 55 54 55 54 53 54 53 51 50 49 51 51 50 48 46 45 44 43 44 43 40 38
33 30 30 32 31 28 51 52 44 47 52 54 55 55 55 59 56 56 58 57 56 54 53 54 53 52 52 53 52 49 48 50 49 48 46 45 44 45 45 42 41 40 37 34
34 41 35 39 37 51 51 52 54 53 52 53 52 55 55 55 55 55 54 55 55 54 52 52 51 49 49 51 52 48 45 47 46 45 44 43 44 43 41 39 37 37 35 32
45 49 42 41 49 51 54 55 56 55 55 58 56 55 56 54 56 54 53 53 52 52 52 49 50 48 46 48 49 47 46 46 45 43 42 41 39 37 36 36 35 33 30 31
47 48 46 44 49 52 54 56 56 59 59 58 59 56 54 56 55 56 54 52 52 52 50 51 48 47 45 47 46 46 46 46 43 41 39 37 35 33 31 29 29 29 29 30
45 43 40 41 50 48 50 58 60 57 58 59 57 56 57 54 55 53 52 53 53 50 50 47 45 44 44 44 44 44 45 44 40 36 35 32 31 31 30 29 28 32 32 32

GFSCGP_sfc_temp_063.txt.gz
Temp
55 48 46 52 51 51 50 47 45 50 58 54 52 51 53 51 51 52 51 51 51 52 53 53 57 58 58 58 58 57 57 57 58 56 58 58 57 59 61 62 63 63 62 63
51 48 55 56 54 52 50 47 47 52 58 55 52 53 52 51 53 55 52 52 52 52 51 52 51 53 54 57 57 57 56 54 56 58 59 58 62 61 62 62 62 62 62 62
48 53 59 56 52 50 49 47 48 49 53 52 49 47 50 55 54 55 56 57 56 54 52 52 52 51 55 55 56 57 55 55 56 57 61 57 59 60 60 60 60 60 61 62
50 59 56 52 52 52 45 55 54 53 46 41 50 37 47 51 52 54 56 56 56 56 55 54 52 51 53 55 58 56 55 55 57 57 55 55 57 58 60 62 59 60 60 61
49 52 52 51 54 56 51 57 54 52 47 42 43 38 45 48 49 53 55 58 58 58 56 54 53 53 53 54 55 54 55 55 57 57 58 57 56 58 58 57 57 58 58 59
54 59 57 56 60 59 61 54 52 48 44 36 44 42 40 45 52 55 60 58 59 58 57 57 57 56 54 55 54 54 55 56 57 57 57 57 57 58 58 55 56 58 58 57
51 54 58 60 53 57 54 47 35 33 33 35 47 41 48 52 55 60 60 60 60 60 58 57 55 55 55 54 55 55 55 56 57 57 57 57 57 57 57 59 58 59 58 57
41 38 54 59 56 52 49 48 35 31 30 35 44 38 47 56 60 61 63 64 63 61 60 58 58 57 57 56 56 56 56 56 58 57 57 59 59 59 59 59 60 59 59 61
42 43 58 61 61 59 49 43 53 41 37 33 39 46 54 58 58 59 59 59 59 61 60 60 60 59 59 59 58 57 58 58 59 58 58 58 59 59 59 60 57 58 57 59
49 40 54 59 58 57 55 56 42 39 32 31 36 38 43 52 57 56 57 57 59 62 61 62 61 61 61 61 61 60 59 59 60 60 59 59 59 60 60 60 60 60 59 58
52 46 47 54 49 48 48 46 47 47 39 35 33 36 49 53 57 56 57 59 58 60 63 63 63 63 63 63 62 61 61 60 60 61 60 59 59 59 60 60 61 60 59 58
49 45 40 47 57 58 55 51 51 41 38 37 34 42 54 55 57 57 59 61 60 61 64 66 64 64 63 63 63 62 62 61 61 61 61 60 61 61 61 61 62 62 59 58
50 41 34 41 48 52 50 52 53 48 43 41 34 39 57 55 56 59 59 59 61 61 58 62 63 63 63 63 64 64 63 62 62 62 61 61 60 60 60 61 63 61 60 58
49 43 39 32 40 47 45 50 54 50 39 40 43 46 53 55 56 59 59 60 60 61 61 58 61 63 64 64 64 64 63 63 63 62 62 61 61 61 61 62 62 61 59 57
46 38 40 40 44 48 48 51 52 50 48 42 46 46 54 55 57 59 60 60 61 61 61 60 59 60 62 63 64 65 64 63 62 61 61 61 62 62 62 60 58 54 55 55
46 36 38 36 45 45 45 50 53 50 49 48 50 47 56 59 60 57 59 60 60 61 62 62 61 60 59 60 60 61 62 61 61 61 61 63 63 59 58 56 52 50 49 50
40 37 35 33 39 41 36 45 50 53 57 50 44 51 58 56 57 59 61 60 61 61 61 64 60 62 62 60 57 57 59 61 61 61 61 61 57 54 52 51 50 48 48 48
38 37 34 29 34 27 42 51 53 52 55 55 53 55 59 59 60 63 61 60 61 64 63 64 63 61 59 55 54 55 58 58 59 59 56 54 53 51 50 49 47 46 46 45
43 37 32 28 30 37 42 48 49 48 49 57 56 58 60 63 57 56 61 60 60 62 64 62 62 60 55 54 54 55 55 56 55 53 52 52 51 49 48 46 46 46 44 44
43 43 34 31 28 25 39 50 58 54 39 54 58 60 61 60 45 50 59 59 59 58 57 56 54 54 55 53 53 54 53 53 52 52 52 52 51 49 46 45 45 44 45 44
32 32 32 30 28 33 44 47 51 36 38 51 52 52 54 53 58 59 58 58 55 54 53 52 53 54 53 53 53 50 50 50 51 51 50 49 48 47 46 44 43 43 41 38
31 28 27 29 27 27 48 46 37 44 49 51 52 53 49 52 54 55 57 56 55 53 51 52 51 49 49 52 51 48 46 48 49 48 46 46 45 45 44 42 39 37 35 33
32 38 32 35 36 48 49 47 49 50 49 53 50 55 51 51 53 54 52 52 53 51 50 50 49 48 48 49 50 46 44 46 45 45 44 44 43 42 40 38 36 36 34 31
40 44 38 39 45 48 52 53 55 54 54 54 54 54 53 52 53 53 52 52 51 49 47 48 49 47 44 46 46 45 45 45 44 43 42 41 37 37 38 38 37 34 33 31
41 43 43 43 48 51 52 54 56 54 55 57 57 56 56 53 55 54 53 51 50 50 49 48 47 45 43 44 44 44 45 44 42 39 37 36 35 33 31 31 32 31 32 33
39 38 34 33 42 40 48 52 53 53 52 55 55 55 57 56 54 52 52 51 49 48 46 45 44 43 43 43 43 43 45 43 39 35 34 33 32 31 31 30 29 32 32 32

GFSCGP_sfc_temp_066.txt.gz
Temp
53 46 43 46 49 50 48 45 42 46 54 50 50 48 54 49 49 49 50 51 53 51 52 52 58 57 55 58 57 58 57 57 57 57 56 57 56 59 59 61 63 62 62 62
47 45 53 54 52 51 48 45 43 49 55 52 50 50 51 50 50 52 51 51 52 51 50 51 53 56 56 57 57 57 57 57 59 60 60 58 58 59 59 60 61 62 62 62
48 49 57 53 49 49 46 45 43 47 48 49 46 45 50 53 50 53 54 54 54 53 51 52 52 55 57 55 57 57 57 57 57 59 60 59 59 58 58 59 59 61 61 61
48 57 52 50 50 51 44 50 51 48 44 38 46 36 45 50 51 51 53 52 54 54 53 52 52 52 55 56 56 57 56 54 55 55 54 55 58 59 61 61 60 61 61 61
46 49 50 47 50 53 50 54 50 48 43 40 41 36 43 46 49 52 52 54 55 55 54 51 51 52 55 56 55 58 57 53 56 56 56 55 54 61 59 59 59 59 59 60
50 55 53 55 58 55 57 51 49 45 42 33 42 40 38 44 50 54 56 56 57 55 56 54 54 53 51 51 54 57 56 54 55 55 54 54 55 55 55 53 53 54 55 56
48 50 54 57 50 52 50 46 34 31 32 32 44 38 47 52 55 57 58 57 57 58 56 54 51 51 51 50 52 55 54 53 54 55 55 55 55 55 56 57 54 53 54 54
39 37 51 56 54 50 48 46 33 30 30 34 42 37 46 54 57 58 58 59 57 57 57 56 54 54 53 52 52 52 53 53 54 55 55 56 56 56 56 55 57 54 54 55
40 41 56 58 59 59 47 40 50 39 35 32 38 44 52 55 56 56 57 57 55 56 56 57 57 56 55 54 54 54 54 54 55 55 56 56 56 55 55 54 54 54 54 55
47 38 52 56 57 55 52 54 41 37 31 30 34 36 41 48 55 58 57 56 56 56 56 57 58 57 58 57 57 56 56 55 56 56 56 56 55 55 55 54 54 56 55 55
48 43 44 51 46 46 47 46 44 44 37 32 30 36 48 52 55 55 56 56 56 55 57 58 59 60 60 59 58 57 56 56 56 57 57 56 55 55 55 55 55 56 58 59
47 41 35 45 55 56 51 47 47 36 36 35 33 41 55 54 55 55 56 58 56 57 58 59 60 59 59 59 59 58 58 57 57 57 58 56 56 57 56 57 58 59 59 61
48 41 32 38 46 50 47 49 50 46 41 38 34 38 56 54 54 57 55 57 59 56 56 57 57 59 59 59 60 60 59 59 58 57 58 57 57 57 57 59 59 60 60 60
49 43 38 32 35 41 38 44 48 48 39 38 42 44 50 55 55 58 58 57 57 58 58 56 56 59 60 61 60 60 59 59 59 58 58 58 57 57 59 60 59 59 60 60
46 36 39 41 43 43 41 40 42 44 46 40 42 45 50 54 56 58 60 59 59 59 59 57 56 59 60 60 60 61 60 59 59 58 58 58 59 59 60 59 59 58 59 60
44 35 37 34 43 44 40 44 44 45 47 47 45 46 55 57 57 55 57 58 57 59 60 61 59 58 59 59 60 60 60 59 60 59 58 59 60 60 59 60 59 59 58 58
38 36 32 30 38 40 33 39 41 43 46 47 43 49 55 54 55 55 57 57 59 60 62 61 61 61 60 60 59 59 60 59 59 59 59 59 59 59 59 59 57 54 54 52
38 36 32 27 30 25 41 48 49 46 48 50 50 52 55 56 59 59 58 58 58 58 60 63 61 59 61 59 56 55 56 57 58 58 58 58 58 58 54 52 52 50 48 48
41 36 29 24 26 34 39 45 47 45 45 51 49 52 56 58 54 53 58 58 60 60 62 62 62 59 56 55 54 55 55 56 56 56 56 56 56 52 51 49 48 46 46 45
39 39 35 30 23 20 35 45 50 50 35 47 48 49 49 51 47 56 61 59 58 57 56 55 55 53 53 52 55 54 55 55 56 55 54 52 52 50 49 47 45 45 45 43
33 32 31 31 29 31 42 47 50 35 34 46 48 47 49 46 49 53 54 56 57 55 52 51 52 52 52 53 55 54 54 53 53 52 51 49 49 47 46 44 44 43 41 38
31 29 29 30 29 25 47 46 41 45 46 48 49 49 48 51 51 52 51 52 54 54 50 50 50 49 51 52 53 52 51 50 50 49 47 47 45 44 44 42 40 39 36 34
30 35 31 33 32 43 45 47 51 49 49 50 50 54 53 49 50 50 52 50 50 49 49 48 47 47 48 49 49 47 46 48 47 45 44 43 43 42 41 39 36 35 35 33
37 41 36 36 42 45 47 49 51 51 51 54 54 55 54 49 51 51 52 51 50 49 47 47 46 44 43 46 46 45 44 46 46 43 40 40 39 38 38 38 37 34 33 32
37 40 38 39 45 44 49 47 45 48 53 54 55 56 54 53 52 50 51 50 48 47 45 45 44 42 42 43 43 45 45 44 41 39 38 36 35 34 32 32 33 33 34 34
38 35 33 37 38 39 40 44 46 46 47 48 50 52 48 45 44 49 49 48 47 44 44 42 41 42 41 41 41 42 42 41 38 34 34 33 33 32 32 31 29 32 32 32

GFSCGP_sfc_temp_069.txt.gz
Temp
57 53 47 52 56 56 55 51 52 55 59 58 57 58 64 64 58 59 60 61 61 58 62 60 61 62 61 60 60 60 58 58 59 59 60 58 57 59 60 60 61 62 65 66
51 48 55 57 56 55 53 51 52 56 58 57 59 58 65 61 61 63 63 61 62 60 58 58 61 60 59 58 60 60 59 58 60 61 62 62 61 60 60 61 61 62 64 66
50 55 58 55 53 51 52 51 52 52 55 58 55 55 60 65 60 61 62 64 64 62 56 55 58 59 58 59 58 60 60 59 60 60 59 58 57 57 58 58 58 60 63 65
53 59 54 54 53 54 47 56 55 52 51 46 55 45 54 64 62 60 64 62 63 63 62 59 57 58 58 59 60 62 62 62 63 62 58 58 59 56 58 59 60 60 61 62
49 51 52 50 53 56 53 56 54 54 50 49 51 47 52 56 60 65 68 65 64 64 63 60 58 59 60 60 59 62 62 62 63 63 63 61 60 61 59 58 59 60 60 61
54 58 57 57 58 58 60 56 53 50 48 40 48 49 50 56 61 65 69 69 67 64 64 63 62 61 59 60 58 61 61 61 63 62 63 63 63 63 60 60 62 60 60 62
50 53 58 59 54 56 56 51 41 38 38 38 50 47 53 60 64 65 68 70 70 66 63 62 60 58 58 57 56 60 60 60 60 61 61 62 62 63 63 62 64 60 60 62
42 40 53 58 55 52 51 51 42 34 36 42 47 43 53 62 65 65 67 68 67 66 64 63 62 60 58 56 56 59 58 58 59 61 62 62 63 64 65 65 65 64 66 66
40 43 57 58 60 60 49 45 55 44 43 40 47 51 59 62 64 65 67 67 69 68 65 65 64 62 60 59 58 58 58 57 58 60 61 62 62 62 63 64 63 64 64 65
50 42 53 58 60 60 56 57 44 43 36 35 43 44 51 57 63 67 65 66 68 68 65 65 65 62 63 62 60 60 59 58 60 61 62 62 62 62 63 63 63 64 64 64
52 48 46 54 51 50 51 50 49 50 45 39 37 45 56 60 63 63 64 66 65 66 67 65 66 66 65 64 62 60 60 60 60 60 61 61 61 61 61 62 62 62 63 63
50 44 40 46 56 58 57 52 52 43 42 42 42 45 62 60 61 63 65 64 66 67 68 66 66 66 65 63 63 62 62 62 62 61 60 60 60 60 60 60 61 61 61 63
50 42 37 41 49 51 46 49 49 49 48 43 38 45 62 59 58 63 63 66 67 66 67 66 65 65 65 65 64 64 62 62 62 62 61 60 59 58 59 60 61 63 63 64
49 46 38 34 37 43 40 44 46 45 39 42 44 49 57 61 60 64 68 69 69 67 66 67 66 66 66 66 65 64 63 63 62 62 62 61 60 60 61 62 63 63 64 63
48 40 44 45 45 44 44 44 46 45 46 40 46 49 55 59 61 64 66 66 64 65 66 65 65 66 67 66 65 66 65 63 63 62 61 61 62 62 62 62 63 64 63 64
46 38 40 37 44 44 41 45 46 47 47 47 48 48 60 63 63 60 62 63 64 65 67 68 67 66 65 65 66 65 65 63 63 62 61 63 63 62 62 62 62 63 63 64
40 39 36 33 39 41 35 41 46 49 50 49 44 51 56 55 58 60 63 65 63 65 66 67 68 69 67 66 65 65 66 65 63 63 63 63 62 62 62 62 63 63 62 62
38 38 35 33 35 27 45 50 51 48 51 53 52 53 54 55 58 61 66 65 64 65 66 68 69 68 68 69 67 67 67 65 63 63 63 63 63 62 63 62 61 60 60 57
43 39 33 31 31 38 44 49 48 46 48 50 48 51 53 55 56 59 62 62 63 66 67 69 70 69 68 67 66 65 64 65 64 63 63 63 63 62 62 61 56 49 49 48
40 42 36 31 28 26 42 49 52 53 40 51 51 52 52 54 46 53 59 58 57 62 64 65 65 64 64 64 62 63 62 62 63 63 64 64 63 61 54 51 48 47 47 44
33 33 30 31 31 37 47 50 52 38 43 52 53 54 53 51 54 58 58 58 59 59 61 60 59 59 61 60 61 61 61 59 59 58 55 53 52 50 49 45 45 44 42 40
35 31 32 33 30 28 50 49 44 51 54 53 55 56 53 55 55 55 58 58 57 57 57 56 55 52 54 56 59 58 55 52 52 50 49 47 47 46 45 44 42 40 37 35
35 40 37 39 40 48 50 49 53 53 51 53 54 57 56 54 56 56 56 57 57 55 55 54 52 50 50 53 54 49 48 50 48 46 45 45 44 43 43 41 38 36 36 33
41 45 40 41 47 50 53 53 50 50 49 51 54 55 56 55 55 54 54 55 54 54 52 52 50 48 46 49 49 48 47 48 45 43 42 41 40 39 39 38 37 36 34 33
43 44 42 43 47 46 52 47 46 47 49 48 49 49 51 49 50 49 50 47 50 49 48 48 45 43 42 44 45 46 46 45 42 40 39 37 36 35 33 33 35 35 35 36
43 42 39 39 40 39 42 47 45 44 44 43 41 41 42 41 41 46 40 40 41 41 42 43 40 38 37 37 37 41 43 43 40 36 36 35 35 34 33 31 29 32 32 32

GFSCGP_sfc_temp_072.txt.gz
Temp
65 60 56 62 65 67 67 63 62 68 70 65 67 68 73 80 76 75 75 76 75 74 77 74 72 70 69 68 65 64 59 59 60 61 60 59 60 61 62 63 63 65 70 73
60 55 64 67 66 63 63 60 61 67 68 65 68 68 73 77 77 79 79 76 76 76 74 72 70 70 69 66 66 63 60 59 62 61 62 61 61 62 64 62 62 63 69 73
57 62 64 64 61 59 61 59 60 61 66 67 65 63 69 75 78 78 77 79 79 77 73 71 69 69 70 65 66 67 63 63 63 65 66 62 59 59 59 60 61 61 64 71
60 66 60 59 59 62 56 66 62 61 59 54 64 53 67 70 73 77 78 77 77 78 76 74 71 70 70 69 66 68 65 66 63 64 63 65 65 59 63 61 61 60 62 65
57 58 58 55 59 64 59 67 62 61 59 58 58 55 64 69 67 73 78 80 79 79 77 74 72 72 72 72 67 65 66 69 64 62 64 64 67 62 62 62 60 59 59 62
58 65 63 62 65 65 65 61 61 60 58 46 55 56 59 67 69 73 78 80 82 79 78 77 76 74 73 72 69 67 68 68 66 65 63 61 62 63 61 58 60 58 59 60
52 54 62 64 59 64 63 58 48 45 45 44 59 55 59 69 73 75 76 79 81 80 78 77 75 73 72 70 68 68 70 69 69 67 66 65 65 65 63 60 61 59 59 60
41 40 55 62 60 57 58 58 50 40 43 49 57 50 60 72 76 76 77 79 80 79 78 77 76 74 73 71 69 68 70 71 71 68 69 69 69 67 67 67 68 67 67 67
46 47 60 61 63 62 57 53 62 52 51 46 56 59 67 72 73 76 77 78 79 82 80 78 77 75 74 71 69 67 71 72 71 69 69 69 70 70 70 69 70 71 70 71
53 45 57 61 63 63 61 65 49 52 39 39 51 54 58 63 66 74 75 77 80 81 79 79 78 75 75 73 72 69 71 71 71 70 70 70 69 69 70 71 71 71 71 72
56 50 49 57 55 55 56 54 57 57 52 44 42 52 67 66 68 71 74 77 79 80 79 78 78 78 76 75 73 70 71 71 69 69 70 70 69 69 69 70 70 71 71 71
54 50 46 50 60 62 62 56 57 48 47 52 50 52 70 70 70 68 72 78 78 80 81 80 78 77 75 74 73 72 71 71 70 69 69 69 69 70 69 68 70 70 70 71
54 48 42 47 53 57 56 56 56 56 54 48 42 50 70 70 68 69 70 77 79 81 82 81 77 76 75 75 74 74 71 71 71 70 68 68 67 68 68 68 68 70 70 70
52 49 43 41 46 51 45 50 53 52 47 49 51 55 62 66 67 70 71 74 78 80 81 80 79 77 77 77 75 74 72 72 71 71 69 67 67 68 68 69 68 69 70 69
51 45 48 49 50 50 49 50 52 50 52 46 52 54 61 66 67 69 71 71 72 75 79 80 79 81 80 78 76 76 75 72 72 70 69 69 69 69 69 68 68 69 69 69
51 45 46 44 49 50 47 51 53 53 54 54 56 55 67 68 70 69 70 71 70 72 76 79 80 79 79 79 78 76 75 73 72 70 69 70 70 69 68 68 68 68 68 68
44 45 43 38 45 46 39 48 53 55 58 58 52 59 64 63 64 66 66 67 69 72 74 76 79 79 79 79 77 77 77 76 72 71 71 70 70 69 69 69 68 68 67 68
44 44 43 38 39 30 50 57 56 53 58 61 60 61 61 62 64 67 67 64 64 66 68 72 76 78 80 81 79 78 80 76 72 72 72 71 70 69 70 69 68 67 68 67
49 45 38 35 38 45 49 55 54 52 53 58 58 60 62 64 64 67 68 67 65 66 67 70 73 75 76 76 78 77 76 76 75 72 72 72 72 69 69 68 68 66 64 61
48 48 41 38 32 30 47 55 59 59 46 59 58 59 59 62 53 61 67 67 66 69 68 69 71 71 73 74 74 75 75 75 74 72 74 74 72 70 69 68 63 54 56 51
34 36 34 36 35 43 55 59 59 42 45 59 60 60 60 57 61 64 66 67 68 69 68 67 67 67 67 68 69 68 72 71 74 75 73 72 71 69 66 54 53 50 44 42
35 33 32 37 32 30 57 55 47 53 58 59 60 60 59 62 63 64 63 65 67 66 66 65 62 56 56 60 66 69 67 61 61 61 58 57 56 51 51 48 46 44 41 37
38 46 43 45 45 56 57 57 61 58 55 57 57 59 59 60 62 64 63 63 63 63 62 63 56 50 48 50 58 57 52 54 53 52 49 47 46 45 46 43 41 38 38 35
50 55 47 48 53 56 59 59 57 56 55 56 57 56 56 54 59 59 59 58 59 57 55 53 51 46 41 43 45 47 48 48 47 44 43 42 41 40 41 40 39 37 35 33
52 53 49 49 54 57 58 57 54 53 55 54 54 53 51 50 53 52 54 49 48 47 47 46 43 41 39 39 39 41 43 44 41 40 39 37 36 34 32 32 35 35 35 35
54 50 46 45 50 48 50 54 52 50 51 51 48 48 49 47 47 48 45 42 44 41 38 38 36 36 37 37 35 36 38 40 38 36 35 34 34 33 32 31 29 31 32 32

GFSCGP_sfc_temp_075.txt.gz
Temp
68 60 59 64 67 69 69 67 67 73 78 72 70 72 78 82 83 80 81 82 82 81 84 83 79 79 77 76 71 70 63 62 62 61 60 60 59 61 63 62 64 67 73 74
56 55 67 70 70 68 66 64 66 71 75 69 70 71 77 80 80 83 83 83 83 83 83 81 78 77 74 74 70 67 64 65 63 62 63 63 63 62 64 63 63 65 67 72
51 59 68 66 66 64 65 62 64 65 72 72 68 66 71 78 81 82 84 85 86 84 81 80 77 76 74 73 70 71 65 62 65 66 66 64 63 62 61 61 62 62 65 69
49 62 64 63 62 66 58 69 67 65 63 57 71 55 69 76 78 80 81 82 83 85 85 82 79 76 75 74 74 70 66 64 64 65 62 60 60 58 61 61 61 60 62 66
46 53 59 59 61 66 60 68 67 66 61 61 62 58 64 74 73 77 80 83 85 85 85 82 80 79 78 76 73 74 67 67 65 65 64 61 61 62 63 60 60 60 60 63
57 63 63 64 67 65 67 65 64 65 61 51 59 59 61 69 72 76 80 83 85 85 85 84 83 81 79 78 74 73 68 67 68 66 68 65 67 64 62 60 59 60 59 60
49 52 63 66 59 64 65 60 48 45 47 46 63 59 61 72 76 78 78 82 85 86 84 83 82 80 79 76 74 72 72 71 67 66 67 67 69 68 64 65 61 60 60 59
44 39 53 64 60 56 59 59 51 40 42 50 64 54 63 76 78 81 81 82 85 84 84 84 83 81 79 77 75 72 73 73 73 67 67 67 68 69 70 67 69 68 64 63
47 47 61 62 63 60 54 53 63 53 54 48 56 63 70 74 75 78 79 81 82 85 86 84 85 82 80 78 75 73 75 76 75 72 70 69 69 69 68 69 69 69 69 70
54 46 59 59 63 63 59 62 50 54 39 38 51 56 58 67 69 74 77 79 82 85 85 85 85 83 81 79 77 75 75 76 77 75 73 73 72 71 70 70 69 69 69 70
57 52 50 57 50 53 56 52 54 57 53 43 42 52 70 70 72 71 76 78 81 82 83 83 84 85 83 81 79 76 74 76 76 75 74 73 73 73 73 71 71 72 71 70
60 52 46 49 61 62 61 57 56 47 46 52 51 52 72 73 72 72 73 76 81 82 84 85 84 85 83 80 79 77 75 76 77 76 74 73 73 73 72 72 73 72 72 72
53 51 43 45 53 61 57 60 60 59 57 47 38 51 73 72 72 73 73 75 78 79 83 85 84 83 82 81 79 78 76 75 77 76 73 73 72 72 71 72 73 73 73 73
52 50 48 42 46 55 52 56 58 56 47 49 51 55 63 67 69 70 73 74 75 76 79 83 85 85 83 81 80 79 78 77 77 76 74 72 72 72 72 73 72 72 73 72
53 41 48 51 51 52 53 54 56 55 56 49 53 56 63 67 69 72 74 74 74 75 77 79 82 85 86 83 81 81 80 79 77 76 74 72 73 73 73 72 72 72 72 73
55 45 48 44 52 52 48 53 55 56 56 57 58 58 70 72 72 70 71 72 71 71 74 76 80 82 84 85 83 82 80 79 78 76 74 75 74 73 72 72 72 71 71 72
47 47 46 40 50 49 42 50 52 55 58 58 52 60 67 66 68 68 68 70 68 69 71 72 73 76 80 83 83 83 83 81 78 76 76 76 75 74 72 73 72 71 70 70
46 47 47 40 43 32 52 61 60 57 60 63 63 64 65 66 68 70 73 69 67 68 70 71 73 74 78 79 81 83 84 83 79 77 76 76 75 74 74 73 72 71 70 69
52 47 41 36 39 47 52 57 56 54 55 63 61 63 65 67 67 69 72 71 69 70 71 72 73 71 73 76 78 79 79 82 81 77 75 75 76 74 74 72 71 71 70 68
51 50 43 40 34 32 51 58 63 62 49 62 62 61 61 63 56 63 69 71 70 73 73 71 71 71 69 69 71 72 74 77 78 79 77 78 77 75 73 73 71 70 69 66
39 38 36 37 36 45 59 62 63 44 46 59 61 61 61 58 62 66 70 70 71 72 71 68 67 60 57 58 60 65 71 72 76 78 79 77 76 74 72 71 72 69 59 49
39 35 34 38 33 32 61 60 50 54 60 60 61 61 59 61 64 66 69 69 69 68 68 64 59 53 49 47 50 58 63 62 65 65 66 69 69 66 70 66 58 51 46 40
39 46 43 46 46 58 62 59 60 60 58 59 59 60 60 59 60 63 66 66 63 63 62 60 55 47 45 43 43 43 45 49 53 58 53 51 49 49 51 48 43 41 41 38
52 51 45 42 54 50 60 63 62 60 58 60 60 59 58 56 58 59 60 61 59 58 55 54 50 41 38 40 39 39 42 44 44 42 41 41 40 38 39 39 40 39 38 35
53 54 52 52 56 60 61 60 58 57 59 58 57 57 55 54 55 55 57 54 53 52 49 46 43 37 35 38 36 37 39 41 39 37 37 35 34 34 32 31 33 34 33 34
56 52 47 45 51 52 55 56 55 53 52 53 52 52 52 52 49 51 50 47 46 44 42 40 37 36 33 35 34 34 35 37 36 34 33 32 32 32 31 30 29 31 31 32

GFSCGP_sfc_temp_078.txt.gz
Temp
66 56 53 59 63 64 63 61 61 69 76 73 70 70 74 79 80 78 79 80 80 79 83 82 79 77 76 72 68 66 61 60 61 60 59 59 58 60 61 62 62 63 66 67
60 54 61 64 65 63 62 58 59 67 74 72 70 69 74 78 78 80 81 80 80 81 81 80 77 75 73 71 69 65 64 62 61 62 62 62 61 61 63 63 63 65 66 68
54 58 63 58 58 59 61 57 59 61 69 72 69 64 68 75 79 81 82 83 84 81 79 78 76 74 71 70 68 67 66 63 62 63 63 62 61 61 60 60 60 61 63 68
57 62 57 53 49 52 50 64 64 63 60 53 68 52 65 72 74 77 79 79 81 82 82 80 76 74 71 70 69 68 65 65 64 63 62 60 59 57 60 61 62 61 62 63
53 53 52 48 48 54 51 61 59 58 59 58 59 55 62 71 69 74 78 80 80 82 82 80 77 76 75 72 69 68 66 65 64 63 63 61 60 61 63 61 61 60 60 61
58 64 57 51 54 58 58 58 56 57 57 47 56 55 57 64 69 75 80 81 82 82 82 82 80 78 76 73 70 68 66 65 64 64 63 63 62 61 61 60 58 58 59 60
53 55 57 56 47 53 56 51 36 37 42 42 59 55 59 70 75 78 77 79 82 82 81 81 79 77 76 72 69 69 66 65 65 63 63 62 62 63 60 61 61 60 59 59
43 39 53 57 51 48 51 50 36 33 38 44 59 51 61 74 78 80 81 80 81 81 80 80 80 77 76 73 69 69 67 66 66 63 63 63 64 63 63 62 63 62 62 61
45 45 59 59 59 55 46 45 52 41 43 37 52 62 70 75 75 77 78 79 78 80 80 81 81 78 77 74 70 68 69 69 68 65 65 65 66 65 63 63 63 63 63 65
51 42 57 58 60 57 52 58 44 42 32 32 47 52 57 65 68 73 75 76 78 81 81 80 81 78 78 76 73 69 69 70 71 66 65 66 66 66 66 66 64 64 63 64
55 49 48 56 50 48 49 48 46 46 43 37 38 47 66 65 70 69 72 74 75 77 79 79 80 81 79 78 75 71 70 72 71 69 67 66 65 66 66 65 66 65 65 64
54 50 43 48 58 59 56 52 51 38 38 46 43 46 68 68 70 70 70 75 75 77 78 81 81 81 79 78 76 73 72 71 72 71 69 67 67 67 66 66 66 66 65 66
51 47 39 43 48 57 51 51 51 53 47 36 34 46 65 67 67 71 71 71 74 75 76 78 80 80 79 78 77 76 73 72 72 72 70 68 68 67 67 67 67 67 66 66
52 46 43 35 37 45 45 50 52 51 42 43 41 46 55 57 61 66 71 72 73 74 76 77 77 79 79 79 78 77 74 73 72 73 71 69 68 68 68 68 68 68 68 67
52 41 45 47 48 48 42 45 48 43 45 42 49 49 56 59 63 66 70 71 71 71 72 72 71 72 75 77 77 78 76 74 73 72 71 70 69 69 69 68 68 68 68 68
55 42 46 43 50 46 47 52 53 52 51 54 52 48 60 62 70 69 68 69 66 67 68 69 71 72 72 74 75 77 77 75 74 72 71 72 70 69 68 68 67 67 66 67
47 45 43 38 48 47 40 48 51 54 57 55 49 57 64 63 66 66 67 67 65 66 67 68 68 69 69 69 71 74 75 77 75 74 73 73 71 69 68 68 68 67 65 65
45 45 44 37 42 30 49 61 59 55 57 60 61 63 63 65 66 67 69 65 65 66 68 68 68 67 68 67 64 65 69 75 75 75 74 73 72 70 70 68 67 66 66 65
52 45 38 35 36 45 51 57 55 53 53 62 61 62 63 65 65 62 68 68 66 67 68 67 66 62 60 57 57 59 63 67 70 73 74 74 72 71 70 68 67 66 65 64
50 49 40 38 32 30 48 59 63 62 46 61 61 59 59 61 50 55 65 68 68 68 65 63 62 57 53 50 51 54 59 58 56 58 64 73 73 72 70 68 66 66 66 64
39 39 34 34 33 42 56 57 62 42 43 58 60 59 57 54 56 61 65 67 68 66 63 61 58 52 47 47 48 47 49 46 50 55 60 59 64 70 70 68 66 64 63 51
39 34 34 36 33 30 59 57 45 50 53 57 57 57 56 58 59 61 63 64 62 61 60 58 54 48 45 44 44 43 42 44 48 49 49 49 49 50 58 61 52 50 46 40
35 45 40 43 42 56 60 54 58 59 55 54 55 57 56 55 56 58 58 59 58 57 54 52 50 46 43 43 41 39 39 43 43 41 39 39 40 41 44 45 44 42 41 38
48 50 43 44 52 54 48 55 57 58 56 57 56 55 54 52 54 54 56 52 51 51 47 45 44 40 39 40 39 37 38 41 40 37 36 36 34 34 34 38 38 37 35 34
49 47 44 41 44 49 47 48 54 54 54 53 54 53 51 50 48 47 48 45 44 43 41 40 36 35 34 35 35 36 36 38 37 36 35 33 32 31 31 30 31 32 33 34
50 43 39 38 47 46 43 49 51 49 48 49 50 49 49 45 42 41 38 36 36 34 34 33 32 31 30 31 32 32 35 36 35 33 32 31 31 30 30 29 29 32 31 32

GFSCGP_sfc_temp_081.txt.gz
Temp
56 46 42 48 54 57 55 53 51 57 65 64 63 60 64 68 66 65 65 66 66 70 71 73 71 69 64 62 61 60 60 60 61 60 58 58 58 59 60 61 61 62 65 65
50 45 54 58 59 57 53 50 50 58 64 64 61 60 65 65 66 66 67 66 66 70 69 71 68 66 64 61 60 59 60 60 60 60 60 60 60 61 62 61 61 62 62 65
46 52 59 56 54 53 51 50 51 51 61 64 60 55 60 66 67 70 69 71 71 70 69 69 68 65 62 60 59 59 61 60 61 62 62 61 61 60 59 59 60 60 62 64
50 58 55 51 50 51 44 55 53 50 45 39 53 40 55 61 65 69 72 68 67 69 72 70 68 65 62 61 60 60 60 60 61 62 61 59 58 57 59 60 61 61 61 63
47 49 48 46 49 53 47 53 50 46 42 44 46 45 53 62 59 65 70 71 68 68 71 69 67 67 65 63 61 60 60 62 62 62 62 60 59 60 61 60 60 60 59 61
50 56 53 51 55 53 52 46 47 44 41 34 41 44 47 56 62 65 69 71 71 69 71 71 70 67 66 63 62 60 60 62 62 62 62 61 60 60 59 59 59 59 58 56
46 49 52 54 45 49 45 39 33 31 31 31 49 45 51 62 68 69 69 68 71 70 69 70 67 66 65 62 62 60 60 60 62 62 62 62 61 61 60 60 60 60 59 59
36 33 48 53 47 45 43 39 33 28 29 35 52 43 51 66 71 71 70 70 72 68 70 70 69 68 66 64 62 63 60 60 61 62 62 63 63 62 62 62 62 61 61 61
38 40 54 58 54 51 44 38 45 36 37 33 40 52 64 67 69 68 68 70 67 66 69 70 71 69 67 64 63 63 61 62 61 61 62 61 60 60 61 63 63 62 62 62
46 37 52 55 56 54 49 52 37 35 28 28 41 43 47 58 62 66 65 64 65 67 69 69 71 70 69 66 65 64 62 62 62 60 61 63 62 62 62 62 61 62 62 61
49 42 44 51 48 46 45 42 38 39 38 32 31 38 53 49 60 62 63 65 66 65 67 71 70 72 71 67 65 64 64 63 63 61 62 62 63 64 64 63 62 63 63 62
49 42 36 42 54 57 52 44 43 34 34 39 37 37 53 52 58 63 64 66 67 67 67 70 70 69 69 68 66 65 65 65 65 63 62 62 62 64 64 63 63 63 63 63
48 40 32 39 46 52 46 48 47 42 42 35 32 38 53 54 57 60 61 65 67 67 66 65 67 69 68 67 67 66 65 66 67 64 62 61 61 62 62 62 63 64 64 64
49 42 37 31 36 39 37 43 45 41 35 38 37 42 50 49 52 56 60 64 64 64 64 65 65 67 67 69 65 67 66 67 66 65 64 62 62 62 62 63 63 63 63 62
45 36 41 42 46 47 40 44 40 39 39 36 42 42 51 51 51 54 60 64 63 63 64 64 64 64 65 65 65 65 66 67 67 66 64 64 64 64 64 63 63 64 63 64
47 37 41 38 46 47 44 46 44 42 41 42 44 42 53 59 60 58 58 62 61 62 63 64 63 62 61 59 58 60 61 62 66 67 67 67 64 64 64 64 63 63 63 64
42 38 37 32 44 43 35 43 48 48 46 45 41 51 58 58 55 59 58 59 60 61 61 58 57 56 56 54 54 54 57 62 63 64 66 67 66 65 65 65 64 63 63 63
39 39 37 29 35 26 44 56 56 51 53 56 56 55 57 57 59 60 58 57 59 58 56 55 53 52 51 51 50 52 57 55 55 55 57 59 65 65 65 64 64 63 63 62
43 38 29 27 28 38 45 53 51 48 48 57 56 57 58 59 57 56 61 60 56 56 55 53 51 49 47 46 48 51 51 51 51 51 52 56 56 54 63 63 63 64 63 62
44 41 32 28 28 23 42 53 58 57 39 53 54 52 51 54 42 47 57 58 55 55 54 50 48 46 45 45 46 46 46 47 47 49 51 52 50 49 49 57 63 64 64 62
33 32 30 28 27 34 50 53 56 38 37 51 52 51 50 47 49 54 57 55 53 52 50 50 47 42 43 44 43 42 42 40 44 47 47 46 44 44 45 46 54 60 61 60
33 30 28 29 25 24 52 52 42 43 49 50 51 50 48 50 52 52 51 49 47 45 44 45 41 41 41 42 40 39 38 40 43 43 42 40 40 39 39 40 43 46 50 45
31 39 33 36 34 45 47 47 49 50 47 49 49 50 51 48 47 48 46 45 42 40 39 40 39 38 38 37 38 34 36 38 40 39 37 36 36 35 35 33 35 39 41 40
40 42 38 38 41 42 43 48 50 50 50 50 50 49 47 43 43 42 40 39 38 36 36 37 36 33 32 34 34 33 35 37 38 35 34 33 32 32 32 32 32 32 32 36
41 42 38 38 41 42 41 42 47 48 49 50 48 45 43 41 38 37 35 35 34 34 34 33 31 30 30 32 32 33 34 35 35 33 32 32 31 31 31 30 30 30 31 32
43 37 36 33 38 39 37 43 46 44 44 42 43 38 37 37 35 35 32 32 31 30 30 29 29 29 29 31 31 31 33 33 32 30 30 29 29 29 29 29 28 31 31 32

GFSCGP_sfc_temp_084.txt.gz
Temp
53 44 41 46 49 51 50 48 45 49 58 57 54 56 60 66 67 66 61 62 62 66 69 68 64 62 61 60 60 60 61 61 60 59 58 58 58 59 60 62 62 63 64 64
46 41 49 53 53 52 50 46 44 52 57 53 51 53 59 61 62 63 64 62 62 64 64 66 62 60 60 59 60 59 60 61 61 61 60 60 60 60 61 61 61 62 63 64
42 48 54 52 50 49 48 45 45 46 51 52 52 50 55 61 63 66 64 65 67 66 65 65 61 59 59 58 59 59 61 61 61 61 61 60 60 59 59 59 59 60 61 63
46 55 52 48 48 49 41 51 50 47 41 35 49 33 48 55 57 63 66 62 64 64 68 66 63 59 58 58 59 58 61 61 61 61 60 59 58 57 59 59 61 61 60 61
44 47 47 45 48 50 44 49 46 45 39 40 41 37 45 54 53 59 64 65 63 64 67 66 64 62 61 59 58 58 61 62 62 61 61 59 59 60 60 58 55 59 58 60
47 52 50 50 51 51 50 45 44 43 39 31 41 39 41 48 55 62 65 65 66 64 68 68 67 64 59 59 58 59 59 60 62 61 61 60 59 59 59 59 58 58 59 58
43 46 49 51 43 46 44 38 31 30 30 28 46 40 44 55 61 65 66 65 67 65 67 66 64 61 58 57 57 58 58 58 60 61 61 61 60 61 59 59 59 58 58 57
34 33 44 50 46 41 39 38 32 27 27 31 46 38 44 59 65 69 70 68 69 66 67 66 64 63 60 59 58 59 58 57 58 60 61 61 61 61 61 61 61 59 60 61
35 37 48 50 50 48 40 34 43 34 35 30 37 46 58 58 57 63 68 65 61 64 66 65 64 64 62 60 59 59 59 59 59 59 61 61 62 62 61 62 62 61 61 63
43 35 47 51 51 49 46 46 34 35 27 27 36 38 40 47 51 57 61 58 58 61 66 65 65 65 64 62 61 60 60 59 60 60 61 62 62 62 62 62 61 62 62 62
44 40 39 46 45 42 44 37 37 37 34 28 30 36 49 48 52 53 57 62 61 61 61 63 67 67 65 63 62 60 59 59 59 60 60 62 62 61 61 60 60 62 62 62
46 40 32 39 51 53 50 45 41 33 33 35 35 36 49 50 52 54 58 62 59 61 62 63 64 64 62 62 62 61 61 60 60 60 60 60 62 61 60 61 61 62 62 62
44 36 30 35 43 46 42 46 45 43 39 33 30 36 49 49 50 53 54 60 61 61 61 62 62 61 61 62 62 61 61 60 61 60 59 59 59 59 60 61 63 62 62 62
48 39 35 28 35 39 36 39 42 39 34 34 34 40 47 46 47 51 53 58 61 61 60 60 59 58 59 59 59 59 60 61 61 61 60 59 59 60 61 61 61 62 62 62
43 33 37 40 43 44 42 42 40 37 39 35 38 41 45 47 48 50 53 57 60 59 59 58 56 55 55 54 54 56 58 61 62 60 60 60 60 61 61 61 61 61 61 61
43 33 37 35 43 44 41 44 43 39 40 39 42 38 50 51 51 50 52 55 57 55 55 55 54 52 52 51 51 53 55 56 59 60 60 61 60 61 60 60 60 60 61 61
38 35 31 29 39 39 33 41 44 43 44 41 37 47 50 49 51 52 52 54 54 53 53 52 50 48 47 46 48 50 52 53 53 53 55 58 58 60 62 61 60 60 60 60
37 35 34 28 33 24 42 51 52 48 50 48 50 51 52 49 52 56 56 53 51 50 49 47 46 45 44 45 46 48 49 49 49 49 51 53 52 52 54 56 61 61 61 59
41 35 27 25 27 35 42 49 47 46 43 49 52 51 52 53 51 47 52 52 49 48 47 45 45 44 43 42 44 44 43 44 45 45 46 48 48 48 49 48 48 54 61 61
40 37 30 25 24 20 38 51 56 54 35 48 52 52 50 50 39 43 48 47 46 46 45 43 42 41 40 40 42 42 41 41 41 43 43 43 43 43 44 44 45 48 50 60
28 27 28 25 23 31 45 48 53 36 35 47 48 48 47 43 44 45 46 43 43 42 42 43 40 37 37 39 40 40 39 38 41 41 41 39 39 39 40 40 42 44 45 46
32 29 26 27 24 24 45 46 39 41 45 46 47 46 44 44 44 43 41 39 39 37 38 39 38 36 36 37 36 36 35 37 41 38 37 35 35 35 36 35 36 38 39 40
30 34 31 33 32 41 45 44 47 46 43 44 44 47 45 43 41 40 38 37 35 35 34 36 35 34 33 35 34 32 33 36 38 36 34 32 33 32 33 33 32 32 35 35
34 38 36 38 39 39 41 45 46 46 46 46 46 44 43 40 39 36 36 34 32 32 32 32 31 30 29 32 33 32 34 35 35 33 32 32 31 31 31 32 32 30 30 32
37 40 35 35 38 39 39 40 41 43 44 40 40 39 38 37 34 33 31 32 31 30 30 30 28 28 29 30 30 32 33 34 33 32 31 30 30 30 29 30 30 30 30 30
35 34 32 30 34 36 34 38 39 37 36 37 36 32 32 34 32 31 29 29 28 27 28 27 27 27 27 28 29 29 32 31 30 29 29 28 29 28 27 27 28 30 30 31

GFSCGP_sfc_temp_087.txt.gz
Temp
50 43 38 45 48 49 47 44 41 45 55 51 49 48 53 56 56 56 57 58 62 61 64 64 62 61 61 62 63 62 59 58 58 58 58 58 58 60 60 62 62 63 63 61
45 39 48 50 50 48 47 43 41 48 53 51 46 48 55 56 59 58 59 60 63 58 59 61 59 60 61 62 62 61 61 60 58 60 60 60 59 60 61 61 62 62 63 62
42 47 52 50 47 46 44 42 42 44 47 47 46 46 53 60 58 59 60 61 62 59 59 59 58 59 61 61 60 61 62 61 59 59 61 60 58 59 58 58 60 60 62 62
43 51 50 46 46 47 39 47 47 45 40 33 44 33 48 54 55 57 60 59 60 59 64 62 59 57 59 61 61 59 61 61 62 59 58 59 58 57 59 59 59 59 60 61
43 46 44 44 46 49 43 48 45 43 36 35 37 33 43 50 49 55 57 60 60 59 64 63 60 59 59 61 59 58 59 61 61 61 60 59 58 59 59 59 58 59 58 60
47 51 49 48 48 48 48 44 43 41 37 27 37 36 39 45 52 56 60 62 63 60 64 66 64 61 57 60 59 57 60 61 61 61 60 60 59 59 57 57 57 57 58 58
42 43 48 50 42 46 42 37 23 23 28 27 41 37 40 52 56 58 60 63 65 63 63 64 61 57 58 58 58 60 60 60 61 60 60 60 60 60 59 58 57 57 58 57
33 32 44 49 45 41 39 37 26 22 26 30 42 34 40 54 57 60 62 63 66 65 63 64 63 59 57 58 59 59 58 59 60 61 61 61 61 61 58 58 57 56 58 59
34 36 46 48 48 47 38 33 41 32 33 30 35 41 50 53 53 56 57 58 55 61 63 64 64 61 58 57 58 58 58 59 60 60 61 61 61 61 60 58 58 57 58 60
42 35 45 47 49 48 42 44 32 34 25 24 33 36 39 45 46 51 55 54 55 56 60 64 63 61 60 59 58 58 58 58 59 60 60 61 59 61 61 61 59 59 58 58
44 40 39 45 41 39 38 34 36 36 34 29 26 35 45 44 46 47 51 56 55 55 57 60 61 61 61 60 58 58 58 57 57 58 58 59 59 61 61 61 61 61 60 59
45 39 32 37 48 48 44 39 38 31 31 35 33 34 48 46 48 50 51 56 56 57 59 59 59 59 58 58 58 57 57 57 57 58 58 58 59 60 61 61 61 61 61 61
44 35 30 33 39 43 38 41 43 41 37 32 29 34 48 47 47 50 50 53 56 55 55 55 55 55 57 58 58 58 58 58 58 58 57 58 58 58 60 60 61 61 61 61
47 37 33 26 31 38 36 40 42 40 33 34 34 39 44 44 45 48 50 52 55 54 53 52 51 52 53 54 55 56 57 58 59 58 58 57 57 58 60 61 61 60 61 61
41 33 35 37 39 40 39 40 41 36 37 34 38 38 45 47 47 48 50 52 53 51 52 51 49 49 50 51 52 53 53 54 58 59 58 58 58 59 60 60 60 60 60 60
41 33 33 32 39 39 37 41 42 43 41 39 39 38 49 51 51 49 50 51 50 49 48 48 47 47 46 47 49 50 50 51 53 53 55 58 59 59 59 58 59 59 59 59
37 33 30 28 35 35 30 37 41 42 43 42 36 42 49 47 48 49 50 49 47 46 46 45 44 43 43 44 46 44 46 48 47 48 50 50 51 52 53 56 59 58 59 59
35 33 31 26 30 21 38 48 50 44 47 47 48 49 49 47 47 49 51 47 44 44 43 42 42 42 42 43 43 44 44 44 44 44 44 46 46 47 49 50 49 50 52 58
39 33 26 24 26 32 38 45 42 42 41 48 44 49 47 47 45 42 46 45 43 42 41 41 41 41 40 41 43 42 42 42 42 41 40 41 41 43 44 43 43 45 46 49
36 35 29 25 23 18 35 45 49 50 35 45 48 47 47 48 38 37 43 42 41 41 41 39 39 38 37 38 42 42 40 41 39 39 38 38 37 39 38 39 40 41 43 45
28 28 27 25 25 29 41 43 48 34 34 44 44 44 45 39 42 41 41 38 39 40 40 40 38 35 35 36 37 36 37 37 39 37 36 35 34 35 35 35 37 38 39 41
28 26 24 27 25 23 43 43 36 38 42 43 44 43 40 40 40 39 38 37 36 35 35 36 34 32 33 34 34 33 33 37 39 36 33 33 33 34 35 33 33 34 36 36
24 32 31 33 30 41 43 42 44 45 42 43 43 44 42 39 38 37 34 33 33 32 32 32 31 30 30 31 32 31 32 36 35 34 32 32 31 32 33 32 31 31 33 32
34 35 32 34 38 39 40 41 43 42 39 40 41 41 41 36 35 34 33 31 30 30 29 30 30 29 29 31 31 32 31 35 33 31 31 30 29 30 30 31 31 30 29 29
35 35 34 33 35 37 37 39 39 39 39 36 35 35 35 34 31 31 30 29 28 27 28 28 28 27 27 30 29 30 31 31 31 29 30 29 30 28 28 27 27 28 29 30
34 30 29 29 32 33 32 36 37 34 32 33 33 30 30 31 30 29 27 27 26 25 27 26 27 26 26 26 26 27 29 30 29 28 27 26 26 25 25 26 25 29 28 30

GFSCGP_sfc_temp_090.txt.gz
Temp
50 42 36 41 46 48 44 42 41 41 52 48 47 49 48 53 52 52 54 56 57 58 62 62 60 60 60 61 62 61 58 58 58 58 58 58 59 60 61 62 62 63 62 60
45 39 47 50 48 46 45 41 39 46 50 48 45 46 50 52 55 55 56 56 57 57 58 57 57 59 60 62 62 61 60 58 58 60 60 57 59 60 61 61 62 63 61 60
42 47 51 49 45 43 41 40 40 42 45 45 43 46 50 54 56 57 56 59 59 59 59 56 56 58 62 62 62 61 61 59 59 60 61 58 59 59 58 59 60 61 61 60
43 50 48 44 44 45 38 47 46 43 38 31 41 30 46 52 54 55 58 56 58 58 59 57 56 59 60 63 63 63 62 60 59 61 60 59 59 56 58 59 59 60 61 60
42 45 43 42 45 48 42 48 45 43 36 33 34 31 38 48 49 53 57 58 57 58 58 57 57 59 61 64 61 62 62 61 60 59 61 59 57 56 59 58 58 58 59 60
45 48 47 46 46 48 48 44 42 39 36 26 35 34 36 40 46 51 56 59 60 59 57 60 61 59 61 63 61 60 60 61 61 60 60 59 57 56 57 57 57 58 58 59
40 42 46 49 42 45 43 38 23 22 28 24 39 34 39 48 53 51 52 56 57 59 58 58 58 56 59 61 59 59 59 59 60 60 60 59 58 59 57 58 58 57 57 57
31 30 43 48 44 40 38 38 27 22 25 29 40 30 37 49 52 53 54 56 55 54 57 58 59 57 58 60 59 58 57 57 59 59 59 60 57 59 60 59 59 59 59 59
32 33 43 47 46 46 37 33 39 31 31 25 32 38 46 50 49 50 51 52 54 54 54 58 62 60 57 60 59 57 59 60 59 60 58 59 61 57 60 60 59 59 56 58
41 33 43 44 48 46 43 44 30 33 25 24 30 32 34 41 45 48 48 49 53 54 55 60 64 60 58 59 60 60 61 60 58 60 62 61 60 58 59 58 56 55 55 57
43 39 37 43 40 37 38 35 35 36 33 27 24 29 44 43 46 46 49 52 53 52 56 59 59 59 58 60 60 59 59 59 59 60 59 59 60 58 60 59 56 56 55 56
44 38 32 37 44 47 43 38 37 27 27 33 32 32 46 47 48 48 48 51 53 52 53 56 57 57 55 57 58 58 58 58 59 59 59 59 60 58 59 59 59 59 57 56
44 35 30 33 39 43 39 40 43 39 35 31 28 30 47 48 48 48 47 51 51 50 50 52 53 55 55 55 56 56 56 56 58 59 58 58 57 56 57 59 60 60 60 60
47 37 34 27 31 38 35 40 41 38 30 33 33 34 43 46 46 48 48 50 49 48 47 48 48 49 51 52 53 54 55 58 57 57 56 56 56 56 56 58 60 60 60 60
42 32 36 37 38 38 37 37 38 36 36 32 36 36 42 46 48 48 48 48 48 46 45 45 44 45 47 48 50 51 52 54 58 58 57 57 57 57 57 58 59 60 59 58
41 31 33 32 38 36 33 37 37 38 40 39 41 39 48 50 51 49 49 47 45 45 44 43 43 43 43 44 45 46 46 48 51 51 50 51 52 57 57 58 59 59 59 60
36 33 30 29 33 33 29 33 38 39 40 39 33 41 48 45 47 49 46 45 43 42 42 41 41 41 41 41 43 43 44 45 45 45 46 47 48 49 49 51 50 50 52 57
34 33 30 26 30 19 36 44 43 40 43 44 44 45 47 43 42 43 46 43 41 40 39 38 38 39 40 42 43 43 44 43 42 41 41 41 43 44 45 45 45 45 47 48
38 32 26 23 25 31 37 41 39 36 38 43 42 46 45 43 43 39 41 41 39 38 38 37 37 37 38 38 43 43 42 40 39 38 37 37 39 38 39 40 40 42 43 45
34 34 29 25 22 16 33 41 45 43 32 40 42 44 43 45 38 35 39 40 38 39 39 36 36 36 34 35 40 40 39 39 36 36 35 36 36 35 35 35 35 39 41 42
27 28 28 25 26 29 39 41 45 29 30 40 41 44 43 37 39 37 38 36 36 36 35 36 35 32 32 34 37 35 36 36 37 35 34 34 34 35 35 34 35 36 38 38
28 25 24 29 25 21 39 40 33 38 41 41 41 39 37 36 35 34 33 32 33 32 32 32 31 30 32 33 34 32 31 36 36 34 32 32 33 34 34 33 33 34 34 33
23 31 30 30 30 39 40 38 41 42 38 40 39 39 36 33 32 31 30 31 30 30 30 32 31 30 31 31 32 29 30 35 33 32 30 30 30 30 32 31 31 31 31 30
31 36 31 32 34 36 37 38 38 36 35 36 37 35 35 32 32 30 29 28 28 28 28 30 29 28 28 30 30 30 30 34 32 30 29 30 29 27 27 29 29 29 29 29
32 34 30 32 33 35 34 35 36 34 34 33 33 33 32 31 29 29 27 27 27 27 28 28 27 26 25 27 27 28 29 31 30 30 29 28 27 28 26 26 26 27 28 29
32 29 26 28 31 32 30 32 33 30 29 30 29 27 29 29 27 27 25 26 25 25 26 25 25 25 23 24 23 24 27 29 29 27 26 24 24 23 24 23 23 28 28 30

GFSCGP_sfc_temp_093.txt.gz
Temp
53 47 44 48 51 52 51 49 48 52 57 54 55 56 60 62 63 62 65 67 68 69 75 75 73 72 70 70 69 69 61 62 61 59 59 60 61 62 63 64 66 64 62 61
47 43 51 53 52 51 50 48 48 52 55 54 54 53 59 60 62 65 65 67 68 69 71 72 72 68 68 68 69 66 62 61 61 62 64 65 64 63 64 63 63 62 61 60
46 49 53 50 48 46 48 47 46 48 52 53 51 51 57 63 63 64 65 67 68 68 69 71 68 66 67 67 67 65 62 62 62 63 65 64 64 61 61 62 64 62 61 61
44 53 49 47 47 49 42 51 50 48 46 41 49 39 51 57 58 60 62 63 64 67 70 71 69 66 66 67 68 66 63 62 62 63 62 64 62 60 63 64 62 61 61 60
45 46 46 43 47 51 47 51 50 48 45 42 43 39 48 54 53 54 58 59 62 65 68 69 70 69 68 68 67 65 63 62 62 61 63 63 62 64 65 63 60 60 61 60
49 54 51 50 48 52 51 48 45 44 42 34 41 40 43 49 51 54 56 58 58 61 62 68 71 69 68 68 67 64 63 61 62 61 63 63 61 61 63 61 59 59 59 59
44 47 50 51 45 49 48 43 34 31 31 34 42 39 44 51 52 52 53 55 58 61 61 62 67 66 66 66 64 64 63 61 61 60 61 61 60 62 64 62 60 59 58 58
37 33 46 50 48 44 44 45 36 28 30 34 42 37 45 52 56 58 57 58 59 60 60 62 64 67 66 65 64 63 62 61 61 61 61 61 61 65 66 64 62 63 59 59
36 37 48 49 49 51 42 39 44 36 35 33 38 44 51 53 54 55 55 57 57 58 59 60 64 66 65 65 63 61 62 62 61 62 61 60 61 64 64 62 62 61 61 60
44 35 44 46 51 49 47 48 36 35 27 25 36 37 41 48 49 52 53 54 53 54 55 59 65 65 65 66 63 61 61 61 61 62 61 61 62 61 64 64 63 60 60 61
47 43 39 46 44 41 42 40 39 40 36 30 28 37 48 48 49 50 51 50 49 50 51 58 64 66 64 65 62 60 61 62 63 63 62 64 64 61 62 62 61 60 62 63
46 42 35 38 46 49 46 41 41 36 30 35 33 36 50 50 51 52 52 50 49 49 49 51 57 61 61 60 61 60 61 61 63 64 63 63 64 61 61 63 62 62 63 64
45 38 32 33 42 47 42 44 44 40 37 32 31 38 50 53 53 53 49 49 47 47 46 47 49 49 55 57 57 58 59 60 61 61 61 61 61 60 61 64 62 61 63 63
46 40 37 32 35 41 38 41 44 41 32 35 36 40 47 49 48 51 47 48 45 45 44 44 44 45 46 47 49 51 55 59 60 60 59 59 59 59 62 64 65 63 63 62
44 34 38 39 41 41 40 40 41 38 40 34 40 41 46 49 47 49 48 48 44 43 42 42 41 42 42 43 45 46 48 51 58 57 57 58 60 61 62 63 64 64 64 64
44 35 38 36 39 40 37 41 40 41 42 41 43 41 52 50 50 48 47 45 42 40 41 40 40 41 41 42 42 44 44 45 47 47 47 49 51 51 51 52 56 59 59 60
39 37 35 31 37 37 33 38 41 42 44 44 39 46 51 43 41 43 43 42 39 38 37 37 38 38 40 42 43 42 43 43 41 40 43 44 46 46 46 48 49 48 48 51
37 36 35 30 33 22 39 47 46 43 45 45 46 49 49 43 40 39 41 40 38 37 36 35 35 36 38 41 42 43 42 41 39 38 40 41 41 42 44 44 44 44 46 47
41 37 31 28 29 34 39 42 41 40 41 42 41 46 46 43 42 35 38 39 36 35 35 34 34 35 36 39 41 42 41 40 38 37 39 39 40 40 41 41 41 42 44 44
38 38 34 30 25 22 36 42 47 45 36 41 42 47 44 45 39 33 35 34 34 35 36 35 35 34 34 36 39 39 38 37 35 36 37 39 39 38 37 38 38 41 42 40
32 32 29 28 27 33 38 42 46 33 34 41 41 39 40 33 35 33 34 32 33 35 35 36 35 32 33 35 37 35 36 33 35 37 37 37 38 37 37 37 37 38 39 38
31 29 27 30 26 23 40 43 36 39 40 40 39 37 34 33 32 31 30 30 31 32 33 35 33 32 33 33 34 32 32 35 36 35 33 33 34 35 35 35 35 35 35 34
30 32 30 32 31 35 37 36 37 39 35 36 36 36 35 32 30 29 28 28 29 31 32 33 32 30 31 32 31 30 32 34 34 33 32 32 32 33 33 32 32 33 33 32
34 35 32 32 33 32 34 36 35 34 31 33 35 34 33 30 30 28 27 27 27 29 29 31 31 29 28 30 30 30 32 34 33 31 31 32 31 31 32 32 32 31 31 30
33 35 30 32 33 34 33 33 33 32 33 31 31 33 32 32 29 30 28 28 28 28 29 30 28 27 26 28 28 29 30 33 32 31 30 30 30 30 29 29 29 29 29 30
33 30 28 28 31 31 29 31 31 29 28 28 30 29 29 30 28 28 26 26 26 26 28 27 27 26 26 26 26 26 29 31 31 30 29 28 28 28 28 28 25 27 28 29

GFSCGP_sfc_temp_096.txt.gz
Temp
58 51 49 56 58 59 58 56 55 61 66 62 63 65 70 74 73 72 74 76 78 80 85 88 88 88 85 85 83 81 78 71 67 65 64 63 64 65 67 73 69 70 65 63
53 49 58 61 59 54 49 48 53 61 63 61 62 62 69 72 71 72 74 76 78 80 83 84 86 87 83 82 81 80 79 69 69 72 73 70 68 68 70 69 68 68 65 61
51 55 59 56 53 49 50 51 52 53 61 63 60 57 63 71 74 75 76 76 76 76 76 79 81 83 83 80 80 80 79 68 69 75 74 70 71 69 68 67 64 61 61 61
53 59 53 50 51 52 48 58 56 54 52 48 59 49 59 65 67 70 68 68 70 72 74 77 80 81 83 80 81 80 76 67 68 72 73 72 70 67 69 67 71 63 63 61
48 49 50 47 51 56 52 59 54 55 53 52 53 48 57 63 60 63 66 66 69 71 73 74 76 80 84 83 79 78 70 66 67 69 74 72 73 75 70 69 67 64 62 63
53 59 56 54 56 58 59 54 54 53 51 41 51 51 54 59 58 59 63 66 68 70 72 74 77 78 81 83 78 74 65 65 66 69 72 72 72 72 69 67 66 60 60 59
50 52 55 56 47 54 55 50 38 37 37 39 51 48 56 58 59 60 61 65 68 68 69 70 73 76 79 78 76 70 64 64 66 67 69 69 72 70 70 67 65 61 59 59
41 37 50 54 51 48 49 49 43 32 36 43 50 44 54 61 64 65 67 67 67 66 67 67 68 71 76 77 76 68 65 66 66 66 67 67 72 65 72 69 67 63 62 60
42 42 55 55 56 55 48 45 52 41 41 40 49 52 58 60 63 64 65 65 64 64 65 63 61 71 75 76 75 67 66 69 65 66 66 65 68 64 69 71 71 69 65 61
50 39 50 50 57 55 54 57 42 44 31 33 44 46 50 54 56 60 61 61 61 61 59 55 54 69 76 77 75 66 66 66 63 65 65 64 64 65 69 71 67 68 68 63
54 49 43 49 49 48 48 47 48 49 45 38 38 44 55 54 57 57 58 57 58 56 55 49 50 61 74 76 70 64 64 64 62 64 65 64 64 64 66 69 67 67 64 64
50 48 40 45 51 58 56 51 50 42 36 42 41 46 58 58 59 58 54 55 56 54 53 47 47 50 63 66 62 62 63 61 62 63 64 63 64 64 64 65 67 67 64 65
50 45 36 37 47 53 49 50 51 48 47 37 37 45 58 61 59 58 47 49 52 52 49 44 45 45 47 49 58 61 60 61 63 63 63 64 65 64 63 63 68 67 67 66
51 46 42 38 42 49 43 47 50 47 42 42 44 47 55 56 53 56 46 47 48 49 44 40 40 43 44 45 46 48 54 59 61 62 63 62 63 63 63 65 68 64 65 67
48 41 45 47 48 49 47 46 47 45 46 40 46 47 53 52 50 52 46 45 44 44 41 37 37 39 42 43 43 44 45 47 54 55 55 58 61 63 63 66 67 66 64 64
43 39 45 40 46 46 43 46 47 47 47 47 48 49 57 54 50 42 42 41 40 37 37 37 36 37 40 41 42 42 41 42 44 44 44 47 49 51 51 52 52 56 57 59
43 42 41 36 43 43 38 43 46 48 50 49 44 51 58 48 43 40 39 39 37 36 36 33 33 34 38 41 41 39 40 41 41 42 42 42 44 45 45 47 48 48 49 50
43 42 43 37 39 28 43 52 52 48 49 50 51 53 51 44 39 38 39 38 36 35 34 32 32 33 35 39 41 40 40 39 40 40 39 41 41 41 43 43 44 46 45 43
48 44 37 34 36 40 42 45 44 43 44 47 45 50 44 43 42 35 35 35 34 33 34 36 35 33 34 37 40 41 39 38 38 38 38 42 39 38 40 40 42 43 42 40
46 46 42 37 30 27 39 48 53 51 40 43 43 45 45 43 39 33 33 32 33 34 37 38 40 37 36 35 38 38 37 37 36 36 37 41 40 40 39 40 42 42 41 39
38 37 34 33 32 37 41 49 53 37 34 42 41 37 35 31 31 32 33 31 32 38 38 40 41 39 37 38 39 37 35 33 35 37 39 38 38 37 39 40 41 42 41 40
37 35 34 35 31 27 36 47 38 35 39 39 37 36 33 32 31 30 30 29 32 37 37 39 37 36 37 37 37 35 34 38 38 36 35 36 35 37 38 38 39 40 40 38
32 34 32 32 29 34 35 33 34 36 34 35 36 36 35 32 30 30 29 29 29 32 36 38 36 35 35 35 36 33 34 37 37 38 36 36 36 35 36 35 36 36 37 36
36 40 34 33 32 33 34 35 34 34 33 33 35 35 34 32 31 29 30 30 31 34 35 38 37 35 33 34 33 33 36 37 36 35 36 36 33 34 35 35 34 34 34 33
39 40 33 32 34 36 35 34 35 34 35 34 36 36 36 37 35 36 34 34 34 35 36 36 34 33 32 33 33 34 35 38 36 34 33 34 34 31 30 29 30 30 29 30
37 31 32 31 32 33 30 32 32 31 31 34 36 34 36 36 34 34 32 33 33 32 34 34 33 32 31 32 31 32 34 36 36 34 34 33 34 34 33 30 27 27 27 29

GFSCGP_sfc_temp_099.txt.gz
Temp
59 53 50 57 60 62 57 57 54 62 70 67 66 67 73 78 78 77 78 80 81 83 88 91 91 92 92 91 90 89 85 81 73 70 69 68 69 67 72 71 76 77 75 71
55 49 60 64 64 59 56 42 48 60 66 66 66 64 72 76 77 78 78 78 81 83 86 88 90 90 90 89 87 87 86 83 75 71 73 74 73 71 76 75 76 76 75 72
51 57 63 61 60 55 52 46 50 53 59 62 62 59 63 72 75 78 79 80 82 82 81 83 84 86 88 88 86 87 87 85 75 74 77 78 76 73 72 70 75 72 72 70
56 63 60 58 56 59 48 58 54 53 49 43 63 48 63 68 71 74 76 75 76 77 79 80 81 82 85 86 88 86 87 86 75 77 79 77 75 70 73 74 75 69 67 63
52 57 57 55 56 59 54 60 55 53 53 53 54 51 59 68 64 70 71 72 73 75 76 77 79 82 84 86 87 85 85 86 73 77 80 77 76 76 76 76 71 63 63 64
55 65 62 59 60 59 60 55 56 56 53 42 53 53 53 58 64 66 68 70 72 73 74 76 78 80 82 85 85 84 82 80 73 73 78 76 76 77 75 73 67 65 62 60
49 48 62 61 54 56 54 48 37 34 37 39 56 51 56 64 65 64 65 69 72 73 72 72 73 75 75 79 83 83 81 73 70 68 76 77 77 77 75 72 68 63 60 60
38 37 52 57 53 48 51 49 38 31 34 41 55 46 56 68 68 69 69 70 70 71 70 69 69 68 70 76 81 82 79 70 67 67 75 77 78 77 76 73 69 66 61 61
40 41 53 57 59 57 50 45 54 41 47 44 50 55 61 66 66 67 67 66 62 67 66 65 64 63 68 67 79 80 71 68 66 66 73 75 76 75 75 72 70 67 66 63
53 37 52 55 60 59 54 57 43 47 33 35 47 49 47 54 57 63 63 62 60 64 63 60 58 56 61 63 80 79 69 67 66 66 69 72 75 73 74 71 67 67 69 64
55 47 46 53 49 49 52 48 51 51 46 37 35 43 58 57 60 60 59 59 59 59 57 54 50 50 55 56 79 72 68 66 64 64 65 67 73 72 72 70 70 67 67 65
56 48 41 46 58 55 57 51 51 41 40 45 42 41 61 62 63 59 58 56 58 56 54 51 45 45 47 47 56 65 65 63 64 63 64 64 67 70 67 67 70 69 68 68
53 47 39 39 49 53 51 53 56 52 48 42 38 41 63 63 59 54 52 49 51 52 52 48 42 41 43 44 46 51 61 61 62 63 63 63 64 66 65 66 67 67 66 66
50 49 46 38 43 51 46 52 53 51 44 45 47 50 55 53 52 46 44 44 45 45 47 46 40 39 41 42 43 44 47 53 60 61 62 63 63 64 64 67 68 67 68 67
46 38 39 49 54 53 50 48 50 47 50 43 48 50 49 48 45 43 43 42 41 40 40 40 38 38 38 39 40 41 42 44 48 49 51 55 62 63 64 63 66 68 68 67
46 41 45 44 51 51 47 50 50 50 50 50 51 47 56 52 49 43 40 38 37 37 36 36 36 37 37 38 38 39 41 41 43 42 43 47 49 49 50 52 53 61 59 58
44 44 41 37 47 48 39 47 50 52 53 52 45 49 54 45 40 38 38 37 36 36 35 33 33 33 35 35 37 36 37 40 41 41 41 42 44 45 45 47 47 46 45 45
44 45 45 38 42 32 46 56 55 51 50 51 53 51 52 41 35 35 36 35 34 35 36 34 32 33 33 36 37 36 38 37 38 37 38 40 41 41 43 43 43 41 41 39
50 46 41 38 39 43 46 48 48 47 41 49 48 49 44 39 37 32 34 34 34 34 41 41 39 33 33 33 35 37 36 36 36 33 34 37 38 38 41 40 40 39 37 36
51 50 45 41 35 29 36 47 55 55 38 45 48 44 40 40 36 30 33 33 34 37 42 41 42 40 38 36 35 35 35 34 33 33 35 34 36 37 37 38 38 38 36 35
41 41 37 39 37 37 36 46 52 39 31 42 43 40 36 31 31 32 33 32 34 43 44 44 42 39 38 40 37 34 35 32 32 35 37 36 34 37 39 39 39 39 38 38
38 34 36 39 36 29 37 46 36 32 36 38 39 39 35 34 33 32 32 31 32 35 43 44 42 38 38 38 38 34 33 37 37 36 35 38 38 38 40 38 37 39 39 38
34 37 33 32 29 34 37 35 36 37 34 35 36 38 38 34 31 31 30 31 33 40 43 45 43 39 38 37 37 35 34 36 38 36 34 32 36 36 36 36 37 36 36 35
40 46 34 33 33 35 37 39 38 37 34 36 39 39 40 35 34 33 34 36 38 41 41 43 41 39 37 38 37 36 38 39 36 36 36 34 32 32 32 34 32 30 32 32
40 43 37 32 35 36 37 36 37 38 40 40 41 41 41 41 40 41 40 40 40 41 41 41 38 36 36 36 35 37 38 40 39 37 36 34 33 31 28 27 29 29 28 29
40 33 33 30 33 34 32 34 36 34 34 39 40 40 41 41 40 40 38 38 38 37 37 37 36 34 33 33 31 32 35 37 37 35 35 34 35 35 34 30 26 28 28 29

GFSCGP_sfc_temp_102.txt.gz
Temp
58 50 45 50 54 56 56 55 55 61 61 60 61 65 70 75 76 75 78 79 80 82 86 87 86 85 84 83 83 81 77 74 70 69 69 69 68 68 69 71 73 71 70 69
51 40 52 56 56 55 55 53 53 54 59 58 57 55 65 73 74 76 77 77 78 80 83 84 84 82 81 81 81 81 79 77 73 71 71 69 69 69 69 70 71 71 70 69
45 50 56 55 53 52 54 52 49 49 54 47 48 45 57 69 75 78 78 79 80 79 79 82 81 78 78 79 78 81 81 79 75 72 71 70 70 69 67 69 70 70 70 69
49 57 52 53 51 55 49 60 55 52 40 36 55 38 56 65 66 70 74 75 76 78 78 78 78 78 77 77 78 80 80 80 77 72 70 69 69 67 67 69 70 69 68 66
46 51 49 50 53 59 54 61 55 53 44 41 45 38 50 64 62 65 71 73 72 73 74 74 75 77 79 78 76 76 78 80 76 71 71 71 71 70 70 69 69 65 65 64
51 60 50 55 60 61 62 51 50 49 45 31 42 43 49 57 62 66 69 70 71 71 71 72 73 74 74 74 72 75 77 79 74 72 72 72 71 70 69 69 66 63 62 62
47 47 53 61 54 59 56 46 34 31 29 31 50 47 51 61 66 66 66 68 68 67 66 67 67 67 66 67 69 72 77 77 72 71 72 73 72 72 70 69 66 62 60 59
39 31 43 57 56 51 50 48 36 28 30 36 50 38 46 62 67 68 68 64 65 66 64 63 62 61 59 62 63 67 63 77 71 69 71 74 74 73 71 69 68 64 61 60
34 33 53 59 60 57 49 43 52 35 41 33 42 42 53 58 63 63 62 61 61 62 60 59 57 54 52 56 57 58 59 73 68 67 68 71 72 72 70 68 67 64 62 61
42 33 52 54 58 57 51 54 35 35 29 27 41 43 42 49 55 58 56 56 55 57 56 55 51 48 49 51 52 56 66 68 66 66 67 68 71 70 70 68 65 65 62 62
47 43 45 49 39 44 46 39 41 42 42 32 32 34 45 47 52 53 52 51 51 52 52 50 47 46 46 47 48 49 66 68 65 65 65 64 66 68 68 67 66 65 63 62
55 46 38 44 48 55 52 46 46 34 39 40 34 33 51 52 55 51 49 48 49 48 48 47 45 43 43 42 44 45 47 63 64 63 62 62 64 67 67 66 65 64 63 62
48 44 31 38 47 46 46 49 52 49 41 41 35 34 54 51 47 47 44 44 45 45 44 43 42 41 40 40 41 42 44 46 60 61 61 61 61 63 64 65 66 64 64 63
49 44 37 34 41 42 37 40 45 47 35 40 38 38 45 45 43 43 42 42 43 42 41 40 39 39 40 39 39 39 41 43 47 60 60 59 59 61 62 64 65 64 64 63
44 33 39 42 47 48 42 41 44 47 48 34 43 41 42 42 41 40 40 40 39 39 38 37 37 38 38 38 38 38 39 41 43 45 46 49 55 60 61 62 64 64 64 63
43 34 34 34 49 44 41 48 48 50 50 49 44 37 46 44 42 38 38 37 36 36 35 35 35 36 36 36 37 37 38 39 41 40 41 43 46 48 50 51 54 53 52 52
39 40 37 35 47 45 36 46 48 46 47 45 36 40 45 37 35 34 35 35 34 36 36 33 33 33 34 34 35 35 36 38 38 38 39 40 42 43 44 44 44 44 44 43
41 42 43 36 40 26 43 53 48 44 44 47 47 44 39 34 33 34 34 34 33 36 38 36 33 33 33 34 34 34 36 36 36 36 37 39 39 40 40 40 39 38 39 39
50 43 38 34 35 39 43 43 40 38 34 43 44 43 40 36 34 31 33 35 35 35 41 41 39 35 35 34 33 33 33 34 35 33 35 36 38 37 37 36 36 36 36 35
51 49 41 40 33 26 33 41 49 49 29 39 42 40 39 39 34 29 32 33 35 40 43 42 42 40 38 37 36 33 32 32 32 33 33 34 36 36 35 33 34 35 33 33
39 39 35 37 35 32 36 43 47 34 27 38 39 37 35 30 31 32 33 33 34 38 44 44 41 37 37 39 37 34 33 32 32 33 34 33 33 33 33 33 34 33 33 33
34 32 32 34 31 25 38 42 32 31 35 36 37 36 34 33 32 32 31 31 34 38 43 43 40 38 38 38 38 34 32 35 34 33 33 33 33 32 33 33 33 33 33 33
32 37 33 31 28 34 37 35 36 37 34 35 36 39 37 33 31 31 31 32 35 40 42 42 40 37 37 38 37 34 36 36 36 33 30 29 29 31 31 29 29 32 33 32
41 46 34 33 33 34 36 38 38 38 36 40 41 41 40 35 35 34 36 37 38 40 40 40 38 35 33 35 35 35 38 39 37 34 32 29 27 27 28 29 29 28 28 28
41 43 37 32 35 36 35 36 38 39 41 41 43 42 42 41 39 39 38 39 38 38 38 37 34 33 32 32 32 34 35 38 37 35 34 32 31 28 26 26 26 27 27 29
39 33 32 29 33 34 31 34 37 36 38 41 41 41 41 41 39 38 36 36 36 35 35 33 32 31 30 29 29 30 33 34 33 32 32 32 32 31 28 25 24 29 28 30

GFSCGP_sfc_temp_105.txt.gz
Temp
50 41 39 41 45 46 45 44 44 50 58 53 52 55 56 65 67 67 68 71 72 74 77 79 75 75 73 71 74 73 69 67 67 67 64 67 64 64 63 64 67 67 66 66
41 36 46 51 50 46 44 42 42 50 58 48 43 44 50 53 57 61 68 67 65 70 70 77 73 71 71 72 70 71 69 66 67 68 68 66 69 66 69 64 64 65 66 65
38 40 50 49 47 40 43 41 43 44 47 47 43 41 46 56 61 66 70 74 71 70 71 70 70 67 67 68 68 70 70 67 67 68 68 64 64 66 65 67 66 63 64 65
41 47 45 45 42 42 38 49 49 48 40 33 43 31 44 52 57 64 68 69 70 68 67 67 65 65 66 66 67 68 70 68 67 67 67 66 64 64 66 67 66 63 64 63
36 43 43 43 47 47 42 51 49 50 36 37 36 33 39 52 51 61 66 65 64 65 63 62 61 63 63 63 64 66 66 67 69 68 68 66 64 65 63 65 66 63 62 63
39 51 48 46 51 49 50 46 45 41 40 26 38 37 40 47 52 61 60 60 60 60 58 58 59 58 56 58 59 61 63 64 67 67 67 66 66 65 63 63 62 60 61 60
41 44 51 51 41 46 49 41 25 27 24 25 43 36 43 55 60 58 57 58 57 55 54 53 52 51 51 52 54 57 56 58 60 66 66 67 67 66 65 64 62 60 60 60
32 28 45 50 46 40 41 39 27 23 24 29 45 36 43 57 56 57 57 53 54 52 51 49 48 48 48 50 51 50 51 52 56 64 67 68 68 67 67 66 62 61 60 60
31 31 45 48 51 49 43 37 43 34 34 27 36 41 52 54 48 51 48 48 47 48 48 46 45 45 46 47 48 48 48 49 54 60 66 66 64 69 66 65 62 60 60 59
36 28 44 50 53 51 46 50 31 31 26 25 34 36 37 41 41 44 44 43 43 43 43 43 43 43 46 46 46 47 48 50 57 63 62 63 62 64 66 66 61 60 59 60
40 33 39 47 41 41 42 35 38 39 35 27 28 31 41 42 42 41 41 41 41 41 42 42 42 43 44 44 43 43 45 48 55 60 60 60 61 62 65 64 61 59 59 60
43 38 34 40 46 50 46 41 40 32 31 33 32 30 43 43 43 43 42 42 42 43 42 42 41 41 42 41 41 41 43 44 48 52 59 59 60 62 64 63 62 60 59 61
41 38 30 32 41 40 39 45 45 43 39 32 28 29 44 43 41 41 39 40 41 41 40 40 40 39 39 40 40 40 41 42 45 48 59 60 60 61 63 63 62 61 60 60
45 40 33 28 33 41 37 42 43 38 33 33 34 34 39 40 38 38 38 39 39 38 37 37 36 36 38 38 39 39 39 41 42 45 47 50 58 59 61 62 62 62 61 60
39 32 34 37 40 39 36 36 37 38 40 33 34 34 37 37 37 37 38 37 37 36 36 35 34 35 35 36 37 39 39 39 41 41 41 44 48 53 55 56 61 61 61 61
41 32 34 34 36 38 33 37 41 38 38 38 37 35 38 39 38 36 35 36 36 36 35 35 34 34 34 34 35 36 36 38 39 39 40 41 43 44 45 46 47 50 49 48
37 34 32 28 41 41 30 36 37 37 39 39 32 36 37 33 32 32 33 33 34 36 36 33 32 33 34 34 34 33 34 37 37 36 37 39 40 40 41 41 40 40 41 40
39 37 37 31 36 25 32 41 40 34 36 40 39 36 34 32 31 32 33 33 34 35 36 33 33 33 33 34 34 34 34 34 35 35 35 36 39 39 39 39 38 36 37 36
47 39 32 30 28 33 36 36 34 35 30 37 36 38 34 34 35 29 32 34 34 34 36 35 36 34 34 34 34 34 33 33 32 32 32 33 34 36 37 36 37 37 35 34
46 43 35 32 28 23 31 35 41 42 25 36 36 34 34 37 29 26 31 32 34 36 39 36 35 36 36 36 35 34 32 31 31 32 32 32 33 33 33 33 34 35 34 32
32 31 28 29 27 29 32 37 41 29 25 36 35 33 31 27 28 30 32 32 34 40 40 37 35 34 35 37 36 32 32 29 31 32 31 31 32 32 32 32 33 33 33 33
29 28 25 28 25 21 35 36 29 31 35 35 35 34 32 32 31 31 32 32 34 38 39 37 34 32 34 35 35 31 31 34 33 31 29 28 30 30 30 30 32 32 33 31
27 33 26 28 27 33 36 33 35 36 34 35 35 36 36 33 31 27 30 32 32 35 34 35 32 31 31 32 32 30 33 35 33 31 28 27 28 28 29 28 28 29 29 29
37 40 28 30 31 32 34 36 36 37 35 37 39 39 38 34 34 33 33 30 32 33 32 32 31 29 28 30 30 30 32 36 34 31 29 28 27 27 27 28 28 28 27 26
34 37 33 30 32 33 34 33 35 37 40 41 41 39 39 39 36 36 34 33 32 31 32 31 29 28 27 28 28 30 31 33 33 31 31 28 27 26 26 27 26 27 27 28
35 31 29 26 33 32 31 33 36 35 36 38 37 34 33 35 33 31 29 29 29 28 29 28 27 25 26 26 25 27 30 31 30 29 29 29 28 26 25 24 24 30 29 30

GFSCGP_sfc_temp_108.txt.gz
Temp
44 36 33 38 42 44 40 38 36 41 48 48 48 50 50 51 59 64 64 61 68 69 71 73 75 71 69 65 71 71 69 68 68 66 65 64 65 64 64 65 66 65 66 65
38 34 42 45 43 41 41 37 34 43 49 47 44 42 48 51 54 54 56 57 59 64 71 74 72 65 62 63 70 70 69 67 68 70 69 67 67 65 65 64 65 66 65 65
34 39 48 44 41 37 39 38 37 36 44 49 44 41 46 55 56 59 60 61 63 65 62 63 61 59 60 60 61 66 66 66 69 70 67 63 62 62 62 62 63 64 65 65
39 46 44 41 39 40 32 44 39 37 37 31 41 28 40 47 50 57 60 58 59 58 58 57 55 54 54 56 59 61 65 66 66 65 66 65 65 63 66 67 65 64 64 64
36 40 39 37 40 45 39 46 39 40 37 35 37 31 36 47 46 51 55 54 53 53 52 50 50 52 52 53 53 57 57 61 63 64 65 64 66 66 62 63 63 64 63 63
39 47 42 41 47 48 48 41 42 39 36 26 37 32 35 44 47 51 50 50 49 48 47 48 49 50 49 50 50 53 52 55 57 60 65 66 64 62 62 62 62 64 64 63
38 38 44 48 42 43 42 36 23 21 22 25 39 33 40 48 51 50 45 44 45 45 43 43 43 43 46 47 47 50 49 49 52 53 61 65 64 64 63 62 62 61 61 61
30 27 42 47 41 38 36 37 27 21 24 29 41 32 39 44 45 45 45 43 43 41 41 41 42 43 43 45 45 45 46 48 50 50 55 65 66 64 64 63 63 62 61 61
29 31 45 48 48 44 38 34 41 35 32 25 34 40 43 44 42 40 39 40 39 40 41 41 42 42 43 43 43 43 45 46 49 50 52 62 66 63 64 64 62 61 61 60
36 27 42 47 47 45 41 44 33 29 19 16 31 33 34 35 36 37 37 38 39 40 40 40 41 41 42 42 43 43 45 44 47 49 54 62 65 64 64 63 61 61 60 59
40 32 37 44 39 37 39 35 37 39 34 24 25 28 38 35 36 34 35 37 38 38 39 39 40 41 42 42 42 42 43 43 45 48 55 61 61 60 61 62 61 61 60 59
43 34 31 37 45 44 43 40 41 30 29 32 31 26 35 37 37 37 36 38 38 38 38 38 38 39 39 39 40 41 41 42 44 46 50 59 60 59 59 60 60 61 59 59
41 36 28 34 38 41 38 43 43 39 35 31 28 27 38 39 37 38 35 37 37 37 37 37 37 37 37 38 39 38 40 41 43 44 45 48 50 59 59 60 59 60 59 59
43 37 32 26 32 34 33 39 40 37 32 31 31 31 34 35 35 35 36 37 37 37 36 36 35 35 36 37 37 37 37 40 41 42 43 43 44 48 57 60 60 60 60 60
39 31 33 35 35 37 35 34 36 35 34 31 31 30 33 34 34 35 36 37 37 35 35 34 34 34 34 35 35 36 37 37 40 39 39 40 42 44 46 51 60 60 59 59
40 31 32 32 35 36 32 33 35 35 34 34 33 29 34 35 35 33 34 35 35 34 32 33 34 34 34 34 34 35 35 36 38 38 37 38 40 41 41 42 44 46 46 46
36 34 32 29 35 34 27 30 32 32 35 35 30 32 33 30 30 30 32 33 33 33 32 30 31 32 33 33 34 33 34 36 35 35 37 37 37 37 38 39 38 38 39 41
36 37 35 30 32 21 29 35 36 32 33 35 35 33 32 30 30 31 33 32 32 33 32 31 30 32 33 34 34 34 34 34 34 33 34 35 36 35 36 35 34 34 35 35
44 37 31 28 28 29 33 33 30 32 29 33 33 33 32 31 33 28 32 33 33 33 33 32 33 33 34 33 34 32 31 30 31 30 31 32 34 34 34 34 33 33 33 32
43 40 32 30 25 21 28 33 39 38 25 33 33 31 31 34 26 26 31 32 33 34 33 32 32 35 33 34 34 33 29 28 27 28 29 31 31 31 32 32 32 32 32 32
31 31 27 27 26 28 30 34 40 28 24 34 33 31 30 27 27 30 32 32 32 35 34 33 31 30 32 33 33 31 30 26 27 29 29 29 30 30 30 32 32 32 32 31
29 27 24 27 23 20 33 34 28 31 34 35 33 33 31 31 31 29 31 28 31 31 31 31 29 28 31 31 30 30 29 31 30 28 27 27 28 28 29 29 30 30 30 29
27 30 26 28 25 32 34 33 35 36 34 34 34 35 35 33 31 28 26 26 28 29 29 30 28 28 29 29 29 28 30 32 31 29 27 27 28 28 28 28 28 27 28 27
35 37 27 27 30 31 33 35 35 36 34 36 38 37 37 34 33 28 28 27 27 28 27 27 27 27 26 27 28 28 30 33 31 28 27 27 27 27 27 28 29 27 26 26
31 35 32 29 31 32 32 32 34 36 39 36 34 33 35 31 29 28 27 27 27 26 26 26 24 24 24 26 26 26 29 30 30 30 29 26 26 25 26 27 26 27 28 28
34 30 29 26 32 32 30 32 36 33 31 33 31 29 30 30 27 27 25 26 25 24 25 23 23 23 22 23 23 24 25 28 28 28 28 27 25 24 24 24 24 30 29 30

GFSCGP_sfc_temp_111.txt.gz
Temp
42 33 29 35 37 39 37 35 33 38 41 41 41 42 46 52 54 53 53 60 60 66 67 67 67 64 62 64 69 69 67 67 68 66 65 64 64 65 64 65 66 66 65 64
36 32 41 44 42 39 37 33 34 39 44 40 39 39 46 51 52 56 56 55 55 57 63 60 57 57 56 55 60 65 67 66 68 67 68 67 67 64 65 65 64 66 65 65
33 39 46 42 39 37 36 33 33 33 41 44 40 33 41 51 53 56 56 57 56 54 53 55 53 50 51 51 53 61 64 66 67 67 67 63 63 62 60 64 64 64 65 65
36 43 41 39 37 39 30 41 39 36 32 24 39 24 39 45 48 52 55 50 48 48 48 49 49 48 48 48 51 55 63 66 67 67 67 64 66 64 64 64 66 66 65 64
36 38 37 35 38 42 36 43 40 39 35 30 31 26 33 43 42 44 45 45 44 44 44 44 46 46 47 47 47 52 55 56 57 64 66 65 64 66 61 62 61 63 64 64
38 43 40 39 44 43 46 40 39 37 32 22 31 31 32 38 42 40 41 40 41 41 41 42 44 46 45 45 45 48 50 52 53 54 59 64 64 64 61 62 61 61 62 63
37 37 40 45 37 42 39 33 22 22 15 21 36 31 36 39 41 41 39 39 40 40 40 39 39 41 42 42 43 46 46 48 49 51 53 57 64 62 63 63 64 62 61 61
27 29 41 46 41 37 35 34 26 17 22 28 39 28 33 39 40 41 41 40 40 40 41 41 41 41 41 42 43 43 44 46 48 49 50 52 57 64 63 62 63 63 63 64
30 28 43 46 47 42 37 31 41 30 33 27 33 35 37 38 36 35 36 38 37 38 39 39 41 41 41 42 42 43 44 46 47 48 50 52 53 63 65 62 62 62 62 61
36 28 40 44 46 43 40 43 32 31 22 14 30 29 28 31 33 33 32 34 36 37 38 39 39 40 41 41 42 43 43 44 46 46 48 51 54 60 65 65 61 61 61 60
40 32 35 43 38 33 36 34 36 37 31 20 20 25 34 32 33 32 32 33 34 35 35 36 38 39 40 41 40 40 41 42 43 45 46 49 56 61 64 63 62 61 61 59
42 35 29 36 44 44 40 39 39 28 28 31 28 25 34 35 35 34 33 33 34 36 37 36 37 37 37 38 39 39 39 40 42 44 45 46 48 51 60 61 61 60 60 60
40 35 27 32 37 40 36 39 42 38 36 29 25 25 36 36 35 35 34 33 35 36 36 36 36 35 36 36 37 38 38 38 41 42 43 44 44 46 48 53 60 60 60 59
42 36 31 26 30 35 32 36 40 36 30 28 28 28 32 33 32 34 34 35 34 34 35 35 34 35 35 36 36 36 37 38 39 41 40 41 41 43 44 46 49 59 60 59
39 30 33 33 34 34 32 33 37 34 33 28 28 27 30 31 32 33 35 35 33 32 32 33 33 33 34 34 35 35 36 37 38 37 38 38 40 41 41 41 41 44 58 59
40 30 32 30 32 32 28 31 31 33 32 31 30 27 32 33 33 32 33 34 31 30 30 31 33 33 33 33 33 34 34 35 36 36 35 37 39 39 39 39 39 38 39 43
34 32 31 27 36 33 26 28 29 31 32 33 28 30 31 29 29 29 31 32 30 29 29 29 30 32 32 32 32 31 32 33 33 33 35 35 37 37 37 37 37 36 35 35
34 33 33 29 31 20 28 33 34 31 31 33 33 30 30 29 29 31 32 32 30 29 28 29 30 31 32 33 33 31 31 31 31 31 32 33 34 35 36 35 34 34 34 33
41 35 31 28 26 28 30 30 29 30 27 32 32 32 31 31 32 28 32 32 31 29 30 29 32 31 31 31 33 29 29 29 29 28 29 30 32 33 33 33 33 33 33 32
40 37 31 30 24 20 26 32 37 37 24 32 31 30 30 33 25 24 31 32 32 31 30 29 30 31 30 30 32 29 26 26 25 26 27 28 29 29 31 31 31 32 32 31
30 30 26 27 25 26 30 33 37 26 24 33 32 30 28 26 26 30 30 27 29 30 30 30 28 28 29 29 31 30 28 25 25 26 27 27 27 28 28 30 30 30 30 30
28 26 24 27 22 18 31 34 28 31 34 33 33 32 30 30 29 27 25 23 26 26 28 28 26 26 28 28 29 29 29 29 29 27 26 26 26 27 27 27 27 28 29 29
26 29 26 26 24 31 34 32 34 35 32 34 33 35 34 30 26 22 21 23 25 25 25 27 26 25 26 26 26 27 28 31 30 28 26 26 27 27 27 26 25 26 28 27
33 36 27 26 30 31 32 33 34 35 32 32 36 36 34 28 26 24 24 24 24 24 23 25 24 23 23 25 26 26 28 29 30 29 27 26 25 26 27 28 28 27 26 26
32 34 30 28 30 31 31 31 33 34 34 31 32 31 30 28 26 26 24 24 24 23 23 23 23 23 21 23 23 23 26 28 28 28 28 26 25 24 24 26 26 27 28 29
33 30 27 21 31 30 28 32 33 31 30 30 28 26 27 27 25 24 23 24 22 22 23 21 21 21 20 21 20 21 23 26 26 27 26 26 24 23 23 21 22 28 28 30

GFSCGP_sfc_temp_114.txt.gz
Temp
40 32 29 33 35 38 36 33 29 36 43 39 38 38 42 46 48 48 50 53 56 57 65 60 58 56 59 60 67 69 66 66 67 67 66 66 65 65 65 65 65 65 64 64
34 29 40 42 40 36 34 31 30 37 43 40 37 36 42 45 46 48 49 52 55 54 53 54 51 49 49 50 54 62 66 66 67 69 69 67 68 68 67 66 65 65 64 64
31 37 44 40 37 35 34 31 32 32 38 40 36 32 37 45 48 50 53 56 50 49 47 49 49 46 45 45 48 54 63 65 67 68 67 63 64 63 63 65 64 64 64 64
34 41 39 37 34 36 27 39 37 35 32 23 36 21 34 41 43 47 42 40 40 41 43 44 44 44 43 44 48 50 56 63 66 68 67 66 65 64 66 66 66 65 64 65
34 36 35 34 35 39 34 41 37 36 32 30 30 25 29 43 42 38 38 39 39 39 39 39 41 43 43 44 46 48 54 54 54 57 67 66 65 64 62 63 65 65 65 65
36 42 39 37 41 41 43 37 36 35 29 21 30 27 27 34 37 38 39 39 40 40 40 41 42 43 42 43 45 48 51 51 52 53 55 62 65 64 61 62 63 64 64 64
36 36 38 42 35 39 37 31 21 20 21 21 33 26 29 35 38 37 37 38 39 40 40 40 40 41 43 43 44 46 47 48 50 51 52 53 55 65 63 62 63 63 63 62
28 25 36 42 38 37 33 33 26 18 20 26 35 27 28 35 37 37 38 38 39 38 39 39 40 40 41 42 42 44 45 46 48 49 50 53 54 55 63 63 63 62 63 63
27 26 40 44 45 41 34 29 39 28 30 25 30 31 34 37 34 34 33 36 36 37 38 38 39 40 40 40 41 41 43 44 46 47 49 50 52 54 57 63 62 61 61 62
33 28 38 42 42 42 39 42 29 29 22 20 27 26 25 29 30 31 31 32 34 36 36 37 38 39 40 40 41 42 42 42 44 45 47 49 50 54 55 60 62 62 61 60
38 32 34 39 36 33 34 32 35 34 30 23 20 23 33 30 31 30 31 32 33 34 34 35 36 37 39 40 40 39 40 40 42 43 45 46 47 49 54 59 63 62 62 60
38 34 27 33 44 43 39 36 37 29 27 30 27 22 33 34 33 33 31 31 32 33 33 33 34 35 35 37 38 37 38 38 40 42 43 44 45 46 47 49 50 62 61 61
37 33 26 29 35 39 35 38 40 38 35 27 24 23 35 35 33 33 30 31 31 32 33 34 33 34 35 35 36 36 37 37 39 40 41 41 42 43 43 44 46 48 60 60
42 35 31 24 28 31 29 35 38 36 28 26 26 26 29 31 30 32 31 31 32 31 32 32 32 33 34 34 34 34 35 36 38 38 38 38 39 40 41 42 43 44 46 54
38 31 32 32 32 32 29 31 33 30 31 25 25 25 27 29 30 31 31 32 30 30 31 31 31 31 33 32 33 33 33 34 36 36 36 37 38 39 40 40 41 42 41 42
38 30 32 31 34 33 27 29 31 31 31 28 28 25 30 31 31 30 29 30 28 28 29 30 31 31 31 32 31 31 31 33 35 34 34 36 37 37 37 38 38 39 39 39
33 33 30 27 34 32 25 26 27 29 31 31 26 28 30 27 28 28 29 28 27 28 28 28 28 29 30 31 30 29 30 32 32 32 33 33 35 35 35 36 36 35 36 37
32 33 33 29 30 20 27 35 34 30 29 32 30 29 30 28 28 29 30 28 27 27 27 27 28 29 29 31 29 29 30 29 29 29 30 31 32 33 34 34 33 33 33 33
38 33 30 27 25 27 30 29 28 28 26 30 31 31 31 31 31 27 30 29 27 26 27 27 29 28 27 29 30 28 26 26 27 26 27 28 30 30 31 31 31 32 32 31
37 36 30 28 24 18 25 31 36 35 24 31 31 29 30 32 24 23 26 27 26 27 27 27 27 27 28 29 32 29 26 25 24 25 25 26 28 28 28 29 29 31 32 31
29 30 26 26 24 25 29 32 36 25 22 31 30 27 27 25 25 26 26 24 26 27 27 28 26 25 26 28 31 29 29 24 26 26 26 26 26 27 27 28 29 30 30 31
26 25 24 27 23 20 32 33 28 30 32 32 31 31 28 26 25 23 22 21 23 23 24 26 24 24 25 26 27 27 26 30 29 27 26 26 26 26 27 26 26 27 28 29
26 29 26 26 24 31 33 31 33 33 33 32 33 32 29 25 21 20 18 19 22 22 22 24 23 23 24 24 24 24 26 29 31 28 26 25 27 27 27 27 27 27 26 26
32 35 27 27 29 30 31 32 34 33 30 33 36 32 28 25 24 21 22 22 22 21 21 22 22 21 21 23 24 24 26 29 29 29 27 27 25 25 28 28 28 28 28 27
31 33 29 27 29 30 30 31 31 31 32 29 29 29 28 27 24 24 22 22 22 21 21 21 21 21 20 21 21 22 24 28 28 28 28 27 25 24 23 24 26 26 26 28
33 30 28 25 31 29 29 32 33 30 28 28 26 25 25 25 23 23 23 22 20 20 21 20 20 20 19 20 19 20 22 25 26 26 26 25 25 22 22 20 19 27 27 29

GFSCGP_sfc_temp_117.txt.gz
Temp
46 42 39 43 42 43 41 37 36 41 46 42 42 43 47 51 52 52 54 55 57 59 64 68 66 61 60 71 75 76 73 72 71 71 68 68 66 68 69 74 73 70 69 69
41 37 46 45 43 40 39 35 35 41 46 44 42 41 47 50 50 52 53 54 56 58 61 65 57 55 55 56 61 73 73 73 71 73 71 71 68 70 70 70 70 70 70 69
37 43 45 42 41 37 38 35 36 36 42 44 41 39 44 51 53 54 55 53 55 52 55 52 52 51 52 52 55 60 69 73 71 71 70 69 69 68 66 68 68 68 71 69
39 44 42 40 38 40 32 42 40 38 35 30 42 26 41 46 47 44 44 42 41 43 46 47 48 48 48 50 53 58 60 69 70 69 69 67 68 65 68 69 69 67 69 69
41 40 39 38 40 42 40 43 41 40 36 34 37 28 37 42 34 35 36 39 40 41 42 43 44 46 47 49 50 53 56 56 57 64 68 66 67 69 69 68 66 67 67 68
41 47 44 42 44 44 46 41 41 40 35 25 35 32 35 30 31 33 34 38 39 40 41 42 44 45 45 47 48 50 54 54 54 56 57 65 68 68 66 67 65 66 67 66
39 41 44 45 40 44 41 38 29 28 27 26 34 28 29 33 34 33 32 34 37 39 39 40 40 41 42 42 44 48 51 50 51 52 54 54 55 60 66 67 68 66 66 65
29 31 41 45 42 40 40 39 30 20 25 28 34 27 28 35 37 35 35 33 35 36 38 39 39 39 40 41 42 43 47 48 50 52 52 55 55 55 57 66 68 68 67 66
28 29 44 46 47 46 39 34 43 30 33 27 30 30 33 36 34 34 33 33 32 33 35 36 38 39 40 40 40 41 42 44 46 48 49 51 52 53 56 57 63 66 68 67
35 27 41 44 48 46 43 45 31 32 24 23 28 26 24 28 30 31 30 30 31 33 33 35 37 38 39 40 41 41 42 42 43 45 47 48 50 51 53 57 57 62 64 66
39 30 36 42 41 40 41 37 35 35 34 27 25 24 32 30 30 29 29 30 31 31 32 33 35 37 38 39 39 39 39 41 41 42 44 45 46 48 49 51 56 55 63 63
40 34 28 36 46 47 44 40 37 29 29 33 27 23 33 33 32 31 30 30 31 31 32 32 33 35 35 36 37 37 37 38 40 41 42 42 43 45 46 46 48 51 52 63
38 33 29 35 39 42 37 40 39 37 35 30 26 24 34 33 32 31 29 29 30 31 31 32 31 32 32 34 35 35 36 37 39 40 40 40 40 41 42 43 45 46 48 51
43 35 30 26 28 32 29 32 35 35 29 25 25 25 28 29 29 29 29 29 30 30 30 30 31 31 31 32 32 33 34 37 39 39 38 38 39 39 40 41 43 43 45 44
38 30 32 33 32 33 30 28 31 30 32 27 25 25 27 28 29 28 29 29 29 29 30 30 29 30 31 30 32 33 33 35 37 36 36 36 38 39 39 39 40 41 41 42
39 30 32 31 34 33 28 29 31 31 30 28 28 25 30 30 30 28 28 28 28 28 28 29 30 30 31 31 30 31 32 33 34 34 34 36 37 37 36 37 37 38 38 39
32 31 31 29 33 33 26 27 28 30 31 32 28 28 30 27 28 27 27 28 27 28 28 28 28 28 30 31 31 29 30 33 32 32 32 33 35 35 35 35 36 35 35 36
32 32 33 31 30 21 28 33 33 30 30 32 31 30 30 29 29 29 28 27 27 28 28 27 27 27 29 32 32 32 31 31 30 29 30 31 32 34 35 34 34 33 33 33
37 33 30 28 27 28 29 30 30 29 27 31 30 32 31 30 33 26 28 29 27 28 28 28 29 28 29 30 32 32 29 29 28 27 28 29 30 31 32 32 32 33 33 32
38 37 32 30 25 22 26 31 35 36 26 32 32 30 31 33 28 25 27 27 28 29 30 29 30 30 29 30 32 31 29 27 26 27 28 28 30 29 29 30 31 32 33 32
32 32 27 27 26 26 30 33 36 25 25 32 32 31 32 27 28 27 28 26 27 28 29 30 30 28 28 30 32 29 29 28 29 30 30 29 29 30 30 31 31 31 32 32
28 26 26 27 24 21 32 33 30 30 33 33 33 32 29 28 27 25 24 23 26 26 28 29 29 28 28 30 30 28 27 31 34 32 30 30 30 30 31 30 31 31 30 31
28 31 27 26 25 31 33 31 33 36 34 33 33 33 32 28 24 24 23 23 24 26 27 28 28 28 28 28 28 26 27 31 32 33 32 31 31 31 31 30 30 31 31 29
33 36 29 28 30 30 32 33 33 33 32 35 35 32 32 28 27 25 25 25 25 26 26 27 27 26 25 28 28 28 28 32 33 31 32 33 31 31 31 32 32 31 30 30
33 34 30 28 29 30 31 32 33 32 33 32 32 31 30 29 27 27 25 25 25 25 25 26 25 25 24 26 26 27 28 31 32 31 31 31 31 31 30 29 28 28 28 29
35 31 29 28 32 32 30 32 34 31 30 30 30 27 28 29 26 27 25 25 25 24 24 24 24 24 24 24 24 24 26 29 30 29 30 28 29 29 29 29 30 27 27 27

GFSCGP_sfc_temp_120.txt.gz
Temp
56 53 53 53 53 52 50 48 48 54 59 52 51 53 58 62 63 62 63 64 65 67 72 73 73 75 76 77 75 78 80 83 81 79 78 79 78 80 81 84 82 79 72 71
52 50 55 53 52 49 49 46 47 53 55 53 53 52 60 61 60 57 56 57 58 60 65 69 71 73 69 68 69 74 80 83 82 81 82 82 80 80 82 83 82 80 72 71
48 53 52 50 50 47 49 47 48 47 53 56 53 52 55 58 56 54 53 52 52 53 54 59 62 63 63 64 65 69 76 84 82 79 80 81 81 80 78 79 80 77 76 72
50 53 49 49 48 50 43 53 50 48 46 41 52 36 51 51 50 48 47 43 40 41 44 49 50 51 53 55 57 64 69 70 76 73 76 74 77 74 76 78 79 75 74 77
50 49 48 47 49 50 47 53 49 48 45 45 48 40 50 48 40 40 41 40 37 39 40 42 44 46 48 48 50 56 59 56 57 71 73 71 77 79 79 78 76 73 71 75
51 57 51 52 52 52 53 49 50 50 46 36 44 39 43 34 32 36 37 39 37 36 38 40 42 44 44 45 46 51 54 52 54 57 64 69 67 74 76 73 72 70 70 69
50 50 53 52 49 53 49 46 39 36 35 39 47 39 32 34 36 35 33 34 37 35 35 36 38 40 42 41 43 47 50 50 52 54 56 59 59 63 71 73 72 69 68 66
40 40 50 52 49 46 48 45 37 24 31 37 45 35 33 40 40 37 37 33 36 34 34 34 34 38 39 41 41 43 45 46 50 51 54 56 57 57 59 62 65 73 70 69
37 35 52 52 54 52 46 42 49 35 39 31 38 34 34 44 39 36 33 33 32 33 33 32 34 37 38 40 39 40 43 44 46 48 52 52 54 54 55 57 59 59 69 69
42 29 48 50 53 55 50 51 37 36 26 27 33 29 28 30 30 31 30 30 31 32 32 32 33 35 37 39 39 39 42 42 43 46 48 50 51 52 53 55 57 59 59 64
46 34 43 49 47 46 46 42 42 39 39 30 30 27 32 30 30 29 29 30 30 31 30 31 32 34 35 38 39 38 40 41 42 43 44 45 47 48 49 50 52 54 56 56
44 39 36 43 52 52 51 44 39 32 34 37 32 27 34 34 33 32 30 30 31 31 31 31 31 32 33 34 36 37 38 39 40 42 42 42 43 44 45 45 47 50 52 53
45 39 35 42 46 49 41 42 41 38 35 31 29 26 37 36 33 32 29 30 30 30 31 31 31 30 30 32 34 37 37 40 42 42 42 41 41 41 42 42 44 45 47 49
45 41 34 32 32 36 32 35 39 35 32 30 30 27 30 31 30 30 30 30 30 30 30 30 31 31 31 31 32 34 37 40 42 42 42 40 40 41 41 41 42 43 44 45
45 32 37 37 35 37 34 31 34 32 33 31 28 27 28 30 30 29 30 30 30 30 30 30 30 30 32 31 31 36 37 38 39 40 40 41 40 40 41 40 40 41 41 42
44 34 34 32 37 36 31 31 35 35 33 30 32 27 31 32 31 30 29 31 31 31 30 30 31 31 31 32 33 33 35 36 39 39 37 39 41 41 38 39 39 39 38 39
38 34 32 33 36 37 31 28 30 32 36 35 31 31 33 31 30 28 29 32 30 31 30 28 28 30 30 32 34 32 34 36 36 36 37 38 39 39 39 38 37 35 36 36
37 34 34 35 34 26 30 38 39 35 35 37 36 34 34 32 30 30 31 30 30 31 31 30 29 30 31 33 34 36 35 35 33 32 33 35 36 37 38 37 37 36 35 34
44 35 34 31 33 29 31 33 34 33 30 35 34 35 34 33 36 29 31 32 31 31 33 34 34 32 32 32 34 34 33 32 32 30 30 31 33 34 35 34 34 35 35 34
42 41 35 35 29 26 31 35 37 37 28 36 37 35 36 34 32 29 30 30 32 35 35 35 37 36 35 35 36 32 31 31 30 31 31 31 32 31 32 33 32 34 35 33
35 35 32 32 31 30 34 34 36 27 27 38 39 39 39 34 33 29 32 30 33 36 35 37 38 36 36 38 38 33 32 31 33 34 34 32 32 32 32 32 33 32 33 33
36 33 32 33 30 25 36 34 30 33 38 39 39 38 34 31 30 28 28 28 32 35 36 37 36 36 37 38 38 34 31 37 39 39 36 35 35 34 34 33 34 33 33 32
32 37 34 32 30 34 34 33 37 41 37 38 39 40 38 32 28 27 27 27 31 35 36 37 36 35 36 37 37 34 33 39 40 40 39 38 38 38 37 35 34 34 34 34
37 41 34 32 31 32 32 34 37 40 38 40 41 39 37 32 31 29 31 32 33 35 35 36 35 34 33 35 35 35 37 40 40 39 39 40 39 39 39 38 37 33 31 31
39 39 34 29 31 32 32 33 35 36 37 37 39 38 36 36 34 34 33 33 34 34 34 34 33 32 32 34 33 34 35 37 38 38 37 37 38 37 37 37 33 32 29 28
40 36 33 31 33 33 32 33 34 34 35 36 35 34 35 35 33 34 32 33 33 32 33 33 32 31 31 31 30 30 33 34 34 34 35 34 35 35 35 35 35 27 27 26

GFSCGP_sfc_temp_123.txt.gz
Temp
64 58 58 63 61 59 57 55 55 61 66 59 59 61 65 70 66 62 62 61 61 61 64 66 69 73 76 77 77 79 78 80 82 77 74 78 79 81 82 87 87 78 73 72
58 55 63 60 59 56 56 53 55 61 63 60 59 59 66 66 62 60 58 58 56 53 54 57 59 63 69 68 71 74 75 75 78 84 78 77 82 83 85 87 86 84 75 72
55 61 60 57 57 55 56 54 54 54 59 61 60 57 61 65 64 59 58 56 54 48 46 47 49 52 58 59 61 66 68 73 75 78 80 75 83 83 84 85 85 83 79 72
58 63 57 56 55 57 49 60 56 54 51 45 59 42 58 56 54 52 53 51 47 47 47 43 43 44 48 50 54 56 61 68 72 70 71 73 79 81 82 84 85 85 82 74
56 56 55 53 56 57 52 58 54 54 51 50 52 48 56 53 43 44 46 45 43 44 44 41 40 40 43 46 46 48 53 60 61 62 64 75 72 83 84 84 83 83 80 79
57 65 58 57 58 58 59 54 56 57 54 41 52 49 47 37 35 39 41 41 41 40 41 44 42 40 40 43 44 45 49 53 53 57 68 78 72 78 75 80 81 80 77 78
57 56 60 59 54 61 56 52 41 40 38 39 53 48 36 44 43 40 37 37 40 40 38 39 36 35 36 39 41 43 47 49 50 53 56 57 70 71 75 66 71 70 68 71
48 44 55 59 55 52 52 52 41 29 34 39 51 40 33 47 47 44 43 37 40 38 37 34 32 34 34 37 38 42 44 45 47 50 52 54 55 60 62 59 60 66 69 69
45 43 59 57 59 57 51 47 54 40 45 37 42 38 42 46 43 39 36 37 34 35 34 32 32 33 33 34 34 39 42 44 45 46 49 51 52 56 56 58 59 60 61 64
48 35 54 56 58 59 54 58 41 40 28 30 40 31 31 31 31 32 31 31 32 34 33 32 32 32 33 33 36 40 42 42 43 45 47 48 49 51 51 51 53 54 57 59
52 37 48 54 52 52 52 47 45 45 42 31 31 29 34 31 31 30 31 31 31 32 31 31 31 32 33 34 34 38 43 42 41 43 43 44 46 47 47 47 48 51 55 54
52 43 39 48 57 57 54 48 47 33 36 34 34 28 37 36 36 34 31 31 31 32 31 31 31 32 32 32 34 37 37 40 41 43 43 43 44 43 43 43 45 48 50 51
48 42 38 44 49 53 47 48 46 42 39 32 29 28 40 39 36 34 31 31 31 31 31 31 31 30 31 32 32 34 37 36 38 41 42 42 41 41 41 41 42 44 44 45
47 44 39 38 40 43 36 41 42 39 30 34 32 29 32 33 32 33 33 32 32 31 30 31 31 30 32 32 32 34 36 39 39 40 42 41 40 40 41 42 41 41 41 41
48 35 38 42 43 42 37 32 37 35 38 32 30 29 30 32 32 32 33 35 34 32 31 30 30 30 31 33 33 34 36 38 41 41 41 42 44 43 42 41 40 39 39 40
48 34 35 33 42 41 32 33 38 37 35 33 35 29 34 36 36 33 34 36 35 34 33 31 31 31 31 34 35 37 37 37 39 39 38 41 42 41 40 39 39 39 38 38
42 38 34 35 43 40 32 31 34 37 41 40 36 35 37 35 34 31 32 35 33 33 33 30 30 31 32 33 36 35 37 37 36 35 36 38 40 40 40 41 39 37 36 36
39 37 39 37 38 26 32 45 45 41 41 43 39 37 39 37 35 34 34 34 33 34 35 34 32 32 33 35 36 36 36 37 35 33 34 36 37 37 38 37 38 37 37 35
50 39 35 34 36 31 33 39 40 39 35 41 39 39 39 38 38 31 34 35 35 36 38 40 40 37 37 36 37 36 35 35 34 32 32 33 35 35 35 35 35 36 36 35
47 44 36 37 31 28 33 40 44 44 32 41 41 39 39 39 30 32 33 32 36 41 41 41 42 42 41 41 40 37 35 34 33 34 33 33 34 33 33 34 34 36 36 34
36 37 33 35 34 33 37 39 40 29 31 41 43 43 41 35 33 32 34 32 38 41 41 43 43 41 41 43 43 38 39 35 36 39 39 36 34 34 34 34 35 34 34 34
39 37 35 37 33 29 39 35 31 37 41 42 41 41 37 34 32 31 30 30 37 41 41 43 41 40 41 42 42 39 38 43 44 43 41 40 40 38 38 36 35 34 34 33
36 44 38 36 32 36 35 36 40 41 39 40 41 41 39 33 29 29 29 31 37 41 42 42 41 40 40 40 40 38 39 43 44 43 42 42 41 42 41 38 36 34 34 33
41 46 35 35 34 35 35 36 38 38 38 42 43 41 40 34 34 33 35 37 39 41 40 41 40 38 36 38 38 37 39 42 43 41 41 41 41 41 42 40 38 35 30 30
42 43 37 32 34 35 34 35 36 36 39 41 43 42 41 41 39 40 39 39 39 39 39 39 37 36 36 36 35 36 37 38 38 39 39 38 39 39 39 39 35 34 29 28
44 39 35 34 37 36 33 34 36 34 36 39 39 38 40 41 38 39 38 38 38 37 38 37 36 35 34 34 32 32 33 35 34 35 35 36 36 37 37 36 36 28 28 27

GFSCGP_sfc_temp_126.txt.gz
Temp
65 57 54 61 64 61 58 55 54 59 66 62 58 59 63 69 66 61 60 58 57 56 58 58 57 56 56 57 58 60 60 64 70 71 68 69 69 70 73 77 76 75 74 73
60 52 62 66 62 58 56 53 53 60 65 62 59 57 64 68 60 58 56 54 53 52 52 53 52 51 50 51 53 54 56 58 60 66 71 68 69 70 74 76 77 76 74 73
55 61 65 60 58 56 56 54 54 54 59 61 58 56 61 59 58 56 55 52 50 48 47 47 49 48 48 47 48 51 52 53 56 59 65 67 64 69 69 74 76 75 74 72
59 65 62 59 56 58 50 61 58 54 51 43 58 40 54 58 52 50 48 46 45 45 46 46 45 45 45 45 47 48 49 50 53 56 58 60 58 58 69 73 77 75 73 72
54 58 56 53 56 61 54 59 55 54 50 49 51 46 43 52 42 43 44 43 42 43 43 42 42 42 43 43 43 44 46 47 50 52 56 54 55 58 65 73 76 76 72 72
57 65 61 58 61 60 60 55 54 55 52 40 50 43 33 35 39 41 41 40 40 41 41 40 40 39 39 41 40 40 41 45 48 51 52 54 56 58 61 71 74 76 73 70
55 56 62 63 54 59 57 50 38 37 38 38 52 46 37 43 43 41 37 36 38 40 38 37 35 35 36 36 37 37 38 42 46 47 51 54 57 59 63 69 74 74 72 70
46 44 58 61 55 53 54 51 39 29 31 37 50 39 34 46 44 42 40 37 37 37 37 35 32 33 34 35 35 35 36 40 44 46 50 51 53 56 57 56 61 65 66 68
43 46 61 61 60 57 51 46 54 41 43 35 42 38 44 44 40 38 35 35 33 35 35 33 32 33 33 32 32 33 35 40 43 45 47 48 48 50 52 52 53 57 57 59
49 36 54 58 60 59 54 58 42 42 28 29 40 33 31 31 31 33 31 31 32 34 33 33 32 32 33 32 32 34 36 38 41 43 44 45 45 47 48 50 49 50 51 52
52 39 47 55 50 49 50 47 47 45 41 31 29 28 35 31 31 31 31 31 31 32 31 32 32 32 33 33 32 32 35 37 39 41 41 41 42 43 43 44 45 46 47 48
51 45 36 45 58 59 55 50 47 35 35 36 32 29 38 36 35 34 31 32 32 32 31 31 32 32 32 32 33 32 34 37 36 41 40 40 41 41 41 40 42 43 43 43
49 40 34 42 50 52 49 50 47 44 40 31 28 29 40 38 35 35 32 32 32 32 31 31 31 31 31 32 32 32 33 36 39 40 40 37 36 38 38 39 40 40 41 41
47 42 37 31 35 43 40 42 44 41 31 33 34 28 32 33 32 32 34 35 33 32 31 30 30 30 31 32 32 33 33 35 37 39 37 36 36 36 38 38 38 38 39 39
46 34 40 41 43 44 41 36 39 37 37 32 31 30 31 32 31 32 36 37 36 34 33 32 30 30 31 32 32 33 33 35 37 37 36 36 36 38 36 36 36 36 36 37
47 35 33 33 41 43 37 33 35 39 37 34 35 30 36 37 37 34 35 36 35 34 34 33 33 33 32 33 34 35 36 34 36 36 36 38 37 37 38 37 37 37 36 36
43 39 34 32 44 41 32 33 34 39 43 40 34 36 38 36 33 31 33 34 34 34 35 32 32 33 34 34 35 34 36 36 35 34 35 36 37 37 37 38 37 36 35 35
43 39 36 34 37 26 33 45 45 43 43 43 40 39 41 36 34 34 35 34 34 35 36 36 33 33 35 36 37 37 37 36 34 33 34 35 36 36 36 37 36 35 36 34
49 40 32 31 34 32 36 42 42 40 38 44 41 41 40 38 35 30 34 36 37 38 39 40 40 37 37 36 38 38 35 35 35 33 32 34 35 35 35 34 34 35 35 34
49 45 36 35 30 28 34 44 47 47 31 44 44 41 39 39 30 27 33 34 37 41 41 41 41 41 40 40 39 38 36 34 34 35 33 33 34 33 32 33 33 35 35 33
36 35 31 32 31 33 39 41 44 29 30 44 45 44 42 36 32 33 35 34 39 41 42 43 41 39 39 41 40 37 38 35 36 38 38 36 34 33 33 33 33 32 33 32
36 34 32 35 31 27 40 37 31 37 43 43 42 39 34 33 32 31 31 31 39 41 41 42 39 38 38 39 38 36 35 41 42 40 38 37 37 37 36 33 31 30 30 29
35 41 34 32 30 36 36 37 42 44 39 39 37 38 36 33 30 30 30 32 39 41 41 41 38 37 37 37 36 34 35 39 41 39 37 37 37 38 36 33 30 27 27 26
43 47 35 35 33 34 35 37 38 39 37 38 39 39 36 31 32 31 34 37 39 39 39 40 38 35 34 34 34 33 35 37 38 36 36 36 35 36 36 34 33 27 25 24
43 44 37 32 34 35 35 35 36 36 37 38 40 41 38 37 38 40 39 38 39 39 38 37 35 33 32 32 30 31 32 33 33 35 34 33 34 33 33 31 28 29 24 25
45 40 35 33 37 38 33 35 36 34 33 36 38 38 41 41 39 39 37 38 37 36 36 35 33 32 31 29 27 27 28 29 29 30 31 30 31 31 31 31 30 29 27 28

GFSCGP_sfc_temp_129.txt.gz
Temp
55 43 40 46 51 54 51 47 43 46 56 54 50 47 52 52 50 47 46 45 45 45 49 50 50 49 50 49 48 48 47 49 50 51 51 53 55 63 66 69 73 72 71 71
48 43 54 59 59 54 51 46 44 50 58 53 48 46 49 51 48 45 43 42 42 43 44 46 46 46 45 45 45 46 46 46 48 49 50 51 53 58 61 67 71 71 72 71
46 52 61 58 53 52 49 47 46 48 52 51 49 44 43 48 49 48 45 43 42 41 40 41 41 41 41 41 42 44 45 44 45 47 49 51 52 56 57 61 66 71 71 72
50 59 57 55 53 53 42 55 53 49 44 33 48 30 42 44 43 43 41 38 38 38 39 39 38 37 37 38 40 41 41 41 44 45 46 46 47 50 54 57 61 66 71 71
47 51 51 50 52 56 49 54 50 49 42 39 42 34 36 44 37 37 38 37 36 37 37 37 36 36 37 37 39 40 40 40 42 44 46 48 49 51 52 55 59 61 67 71
50 59 55 53 58 56 57 50 48 48 43 27 42 41 31 30 33 34 36 35 35 36 38 38 37 36 35 36 36 37 37 39 40 43 46 46 46 48 50 53 56 58 62 68
49 51 56 59 50 53 51 41 27 25 25 28 45 35 27 35 35 35 33 33 36 37 36 34 32 32 34 34 34 35 35 36 38 41 45 46 48 51 52 53 56 59 58 61
38 32 50 57 52 47 46 44 31 22 21 26 43 29 26 37 39 38 37 35 36 35 33 32 31 32 33 33 33 34 35 35 38 41 43 46 49 51 55 55 57 58 55 55
36 37 53 57 57 54 47 40 49 36 36 23 29 34 38 39 35 36 34 34 32 32 31 30 31 32 33 32 32 33 34 35 36 39 43 44 45 47 51 53 52 55 52 55
43 29 49 53 55 55 49 52 34 33 20 21 29 26 23 25 29 32 30 30 32 32 30 30 30 31 32 32 33 34 35 34 35 37 40 42 43 44 46 46 46 49 53 52
47 35 40 48 47 45 46 42 42 40 34 20 14 23 34 28 26 28 30 31 31 28 28 29 30 31 33 33 33 33 33 33 33 35 37 39 40 41 42 42 42 43 46 46
46 40 34 40 52 54 52 47 44 28 28 27 27 21 35 34 33 33 31 32 27 28 27 29 31 31 32 32 32 32 32 32 33 33 33 37 39 39 38 38 39 41 41 42
46 36 28 35 44 49 46 47 45 39 33 24 17 18 38 37 34 34 32 27 24 24 28 29 30 30 31 32 32 32 32 32 33 34 33 37 38 37 37 35 36 37 38 38
47 39 33 26 32 37 34 37 43 35 20 24 26 27 30 32 31 32 34 28 25 26 29 30 30 31 32 33 32 32 32 32 33 34 37 35 35 37 37 36 34 34 35 34
43 30 36 37 40 40 39 34 38 35 34 30 28 27 30 32 31 32 34 32 32 31 31 30 30 30 32 33 33 34 35 35 35 35 35 35 36 36 36 35 35 35 34 33
43 29 31 29 39 38 34 32 33 36 35 32 33 28 35 35 34 33 31 33 32 33 32 32 33 32 32 34 34 35 35 34 35 35 35 36 37 37 35 34 34 34 34 34
37 32 30 28 39 35 30 32 31 36 38 37 29 32 34 34 32 31 31 32 32 33 32 30 29 32 32 33 35 34 35 35 34 34 34 35 36 35 36 36 35 34 33 33
38 36 33 28 31 21 32 43 41 41 43 37 34 33 35 32 32 32 32 31 32 33 33 32 30 30 32 34 35 34 34 35 34 33 34 34 34 33 34 35 34 34 34 32
45 36 29 25 26 30 35 40 39 39 35 39 35 33 32 32 31 29 33 33 32 34 34 34 34 32 32 34 35 34 32 32 33 31 31 33 33 32 31 31 32 32 32 33
44 41 30 28 25 21 30 37 43 44 27 41 39 34 32 31 26 25 32 32 32 37 36 35 36 35 34 34 35 34 31 32 31 32 31 30 32 30 28 28 28 30 30 29
33 33 29 28 26 28 36 38 41 27 26 42 43 40 36 29 27 30 33 32 34 37 37 37 35 33 33 34 34 30 32 31 32 34 35 33 32 30 28 26 27 26 26 26
33 29 28 28 26 23 37 35 30 34 38 35 35 33 29 30 30 30 30 29 33 35 35 35 33 31 32 32 32 29 28 34 36 34 33 32 32 32 30 26 26 25 24 22
31 35 30 29 27 33 36 36 39 40 33 32 32 32 31 28 28 29 28 28 34 35 32 33 31 30 30 30 29 26 28 32 35 33 30 31 31 31 30 26 24 23 22 20
39 42 30 29 32 32 35 37 38 37 35 35 34 32 31 29 30 30 31 32 34 34 31 32 30 28 26 26 26 26 27 30 32 30 30 30 29 29 26 27 25 22 20 20
37 38 32 29 32 33 34 35 35 35 37 35 35 34 34 34 34 35 36 35 35 34 32 31 27 26 24 24 23 24 25 26 27 29 28 27 28 27 26 25 21 23 19 23
38 34 27 26 32 31 32 34 36 33 33 34 34 33 37 39 36 36 34 34 33 31 30 28 26 25 23 22 21 21 23 24 24 25 26 25 25 25 25 24 24 29 25 28